<?xml version='1.0' encoding='UTF-8'?><gpx version="1.1" creator="JPX - https://github.com/jenetics/jpx" xmlns="http://www.topografix.com/GPX/1/1"><trk><trkseg><trkpt lat="43.91421412445936" lon="4.512299412582876"><ele>111.0</ele><time>2026-04-04T13:51:27Z</time></trkpt><trkpt lat="43.91410768066829" lon="4.512227489711481"><ele>111.0</ele><time>2026-04-04T13:51:29Z</time></trkpt><trkpt lat="43.91402122994755" lon="4.5121824941687265"><ele>111.0</ele><time>2026-04-04T13:51:32Z</time></trkpt><trkpt lat="43.913951265283174" lon="4.512172735431275"><ele>111.0</ele><time>2026-04-04T13:51:34Z</time></trkpt><trkpt lat="43.91387957430972" lon="4.5121818055382334"><ele>111.0</ele><time>2026-04-04T13:51:36Z</time></trkpt><trkpt lat="43.91379965466309" lon="4.512153771357541"><ele>111.0</ele><time>2026-04-04T13:51:39Z</time></trkpt><trkpt lat="43.91379988247637" lon="4.512054285725959"><ele>111.0</ele><time>2026-04-04T13:51:43Z</time></trkpt><trkpt lat="43.91384876366217" lon="4.511986382050997"><ele>111.0</ele><time>2026-04-04T13:51:45Z</time></trkpt><trkpt lat="43.91389832510665" lon="4.511931975026274"><ele>111.0</ele><time>2026-04-04T13:51:46.999Z</time></trkpt><trkpt lat="43.91395860720437" lon="4.511861830880728"><ele>111.0</ele><time>2026-04-04T13:51:48.999Z</time></trkpt><trkpt lat="43.91403082118223" lon="4.511796217274322"><ele>111.0</ele><time>2026-04-04T13:51:51.999Z</time></trkpt><trkpt lat="43.914083189065316" lon="4.511746973623595"><ele>111.0</ele><time>2026-04-04T13:51:53.999Z</time></trkpt><trkpt lat="43.91414209415474" lon="4.511673876916068"><ele>111.0</ele><time>2026-04-04T13:51:56.999Z</time></trkpt><trkpt lat="43.91407702522994" lon="4.511553620978993"><ele>111.0</ele><time>2026-04-04T13:51:57.999Z</time></trkpt><trkpt lat="43.91403698386976" lon="4.511479221547162"><ele>111.0</ele><time>2026-04-04T13:51:58.999Z</time></trkpt><trkpt lat="43.91394142312974" lon="4.511397120548551"><ele>111.0</ele><time>2026-04-04T13:52:00.999Z</time></trkpt><trkpt lat="43.913852966996735" lon="4.511333225878175"><ele>111.0</ele><time>2026-04-04T13:52:03.999Z</time></trkpt><trkpt lat="43.91378801559413" lon="4.511255602105092"><ele>111.0</ele><time>2026-04-04T13:52:04.999Z</time></trkpt><trkpt lat="43.91373165614095" lon="4.511204565945687"><ele>111.0</ele><time>2026-04-04T13:52:05.999Z</time></trkpt><trkpt lat="43.913650864831915" lon="4.511079261223916"><ele>111.19999999999999</ele><time>2026-04-04T13:52:07.999Z</time></trkpt><trkpt lat="43.91355122807996" lon="4.510988758872068"><ele>111.39999999999999</ele><time>2026-04-04T13:52:09.999Z</time></trkpt><trkpt lat="43.913461269649446" lon="4.510917540807809"><ele>111.6</ele><time>2026-04-04T13:52:11.999Z</time></trkpt><trkpt lat="43.913354832051205" lon="4.51088130198964"><ele>111.8</ele><time>2026-04-04T13:52:13.999Z</time></trkpt><trkpt lat="43.913280177375285" lon="4.5108275058527125"><ele>112.0</ele><time>2026-04-04T13:52:15.999Z</time></trkpt><trkpt lat="43.913165294160436" lon="4.510792999261227"><ele>111.66666666666667</ele><time>2026-04-04T13:52:17.999Z</time></trkpt><trkpt lat="43.91309155720585" lon="4.5107764236569"><ele>111.33333333333334</ele><time>2026-04-04T13:52:18.999Z</time></trkpt><trkpt lat="43.9130133335662" lon="4.510765625159104"><ele>111.0</ele><time>2026-04-04T13:52:19.999Z</time></trkpt><trkpt lat="43.9129487346391" lon="4.510759944178875"><ele>110.66666666666666</ele><time>2026-04-04T13:52:20.999Z</time></trkpt><trkpt lat="43.91288442965387" lon="4.510748400568132"><ele>110.33333333333333</ele><time>2026-04-04T13:52:21.999Z</time></trkpt><trkpt lat="43.91277407968678" lon="4.51069909339599"><ele>110.0</ele><time>2026-04-04T13:52:23.999Z</time></trkpt><trkpt lat="43.912673314440475" lon="4.5106490071422956"><ele>109.6</ele><time>2026-04-04T13:52:25.999Z</time></trkpt><trkpt lat="43.91257099902357" lon="4.510580897323161"><ele>109.2</ele><time>2026-04-04T13:52:27.999Z</time></trkpt><trkpt lat="43.912433936713796" lon="4.51066035445337"><ele>108.80000000000001</ele><time>2026-04-04T13:52:29.999Z</time></trkpt><trkpt lat="43.91236230811951" lon="4.510678280671901"><ele>108.4</ele><time>2026-04-04T13:52:30.999Z</time></trkpt><trkpt lat="43.91228258504434" lon="4.510724562447111"><ele>108.0</ele><time>2026-04-04T13:52:31.999Z</time></trkpt><trkpt lat="43.91221057263253" lon="4.510766367939594"><ele>108.0</ele><time>2026-04-04T13:52:32.999Z</time></trkpt><trkpt lat="43.91214496095995" lon="4.510804457603219"><ele>108.00000000000001</ele><time>2026-04-04T13:52:33.999Z</time></trkpt><trkpt lat="43.91208882363893" lon="4.510860173590796"><ele>108.00000000000001</ele><time>2026-04-04T13:52:34.999Z</time></trkpt><trkpt lat="43.91200054288381" lon="4.510904151679369"><ele>108.0</ele><time>2026-04-04T13:52:36.999Z</time></trkpt><trkpt lat="43.91192180708286" lon="4.510947201746785"><ele>108.0</ele><time>2026-04-04T13:52:39.999Z</time></trkpt><trkpt lat="43.91191306649816" lon="4.510756541831594"><ele>108.0</ele><time>2026-04-04T13:52:43.999Z</time></trkpt><trkpt lat="43.911903848546245" lon="4.510632926789777"><ele>108.0</ele><time>2026-04-04T13:52:45.999Z</time></trkpt><trkpt lat="43.911873710334646" lon="4.510528740274482"><ele>108.0</ele><time>2026-04-04T13:52:48.999Z</time></trkpt><trkpt lat="43.91181431144519" lon="4.5103602238136355"><ele>108.0</ele><time>2026-04-04T13:52:50.999Z</time></trkpt><trkpt lat="43.911786182275236" lon="4.510277596621501"><ele>108.0</ele><time>2026-04-04T13:52:51.999Z</time></trkpt><trkpt lat="43.91176201445127" lon="4.510183993665332"><ele>108.0</ele><time>2026-04-04T13:52:52.999Z</time></trkpt><trkpt lat="43.91174043964117" lon="4.510081441152025"><ele>108.83333333333333</ele><time>2026-04-04T13:52:53.999Z</time></trkpt><trkpt lat="43.91172522154624" lon="4.509980858192998"><ele>109.66666666666666</ele><time>2026-04-04T13:52:54.999Z</time></trkpt><trkpt lat="43.91169269353326" lon="4.509894519567305"><ele>110.5</ele><time>2026-04-04T13:52:55.999Z</time></trkpt><trkpt lat="43.91168681071739" lon="4.509804001662482"><ele>111.33333333333333</ele><time>2026-04-04T13:52:56.999Z</time></trkpt><trkpt lat="43.91165723978737" lon="4.509679590218208"><ele>112.16666666666666</ele><time>2026-04-04T13:52:58.999Z</time></trkpt><trkpt lat="43.911648652504816" lon="4.509588086366105"><ele>113.0</ele><time>2026-04-04T13:53:01.999Z</time></trkpt><trkpt lat="43.91161018231081" lon="4.50946303944813"><ele>113.0</ele><time>2026-04-04T13:53:04Z</time></trkpt><trkpt lat="43.911537950866595" lon="4.50937756218383"><ele>113.00000000000001</ele><time>2026-04-04T13:53:06Z</time></trkpt><trkpt lat="43.91145930412325" lon="4.5092923122512"><ele>113.00000000000001</ele><time>2026-04-04T13:53:09Z</time></trkpt><trkpt lat="43.911388696594884" lon="4.509226432481712"><ele>113.0</ele><time>2026-04-04T13:53:11Z</time></trkpt><trkpt lat="43.91131164033387" lon="4.509155516843638"><ele>113.0</ele><time>2026-04-04T13:53:13Z</time></trkpt><trkpt lat="43.91122106739502" lon="4.509062640604429"><ele>112.99999999999999</ele><time>2026-04-04T13:53:15Z</time></trkpt><trkpt lat="43.911163755745655" lon="4.508992162763792"><ele>113.0</ele><time>2026-04-04T13:53:16Z</time></trkpt><trkpt lat="43.91109037537467" lon="4.508935390861399"><ele>113.0</ele><time>2026-04-04T13:53:17Z</time></trkpt><trkpt lat="43.91103179073185" lon="4.508890087259622"><ele>113.0</ele><time>2026-04-04T13:53:18Z</time></trkpt><trkpt lat="43.91097372032714" lon="4.508845181323341"><ele>112.99999999999999</ele><time>2026-04-04T13:53:19Z</time></trkpt><trkpt lat="43.91086320717557" lon="4.508774574881656"><ele>113.0</ele><time>2026-04-04T13:53:21Z</time></trkpt><trkpt lat="43.91080502046095" lon="4.508715371008801"><ele>112.80000000000001</ele><time>2026-04-04T13:53:22Z</time></trkpt><trkpt lat="43.910733327620754" lon="4.5086432665513545"><ele>112.60000000000001</ele><time>2026-04-04T13:53:23Z</time></trkpt><trkpt lat="43.91065196030526" lon="4.508569007464524"><ele>112.39999999999999</ele><time>2026-04-04T13:53:24Z</time></trkpt><trkpt lat="43.91057126049049" lon="4.508492370276977"><ele>112.19999999999999</ele><time>2026-04-04T13:53:25Z</time></trkpt><trkpt lat="43.910495963148676" lon="4.508409297348765"><ele>112.0</ele><time>2026-04-04T13:53:26Z</time></trkpt><trkpt lat="43.91042399788944" lon="4.508348898731457"><ele>112.00000000000001</ele><time>2026-04-04T13:53:27Z</time></trkpt><trkpt lat="43.910357420402086" lon="4.508292309915648"><ele>112.0</ele><time>2026-04-04T13:53:28Z</time></trkpt><trkpt lat="43.91029109096331" lon="4.50824111905751"><ele>112.0</ele><time>2026-04-04T13:53:29Z</time></trkpt><trkpt lat="43.910217283185915" lon="4.508178787179182"><ele>112.0</ele><time>2026-04-04T13:53:30Z</time></trkpt><trkpt lat="43.9101492046255" lon="4.508104868711456"><ele>112.00000000000001</ele><time>2026-04-04T13:53:30.999Z</time></trkpt><trkpt lat="43.91007468941627" lon="4.50801731919051"><ele>112.0</ele><time>2026-04-04T13:53:31.999Z</time></trkpt><trkpt lat="43.910003183529376" lon="4.507931786828164"><ele>112.39999999999999</ele><time>2026-04-04T13:53:32.999Z</time></trkpt><trkpt lat="43.90994220291837" lon="4.5078693573336555"><ele>112.79999999999998</ele><time>2026-04-04T13:53:33.999Z</time></trkpt><trkpt lat="43.90985480517465" lon="4.507775482446175"><ele>113.2</ele><time>2026-04-04T13:53:35.999Z</time></trkpt><trkpt lat="43.909759502484405" lon="4.507732689774464"><ele>113.6</ele><time>2026-04-04T13:53:37.999Z</time></trkpt><trkpt lat="43.90968166123747" lon="4.507742457456542"><ele>114.0</ele><time>2026-04-04T13:53:38.999Z</time></trkpt><trkpt lat="43.90957073927286" lon="4.50766251479371"><ele>114.0</ele><time>2026-04-04T13:53:40.999Z</time></trkpt><trkpt lat="43.90941695519394" lon="4.507673926472003"><ele>114.0</ele><time>2026-04-04T13:53:42.999Z</time></trkpt><trkpt lat="43.909329363154725" lon="4.507712039568455"><ele>114.0</ele><time>2026-04-04T13:53:43.999Z</time></trkpt><trkpt lat="43.909246548202795" lon="4.50777213895524"><ele>114.0</ele><time>2026-04-04T13:53:44.999Z</time></trkpt><trkpt lat="43.90916179254648" lon="4.507824664517947"><ele>114.0</ele><time>2026-04-04T13:53:45.999Z</time></trkpt><trkpt lat="43.90908288752425" lon="4.507865832784806"><ele>114.16666666666667</ele><time>2026-04-04T13:53:46.999Z</time></trkpt><trkpt lat="43.90900985446633" lon="4.5079006876943035"><ele>114.33333333333334</ele><time>2026-04-04T13:53:47.999Z</time></trkpt><trkpt lat="43.90894127436938" lon="4.507942296807625"><ele>114.5</ele><time>2026-04-04T13:53:48.999Z</time></trkpt><trkpt lat="43.90888224531766" lon="4.507980060226659"><ele>114.66666666666667</ele><time>2026-04-04T13:53:49.999Z</time></trkpt><trkpt lat="43.908819764453874" lon="4.508016568001266"><ele>114.83333333333334</ele><time>2026-04-04T13:53:50.999Z</time></trkpt><trkpt lat="43.90873184224536" lon="4.508111684119485"><ele>115.0</ele><time>2026-04-04T13:53:52.999Z</time></trkpt><trkpt lat="43.90866513092648" lon="4.508235561346349"><ele>115.0</ele><time>2026-04-04T13:53:54.999Z</time></trkpt><trkpt lat="43.90857994399225" lon="4.508349109876274"><ele>115.0</ele><time>2026-04-04T13:53:56.999Z</time></trkpt><trkpt lat="43.90853462178024" lon="4.508420237027653"><ele>115.0</ele><time>2026-04-04T13:53:57.999Z</time></trkpt><trkpt lat="43.90847114050888" lon="4.508538307124871"><ele>115.0</ele><time>2026-04-04T13:53:59.999Z</time></trkpt><trkpt lat="43.90841979641954" lon="4.508650665722063"><ele>115.0</ele><time>2026-04-04T13:54:01.999Z</time></trkpt><trkpt lat="43.90837791293726" lon="4.508755774957498"><ele>114.50000000000001</ele><time>2026-04-04T13:54:03.999Z</time></trkpt><trkpt lat="43.90837804674386" lon="4.508862269566576"><ele>114.0</ele><time>2026-04-04T13:54:05.999Z</time></trkpt><trkpt lat="43.908364847588686" lon="4.508951625526841"><ele>113.5</ele><time>2026-04-04T13:54:07.999Z</time></trkpt><trkpt lat="43.90833666138205" lon="4.509034429248923"><ele>113.0</ele><time>2026-04-04T13:54:10.999Z</time></trkpt><trkpt lat="43.9082585521108" lon="4.509037628612652"><ele>112.50000000000001</ele><time>2026-04-04T13:54:12.999Z</time></trkpt><trkpt lat="43.90816127012917" lon="4.509026429563269"><ele>112.0</ele><time>2026-04-04T13:54:14.999Z</time></trkpt><trkpt lat="43.90803707671219" lon="4.509029303488199"><ele>112.00000000000001</ele><time>2026-04-04T13:54:16.999Z</time></trkpt><trkpt lat="43.90795624729733" lon="4.509041843213804"><ele>112.0</ele><time>2026-04-04T13:54:17.999Z</time></trkpt><trkpt lat="43.90787964845797" lon="4.50907213904636"><ele>112.0</ele><time>2026-04-04T13:54:18.999Z</time></trkpt><trkpt lat="43.90780719414874" lon="4.509106043186413"><ele>112.0</ele><time>2026-04-04T13:54:19.999Z</time></trkpt><trkpt lat="43.907738789106524" lon="4.509130733121298"><ele>112.00000000000001</ele><time>2026-04-04T13:54:20.999Z</time></trkpt><trkpt lat="43.90766843622948" lon="4.509144996677214"><ele>112.0</ele><time>2026-04-04T13:54:21.999Z</time></trkpt><trkpt lat="43.90759838133753" lon="4.509153645289581"><ele>111.57142857142857</ele><time>2026-04-04T13:54:22.999Z</time></trkpt><trkpt lat="43.90753083674849" lon="4.509166712219154"><ele>111.14285714285714</ele><time>2026-04-04T13:54:23.999Z</time></trkpt><trkpt lat="43.90746199124778" lon="4.509178316978609"><ele>110.71428571428572</ele><time>2026-04-04T13:54:24.999Z</time></trkpt><trkpt lat="43.90739723645654" lon="4.509188247322051"><ele>110.28571428571428</ele><time>2026-04-04T13:54:25.999Z</time></trkpt><trkpt lat="43.907333150148226" lon="4.509196684868691"><ele>109.85714285714286</ele><time>2026-04-04T13:54:26.999Z</time></trkpt><trkpt lat="43.90726905720506" lon="4.509208393697624"><ele>109.42857142857143</ele><time>2026-04-04T13:54:27.999Z</time></trkpt><trkpt lat="43.90720566528587" lon="4.509215112178685"><ele>109.0</ele><time>2026-04-04T13:54:28.999Z</time></trkpt><trkpt lat="43.90708617221351" lon="4.509212961997004"><ele>109.0</ele><time>2026-04-04T13:54:30.999Z</time></trkpt><trkpt lat="43.907009142191924" lon="4.509238590079843"><ele>109.0</ele><time>2026-04-04T13:54:32.999Z</time></trkpt><trkpt lat="43.9069208014457" lon="4.509262198575759"><ele>109.0</ele><time>2026-04-04T13:54:35.999Z</time></trkpt><trkpt lat="43.906830515117285" lon="4.509271176431103"><ele>109.0</ele><time>2026-04-04T13:54:37.999Z</time></trkpt><trkpt lat="43.90673531011446" lon="4.509295335364418"><ele>109.0</ele><time>2026-04-04T13:54:39.999Z</time></trkpt><trkpt lat="43.90660799195232" lon="4.509358110732929"><ele>108.16666666666667</ele><time>2026-04-04T13:54:41.999Z</time></trkpt><trkpt lat="43.90652986082991" lon="4.509393464671592"><ele>107.33333333333334</ele><time>2026-04-04T13:54:42.999Z</time></trkpt><trkpt lat="43.90645947465089" lon="4.5094196003719444"><ele>106.5</ele><time>2026-04-04T13:54:43.999Z</time></trkpt><trkpt lat="43.906391414386285" lon="4.509445679168104"><ele>105.66666666666666</ele><time>2026-04-04T13:54:44.999Z</time></trkpt><trkpt lat="43.906306485580544" lon="4.509477147066747"><ele>104.83333333333333</ele><time>2026-04-04T13:54:46.999Z</time></trkpt><trkpt lat="43.906237162659664" lon="4.509516993386316"><ele>104.0</ele><time>2026-04-04T13:54:48.999Z</time></trkpt><trkpt lat="43.90615325007511" lon="4.509540782726659"><ele>104.0</ele><time>2026-04-04T13:54:50.999Z</time></trkpt><trkpt lat="43.90605504601731" lon="4.5095686574792815"><ele>104.0</ele><time>2026-04-04T13:54:52.999Z</time></trkpt><trkpt lat="43.90595248563191" lon="4.509607211749377"><ele>104.0</ele><time>2026-04-04T13:54:54.999Z</time></trkpt><trkpt lat="43.90586120786711" lon="4.509643715362379"><ele>104.0</ele><time>2026-04-04T13:54:56.999Z</time></trkpt><trkpt lat="43.905764668631065" lon="4.509673966502415"><ele>104.0</ele><time>2026-04-04T13:54:58.999Z</time></trkpt><trkpt lat="43.905669935284" lon="4.5097139861407864"><ele>103.0</ele><time>2026-04-04T13:55:00.999Z</time></trkpt><trkpt lat="43.905580278195785" lon="4.509765293795727"><ele>102.0</ele><time>2026-04-04T13:55:02.999Z</time></trkpt><trkpt lat="43.90549320556658" lon="4.509809704766645"><ele>101.0</ele><time>2026-04-04T13:55:04.999Z</time></trkpt><trkpt lat="43.90538916924858" lon="4.509861458532441"><ele>100.0</ele><time>2026-04-04T13:55:06.999Z</time></trkpt><trkpt lat="43.90529249279838" lon="4.509919039013703"><ele>99.0</ele><time>2026-04-04T13:55:08.999Z</time></trkpt><trkpt lat="43.905224310498696" lon="4.509962649353112"><ele>99.0</ele><time>2026-04-04T13:55:10.999Z</time></trkpt><trkpt lat="43.9051435171986" lon="4.51002495418897"><ele>99.0</ele><time>2026-04-04T13:55:13.999Z</time></trkpt><trkpt lat="43.90510454971581" lon="4.510105876295206"><ele>99.0</ele><time>2026-04-04T13:55:16.999Z</time></trkpt><trkpt lat="43.90512076694359" lon="4.510214123291161"><ele>99.0</ele><time>2026-04-04T13:55:18.999Z</time></trkpt><trkpt lat="43.90511842453551" lon="4.51033340345999"><ele>99.0</ele><time>2026-04-04T13:55:20.999Z</time></trkpt><trkpt lat="43.905095260656445" lon="4.510422549256235"><ele>99.0</ele><time>2026-04-04T13:55:22.999Z</time></trkpt><trkpt lat="43.90505395730402" lon="4.51049878227799"><ele>99.83333333333333</ele><time>2026-04-04T13:55:24.999Z</time></trkpt><trkpt lat="43.90498679005978" lon="4.51048624195363"><ele>100.66666666666666</ele><time>2026-04-04T13:55:26.999Z</time></trkpt><trkpt lat="43.904931571950684" lon="4.510342096096062"><ele>101.5</ele><time>2026-04-04T13:55:29.999Z</time></trkpt><trkpt lat="43.90491926548232" lon="4.510242773342098"><ele>102.33333333333333</ele><time>2026-04-04T13:55:30.999Z</time></trkpt><trkpt lat="43.90490609114349" lon="4.5101335052995015"><ele>103.16666666666666</ele><time>2026-04-04T13:55:31.999Z</time></trkpt><trkpt lat="43.90488688786562" lon="4.51001917762976"><ele>104.0</ele><time>2026-04-04T13:55:32.999Z</time></trkpt><trkpt lat="43.90486555446394" lon="4.509903590106795"><ele>103.99999999999999</ele><time>2026-04-04T13:55:33.999Z</time></trkpt><trkpt lat="43.90483922261185" lon="4.509796764569918"><ele>104.0</ele><time>2026-04-04T13:55:34.999Z</time></trkpt><trkpt lat="43.90480182483823" lon="4.509697625001569"><ele>104.0</ele><time>2026-04-04T13:55:35.999Z</time></trkpt><trkpt lat="43.904751898254325" lon="4.509610782969201"><ele>104.0</ele><time>2026-04-04T13:55:36.999Z</time></trkpt><trkpt lat="43.90468815513388" lon="4.509516142310175"><ele>103.99999999999999</ele><time>2026-04-04T13:55:37.999Z</time></trkpt><trkpt lat="43.904625740776346" lon="4.509409546125235"><ele>104.0</ele><time>2026-04-04T13:55:38.999Z</time></trkpt><trkpt lat="43.90457661824245" lon="4.5092875528308"><ele>103.83333333333333</ele><time>2026-04-04T13:55:39.999Z</time></trkpt><trkpt lat="43.90455614776609" lon="4.5091497962653735"><ele>103.66666666666666</ele><time>2026-04-04T13:55:40.999Z</time></trkpt><trkpt lat="43.90455693406051" lon="4.509010598816566"><ele>103.5</ele><time>2026-04-04T13:55:41.999Z</time></trkpt><trkpt lat="43.90456069694204" lon="4.508891581913582"><ele>103.33333333333334</ele><time>2026-04-04T13:55:42.999Z</time></trkpt><trkpt lat="43.904556986097965" lon="4.508793944754802"><ele>103.16666666666667</ele><time>2026-04-04T13:55:43.999Z</time></trkpt><trkpt lat="43.90453564101333" lon="4.508703794433364"><ele>103.0</ele><time>2026-04-04T13:55:44.999Z</time></trkpt><trkpt lat="43.904501657974905" lon="4.508607903580871"><ele>103.00000000000001</ele><time>2026-04-04T13:55:45.999Z</time></trkpt><trkpt lat="43.904482162341154" lon="4.508514845713591"><ele>103.0</ele><time>2026-04-04T13:55:46.999Z</time></trkpt><trkpt lat="43.904450184200314" lon="4.508403125238988"><ele>103.0</ele><time>2026-04-04T13:55:47.999Z</time></trkpt><trkpt lat="43.90442301289023" lon="4.508276368899906"><ele>103.0</ele><time>2026-04-04T13:55:48.999Z</time></trkpt><trkpt lat="43.9043937362547" lon="4.50814594982899"><ele>103.00000000000001</ele><time>2026-04-04T13:55:49.999Z</time></trkpt><trkpt lat="43.904363300582936" lon="4.5080164206222"><ele>103.0</ele><time>2026-04-04T13:55:50.999Z</time></trkpt><trkpt lat="43.904325623193955" lon="4.507878764819954"><ele>103.4</ele><time>2026-04-04T13:55:51.999Z</time></trkpt><trkpt lat="43.904289539812716" lon="4.507749364920919"><ele>103.80000000000001</ele><time>2026-04-04T13:55:52.999Z</time></trkpt><trkpt lat="43.90426540084312" lon="4.507645424580109"><ele>104.2</ele><time>2026-04-04T13:55:53.999Z</time></trkpt><trkpt lat="43.90424393460797" lon="4.50749047812599"><ele>104.6</ele><time>2026-04-04T13:55:55.999Z</time></trkpt><trkpt lat="43.904204879104086" lon="4.5073869820654835"><ele>105.0</ele><time>2026-04-04T13:55:57.999Z</time></trkpt><trkpt lat="43.90412432009639" lon="4.507302048431048"><ele>105.0</ele><time>2026-04-04T13:55:59.999Z</time></trkpt><trkpt lat="43.90399179173618" lon="4.507327779591214"><ele>105.0</ele><time>2026-04-04T13:56:01.999Z</time></trkpt><trkpt lat="43.90391338398533" lon="4.507315825306935"><ele>105.0</ele><time>2026-04-04T13:56:02.999Z</time></trkpt><trkpt lat="43.90384019838016" lon="4.507268507691944"><ele>105.0</ele><time>2026-04-04T13:56:03.999Z</time></trkpt><trkpt lat="43.90376764819588" lon="4.507213113689359"><ele>105.0</ele><time>2026-04-04T13:56:04.999Z</time></trkpt><trkpt lat="43.90368850166395" lon="4.507170443193711"><ele>105.0</ele><time>2026-04-04T13:56:05.999Z</time></trkpt><trkpt lat="43.90360365167257" lon="4.5071364804029015"><ele>105.0</ele><time>2026-04-04T13:56:06.999Z</time></trkpt><trkpt lat="43.903526475715395" lon="4.507140900736303"><ele>105.0</ele><time>2026-04-04T13:56:07.999Z</time></trkpt><trkpt lat="43.90342282946499" lon="4.507157405091277"><ele>105.0</ele><time>2026-04-04T13:56:09.999Z</time></trkpt><trkpt lat="43.90333379181237" lon="4.507147132486981"><ele>105.0</ele><time>2026-04-04T13:56:11.999Z</time></trkpt><trkpt lat="43.90327024994204" lon="4.5071221910249415"><ele>105.0</ele><time>2026-04-04T13:56:12.999Z</time></trkpt><trkpt lat="43.90318087368018" lon="4.507029456798484"><ele>105.6</ele><time>2026-04-04T13:56:14.999Z</time></trkpt><trkpt lat="43.903130049502714" lon="4.506863805497589"><ele>106.2</ele><time>2026-04-04T13:56:16.999Z</time></trkpt><trkpt lat="43.90310828843275" lon="4.506778602520081"><ele>106.80000000000001</ele><time>2026-04-04T13:56:17.999Z</time></trkpt><trkpt lat="43.90302218803271" lon="4.506677998586585"><ele>107.4</ele><time>2026-04-04T13:56:19.999Z</time></trkpt><trkpt lat="43.90292936267757" lon="4.506584230384049"><ele>108.0</ele><time>2026-04-04T13:56:21.999Z</time></trkpt><trkpt lat="43.90287354050567" lon="4.506535458066425"><ele>108.0</ele><time>2026-04-04T13:56:22.999Z</time></trkpt><trkpt lat="43.902811731232056" lon="4.5064766364654965"><ele>108.0</ele><time>2026-04-04T13:56:23.999Z</time></trkpt><trkpt lat="43.90276631372405" lon="4.506402668528723"><ele>108.0</ele><time>2026-04-04T13:56:24.999Z</time></trkpt><trkpt lat="43.902704882595984" lon="4.506288804984807"><ele>108.0</ele><time>2026-04-04T13:56:27.999Z</time></trkpt><trkpt lat="43.90263698175743" lon="4.506313592605344"><ele>108.0</ele><time>2026-04-04T13:56:29.999Z</time></trkpt><trkpt lat="43.9025735794229" lon="4.506368257242068"><ele>108.0</ele><time>2026-04-04T13:56:32.999Z</time></trkpt><trkpt lat="43.90249784989326" lon="4.50636848574535"><ele>109.0</ele><time>2026-04-04T13:56:34.999Z</time></trkpt><trkpt lat="43.9023827299662" lon="4.506357886478451"><ele>110.00000000000001</ele><time>2026-04-04T13:56:36.999Z</time></trkpt><trkpt lat="43.902260007853926" lon="4.5063254289884656"><ele>111.00000000000001</ele><time>2026-04-04T13:56:38.999Z</time></trkpt><trkpt lat="43.902180089083714" lon="4.506319753012385"><ele>112.0</ele><time>2026-04-04T13:56:39.999Z</time></trkpt><trkpt lat="43.90210791155126" lon="4.506325618390042"><ele>113.0</ele><time>2026-04-04T13:56:40.999Z</time></trkpt><trkpt lat="43.90203053477978" lon="4.506328438810091"><ele>112.99999999999999</ele><time>2026-04-04T13:56:41.999Z</time></trkpt><trkpt lat="43.90195034475377" lon="4.506328739421453"><ele>113.0</ele><time>2026-04-04T13:56:42.999Z</time></trkpt><trkpt lat="43.90188024130164" lon="4.5063284040076494"><ele>113.0</ele><time>2026-04-04T13:56:43.999Z</time></trkpt><trkpt lat="43.901811819255556" lon="4.506327029743257"><ele>113.0</ele><time>2026-04-04T13:56:44.999Z</time></trkpt><trkpt lat="43.901711357637446" lon="4.506313286136426"><ele>112.99999999999999</ele><time>2026-04-04T13:56:46.999Z</time></trkpt><trkpt lat="43.9016132208184" lon="4.506338001503536"><ele>113.0</ele><time>2026-04-04T13:56:48.999Z</time></trkpt><trkpt lat="43.90154847257801" lon="4.5063929811907935"><ele>113.60000000000001</ele><time>2026-04-04T13:56:51.999Z</time></trkpt><trkpt lat="43.90146159372985" lon="4.5064442001820595"><ele>114.20000000000002</ele><time>2026-04-04T13:58:17.999Z</time></trkpt><trkpt lat="43.901336078133816" lon="4.506442905875185"><ele>114.8</ele><time>2026-04-04T13:58:19.999Z</time></trkpt><trkpt lat="43.90126271609061" lon="4.506432079816435"><ele>115.4</ele><time>2026-04-04T13:58:20.999Z</time></trkpt><trkpt lat="43.90119509717659" lon="4.5064214542246654"><ele>116.0</ele><time>2026-04-04T13:58:21.999Z</time></trkpt><trkpt lat="43.9010842241321" lon="4.506418287085722"><ele>115.99999999999999</ele><time>2026-04-04T13:58:23.999Z</time></trkpt><trkpt lat="43.901004045981026" lon="4.506409727776306"><ele>116.0</ele><time>2026-04-04T13:58:25.999Z</time></trkpt><trkpt lat="43.900886947217" lon="4.50639577916185"><ele>116.0</ele><time>2026-04-04T13:58:27.999Z</time></trkpt><trkpt lat="43.900806635148214" lon="4.506359833340668"><ele>116.0</ele><time>2026-04-04T13:58:29.999Z</time></trkpt><trkpt lat="43.90072745655706" lon="4.506331725816368"><ele>115.99999999999999</ele><time>2026-04-04T13:58:31.999Z</time></trkpt><trkpt lat="43.90067903500012" lon="4.506262049666985"><ele>116.0</ele><time>2026-04-04T13:58:34.999Z</time></trkpt><trkpt lat="43.90064943673876" lon="4.50616367031743"><ele>116.0</ele><time>2026-04-04T13:58:36.999Z</time></trkpt><trkpt lat="43.90063512247676" lon="4.506060465178407"><ele>116.0</ele><time>2026-04-04T13:58:38.999Z</time></trkpt><trkpt lat="43.900653840787555" lon="4.505923978525273"><ele>116.0</ele><time>2026-04-04T13:58:40.999Z</time></trkpt><trkpt lat="43.900664223304524" lon="4.505780809456847"><ele>116.0</ele><time>2026-04-04T13:58:42.999Z</time></trkpt><trkpt lat="43.90065416730397" lon="4.50564503608212"><ele>116.0</ele><time>2026-04-04T13:58:44.999Z</time></trkpt><trkpt lat="43.90065926563858" lon="4.505540583420805"><ele>115.99999999999999</ele><time>2026-04-04T13:58:46.999Z</time></trkpt><trkpt lat="43.90067236827574" lon="4.505448043031455"><ele>116.0</ele><time>2026-04-04T13:58:49.999Z</time></trkpt><trkpt lat="43.90065965735571" lon="4.505577194161981"><ele>116.0</ele><time>2026-04-04T13:59:30Z</time></trkpt><trkpt lat="43.900661453317085" lon="4.505738802901112"><ele>116.0</ele><time>2026-04-04T13:59:32Z</time></trkpt><trkpt lat="43.900668036860466" lon="4.505831995452747"><ele>115.99999999999999</ele><time>2026-04-04T13:59:33Z</time></trkpt><trkpt lat="43.90066165470455" lon="4.505920814297913"><ele>116.0</ele><time>2026-04-04T13:59:34Z</time></trkpt><trkpt lat="43.900647684890586" lon="4.506062432786359"><ele>116.00000000000001</ele><time>2026-04-04T13:59:36Z</time></trkpt><trkpt lat="43.900663196194" lon="4.5061587979592685"><ele>116.0</ele><time>2026-04-04T13:59:38Z</time></trkpt><trkpt lat="43.900698759851835" lon="4.506263479620305"><ele>116.00000000000001</ele><time>2026-04-04T13:59:40Z</time></trkpt><trkpt lat="43.900738613638076" lon="4.5063328564812775"><ele>116.00000000000001</ele><time>2026-04-04T13:59:46Z</time></trkpt><trkpt lat="43.9007149537847" lon="4.5064178445263146"><ele>116.0</ele><time>2026-04-04T13:59:51Z</time></trkpt><trkpt lat="43.90069492463002" lon="4.506508014630721"><ele>116.00000000000001</ele><time>2026-04-04T13:59:54Z</time></trkpt><trkpt lat="43.90068218273441" lon="4.506623018842624"><ele>116.00000000000001</ele><time>2026-04-04T13:59:58Z</time></trkpt><trkpt lat="43.900696541825596" lon="4.506728295359551"><ele>116.33333333333333</ele><time>2026-04-04T14:00:01Z</time></trkpt><trkpt lat="43.900709850138185" lon="4.506833565553881"><ele>116.66666666666666</ele><time>2026-04-04T14:00:03Z</time></trkpt><trkpt lat="43.90075529578359" lon="4.506963744417353"><ele>117.0</ele><time>2026-04-04T14:00:05Z</time></trkpt><trkpt lat="43.9007696593709" lon="4.507072545417772"><ele>117.33333333333334</ele><time>2026-04-04T14:00:07Z</time></trkpt><trkpt lat="43.9008152446686" lon="4.507153987082024"><ele>117.66666666666667</ele><time>2026-04-04T14:00:09Z</time></trkpt><trkpt lat="43.90083428662338" lon="4.507244005002304"><ele>118.0</ele><time>2026-04-04T14:00:12Z</time></trkpt><trkpt lat="43.900870358221056" lon="4.507321723233855"><ele>118.83333333333334</ele><time>2026-04-04T14:00:15Z</time></trkpt><trkpt lat="43.900914756136544" lon="4.507417851750898"><ele>119.66666666666667</ele><time>2026-04-04T14:00:20Z</time></trkpt><trkpt lat="43.900917695751296" lon="4.5075052728593406"><ele>120.5</ele><time>2026-04-04T14:00:35Z</time></trkpt><trkpt lat="43.900952571554335" lon="4.507637597772765"><ele>121.33333333333334</ele><time>2026-04-04T14:02:40Z</time></trkpt><trkpt lat="43.90106537470552" lon="4.507669298178713"><ele>122.16666666666667</ele><time>2026-04-04T14:03:43Z</time></trkpt><trkpt lat="43.90099924163317" lon="4.507664698529321"><ele>123.0</ele><time>2026-04-04T14:07:37Z</time></trkpt><trkpt lat="43.90093581787026" lon="4.507659541338926"><ele>123.00000000000001</ele><time>2026-04-04T14:07:56Z</time></trkpt><trkpt lat="43.90091841989753" lon="4.5075697170568425"><ele>123.0</ele><time>2026-04-04T14:08:04Z</time></trkpt><trkpt lat="43.9009201413347" lon="4.507477630863212"><ele>123.00000000000001</ele><time>2026-04-04T14:08:07Z</time></trkpt><trkpt lat="43.900873541577106" lon="4.507397203462156"><ele>123.00000000000001</ele><time>2026-04-04T14:08:09Z</time></trkpt><trkpt lat="43.90084486709079" lon="4.507309819145649"><ele>123.0</ele><time>2026-04-04T14:08:13Z</time></trkpt><trkpt lat="43.90078705580282" lon="4.507238553662199"><ele>123.00000000000001</ele><time>2026-04-04T14:08:19Z</time></trkpt><trkpt lat="43.900765923273106" lon="4.507148305880392"><ele>123.00000000000001</ele><time>2026-04-04T14:08:21Z</time></trkpt><trkpt lat="43.90072395635903" lon="4.5070141328106015"><ele>122.16666666666667</ele><time>2026-04-04T14:08:23Z</time></trkpt><trkpt lat="43.900703262399325" lon="4.50688048126309"><ele>121.33333333333334</ele><time>2026-04-04T14:08:25Z</time></trkpt><trkpt lat="43.90068937810468" lon="4.50679210876552"><ele>120.5</ele><time>2026-04-04T14:08:26Z</time></trkpt><trkpt lat="43.900673902855296" lon="4.506655538868502"><ele>119.66666666666667</ele><time>2026-04-04T14:08:28Z</time></trkpt><trkpt lat="43.900691734621034" lon="4.506547165387158"><ele>118.83333333333334</ele><time>2026-04-04T14:08:30Z</time></trkpt><trkpt lat="43.90073730705862" lon="4.506455360621783"><ele>118.0</ele><time>2026-04-04T14:08:33Z</time></trkpt><trkpt lat="43.90073842028792" lon="4.506344827587444"><ele>117.5</ele><time>2026-04-04T14:08:36Z</time></trkpt><trkpt lat="43.9009683263024" lon="4.506406749794499"><ele>117.0</ele><time>2026-04-04T14:08:42Z</time></trkpt><trkpt lat="43.90103992960875" lon="4.506409730983653"><ele>116.5</ele><time>2026-04-04T14:08:43Z</time></trkpt><trkpt lat="43.90110359128909" lon="4.506419247216309"><ele>116.0</ele><time>2026-04-04T14:08:44Z</time></trkpt><trkpt lat="43.90119127059867" lon="4.50644316328914"><ele>115.99999999999999</ele><time>2026-04-04T14:08:46Z</time></trkpt><trkpt lat="43.90125833740931" lon="4.506434741035158"><ele>116.0</ele><time>2026-04-04T14:08:47Z</time></trkpt><trkpt lat="43.901340591905196" lon="4.506448916477731"><ele>116.0</ele><time>2026-04-04T14:08:48Z</time></trkpt><trkpt lat="43.901412702800094" lon="4.506457361501932"><ele>116.0</ele><time>2026-04-04T14:08:49Z</time></trkpt><trkpt lat="43.901483805954996" lon="4.506461777373486"><ele>115.99999999999999</ele><time>2026-04-04T14:08:50Z</time></trkpt><trkpt lat="43.90157458634622" lon="4.506418934998849"><ele>116.0</ele><time>2026-04-04T14:08:52Z</time></trkpt><trkpt lat="43.90153802752217" lon="4.506322053336737"><ele>115.4</ele><time>2026-04-04T14:08:54Z</time></trkpt><trkpt lat="43.90145747601705" lon="4.506187760253378"><ele>114.8</ele><time>2026-04-04T14:08:56Z</time></trkpt><trkpt lat="43.90140772501475" lon="4.506104761031059"><ele>114.20000000000002</ele><time>2026-04-04T14:08:57Z</time></trkpt><trkpt lat="43.901356832934084" lon="4.505947274137382"><ele>113.60000000000001</ele><time>2026-04-04T14:08:59Z</time></trkpt><trkpt lat="43.901344914820314" lon="4.505850876866466"><ele>113.0</ele><time>2026-04-04T14:09:00Z</time></trkpt><trkpt lat="43.90135436937704" lon="4.505741260313283"><ele>113.0</ele><time>2026-04-04T14:09:01Z</time></trkpt><trkpt lat="43.90138423275397" lon="4.505629865452525"><ele>113.00000000000001</ele><time>2026-04-04T14:09:02Z</time></trkpt><trkpt lat="43.90141153793839" lon="4.505499997708375"><ele>113.00000000000001</ele><time>2026-04-04T14:09:03Z</time></trkpt><trkpt lat="43.90140495237752" lon="4.5053746224243225"><ele>113.0</ele><time>2026-04-04T14:09:04Z</time></trkpt><trkpt lat="43.901363813184325" lon="4.505258147884756"><ele>113.0</ele><time>2026-04-04T14:09:05Z</time></trkpt><trkpt lat="43.90131118538366" lon="4.50514742649419"><ele>113.99999999999999</ele><time>2026-04-04T14:09:06Z</time></trkpt><trkpt lat="43.90126610931829" lon="4.505023898849532"><ele>115.0</ele><time>2026-04-04T14:09:07Z</time></trkpt><trkpt lat="43.901246730838565" lon="4.504906417415419"><ele>116.0</ele><time>2026-04-04T14:09:08Z</time></trkpt><trkpt lat="43.9012488734389" lon="4.5048057906129895"><ele>117.0</ele><time>2026-04-04T14:09:09Z</time></trkpt><trkpt lat="43.901255255124084" lon="4.504686142212341"><ele>117.99999999999999</ele><time>2026-04-04T14:09:11Z</time></trkpt><trkpt lat="43.90122064929288" lon="4.504588021473761"><ele>119.0</ele><time>2026-04-04T14:09:13Z</time></trkpt><trkpt lat="43.90119517674539" lon="4.504499063862323"><ele>120.0</ele><time>2026-04-04T14:09:14Z</time></trkpt><trkpt lat="43.90117227722304" lon="4.504387669531844"><ele>121.0</ele><time>2026-04-04T14:09:15Z</time></trkpt><trkpt lat="43.90115117463864" lon="4.504264332383032"><ele>122.0</ele><time>2026-04-04T14:09:16Z</time></trkpt><trkpt lat="43.90112926807349" lon="4.504138682496918"><ele>123.0</ele><time>2026-04-04T14:09:17Z</time></trkpt><trkpt lat="43.901102655471846" lon="4.504005004236903"><ele>124.0</ele><time>2026-04-04T14:09:18Z</time></trkpt><trkpt lat="43.90108456834954" lon="4.503872505622624"><ele>124.83333333333334</ele><time>2026-04-04T14:09:19Z</time></trkpt><trkpt lat="43.90107039687545" lon="4.503740319596262"><ele>125.66666666666667</ele><time>2026-04-04T14:09:20Z</time></trkpt><trkpt lat="43.901065467699944" lon="4.503625582455704"><ele>126.5</ele><time>2026-04-04T14:09:21Z</time></trkpt><trkpt lat="43.90108171757512" lon="4.5035009287808005"><ele>127.33333333333334</ele><time>2026-04-04T14:09:23Z</time></trkpt><trkpt lat="43.90106668140038" lon="4.503391325896707"><ele>128.16666666666666</ele><time>2026-04-04T14:09:24Z</time></trkpt><trkpt lat="43.90106544189337" lon="4.503289936213861"><ele>129.0</ele><time>2026-04-04T14:09:25Z</time></trkpt><trkpt lat="43.90108712846069" lon="4.503166538253036"><ele>129.0</ele><time>2026-04-04T14:09:27Z</time></trkpt><trkpt lat="43.90107963076617" lon="4.50306090708647"><ele>129.0</ele><time>2026-04-04T14:09:29Z</time></trkpt><trkpt lat="43.90110441187929" lon="4.502957023690796"><ele>129.0</ele><time>2026-04-04T14:09:31Z</time></trkpt><trkpt lat="43.901119233999324" lon="4.502851206274609"><ele>129.0</ele><time>2026-04-04T14:09:33Z</time></trkpt><trkpt lat="43.90111763721722" lon="4.502754051737338"><ele>129.0</ele><time>2026-04-04T14:09:52Z</time></trkpt><trkpt lat="43.901188802503235" lon="4.502700283304921"><ele>129.0</ele><time>2026-04-04T14:09:55Z</time></trkpt><trkpt lat="43.90124956350928" lon="4.502663408599503"><ele>128.83333333333334</ele><time>2026-04-04T14:09:58Z</time></trkpt><trkpt lat="43.90131175630493" lon="4.502621350564584"><ele>128.66666666666666</ele><time>2026-04-04T14:10:00Z</time></trkpt><trkpt lat="43.90136914168945" lon="4.502541269748331"><ele>128.5</ele><time>2026-04-04T14:10:03Z</time></trkpt><trkpt lat="43.90140547665115" lon="4.502440911744275"><ele>128.33333333333331</ele><time>2026-04-04T14:10:05Z</time></trkpt><trkpt lat="43.90144511194652" lon="4.502346205077393"><ele>128.16666666666666</ele><time>2026-04-04T14:10:07Z</time></trkpt><trkpt lat="43.901517925186425" lon="4.502303307526926"><ele>128.0</ele><time>2026-04-04T14:10:09Z</time></trkpt><trkpt lat="43.90158775211976" lon="4.502206491440499"><ele>127.99999999999999</ele><time>2026-04-04T14:10:12Z</time></trkpt><trkpt lat="43.901625500229976" lon="4.502088084535885"><ele>128.0</ele><time>2026-04-04T14:10:14Z</time></trkpt><trkpt lat="43.90162963363815" lon="4.501929593131771"><ele>128.0</ele><time>2026-04-04T14:10:16Z</time></trkpt><trkpt lat="43.90160464999743" lon="4.501813351185532"><ele>128.0</ele><time>2026-04-04T14:10:18Z</time></trkpt><trkpt lat="43.901606034015515" lon="4.501706835914581"><ele>127.99999999999999</ele><time>2026-04-04T14:10:21Z</time></trkpt><trkpt lat="43.901639529493806" lon="4.501627574140283"><ele>128.0</ele><time>2026-04-04T14:10:23Z</time></trkpt><trkpt lat="43.9016427362392" lon="4.501492190801295"><ele>127.49999999999999</ele><time>2026-04-04T14:10:27Z</time></trkpt><trkpt lat="43.90162598731514" lon="4.501405469873904"><ele>127.0</ele><time>2026-04-04T14:10:28Z</time></trkpt><trkpt lat="43.90162670021587" lon="4.501308999883887"><ele>126.5</ele><time>2026-04-04T14:10:29Z</time></trkpt><trkpt lat="43.901664495839924" lon="4.501207312770294"><ele>126.0</ele><time>2026-04-04T14:10:31Z</time></trkpt><trkpt lat="43.90162935475649" lon="4.501132355899283"><ele>125.49999999999999</ele><time>2026-04-04T14:11:39Z</time></trkpt><trkpt lat="43.90153369462864" lon="4.5010502295501515"><ele>125.0</ele><time>2026-04-04T14:11:41Z</time></trkpt><trkpt lat="43.901464562653146" lon="4.500961338366224"><ele>125.0</ele><time>2026-04-04T14:11:43Z</time></trkpt><trkpt lat="43.90139486749266" lon="4.500872405940035"><ele>125.0</ele><time>2026-04-04T14:11:45Z</time></trkpt><trkpt lat="43.90130098584" lon="4.500753123234804"><ele>125.0</ele><time>2026-04-04T14:11:46.999Z</time></trkpt><trkpt lat="43.90124795338535" lon="4.500684683742531"><ele>125.0</ele><time>2026-04-04T14:11:47.999Z</time></trkpt><trkpt lat="43.90120118522957" lon="4.500624971728732"><ele>125.0</ele><time>2026-04-04T14:11:48.999Z</time></trkpt><trkpt lat="43.901126740466495" lon="4.500518330400562"><ele>125.16666666666666</ele><time>2026-04-04T14:11:50.999Z</time></trkpt><trkpt lat="43.90106206577611" lon="4.500385255469435"><ele>125.33333333333333</ele><time>2026-04-04T14:11:52.999Z</time></trkpt><trkpt lat="43.90101700566687" lon="4.5003085460403645"><ele>125.5</ele><time>2026-04-04T14:11:53.999Z</time></trkpt><trkpt lat="43.90096773942498" lon="4.500225870095042"><ele>125.66666666666666</ele><time>2026-04-04T14:11:54.999Z</time></trkpt><trkpt lat="43.900946974770086" lon="4.500097306207971"><ele>125.83333333333333</ele><time>2026-04-04T14:11:55.999Z</time></trkpt><trkpt lat="43.90089463450418" lon="4.50001750497948"><ele>126.0</ele><time>2026-04-04T14:11:56.999Z</time></trkpt><trkpt lat="43.90084741042943" lon="4.4999498223816525"><ele>126.0</ele><time>2026-04-04T14:11:57.999Z</time></trkpt><trkpt lat="43.90076236799893" lon="4.499824269665296"><ele>126.0</ele><time>2026-04-04T14:12:00Z</time></trkpt><trkpt lat="43.90068873537837" lon="4.49970006963596"><ele>126.0</ele><time>2026-04-04T14:12:02Z</time></trkpt><trkpt lat="43.900670731681124" lon="4.499589416437322"><ele>126.0</ele><time>2026-04-04T14:12:04Z</time></trkpt><trkpt lat="43.900653413857675" lon="4.4994754748654024"><ele>126.0</ele><time>2026-04-04T14:12:06Z</time></trkpt><trkpt lat="43.900633427262655" lon="4.499329365984783"><ele>126.6</ele><time>2026-04-04T14:12:08Z</time></trkpt><trkpt lat="43.90060209964427" lon="4.4991605209722625"><ele>127.19999999999999</ele><time>2026-04-04T14:12:10Z</time></trkpt><trkpt lat="43.90054219602341" lon="4.499012035026908"><ele>127.80000000000001</ele><time>2026-04-04T14:12:12Z</time></trkpt><trkpt lat="43.90047009915995" lon="4.498946602526954"><ele>128.4</ele><time>2026-04-04T14:12:14Z</time></trkpt><trkpt lat="43.90039994075612" lon="4.498929557354461"><ele>129.0</ele><time>2026-04-04T14:12:16Z</time></trkpt><trkpt lat="43.90035976426998" lon="4.4987580223431385"><ele>129.0</ele><time>2026-04-04T14:12:57Z</time></trkpt><trkpt lat="43.900352171117824" lon="4.498666999908379"><ele>129.0</ele><time>2026-04-04T14:12:58Z</time></trkpt><trkpt lat="43.900349796642104" lon="4.498545479750876"><ele>129.0</ele><time>2026-04-04T14:12:59Z</time></trkpt><trkpt lat="43.900386788043804" lon="4.498416563983996"><ele>129.0</ele><time>2026-04-04T14:13:00Z</time></trkpt><trkpt lat="43.90041528481223" lon="4.498276716506766"><ele>129.0</ele><time>2026-04-04T14:13:01Z</time></trkpt><trkpt lat="43.90044627104739" lon="4.498152077072221"><ele>129.0</ele><time>2026-04-04T14:13:02Z</time></trkpt><trkpt lat="43.90046337897963" lon="4.498035381231058"><ele>129.0</ele><time>2026-04-04T14:13:03Z</time></trkpt><trkpt lat="43.90045855997093" lon="4.49793943280572"><ele>129.0</ele><time>2026-04-04T14:13:04Z</time></trkpt><trkpt lat="43.90047563356595" lon="4.497841236805847"><ele>129.0</ele><time>2026-04-04T14:13:05Z</time></trkpt><trkpt lat="43.900469000918655" lon="4.497739851436855"><ele>129.0</ele><time>2026-04-04T14:13:06Z</time></trkpt><trkpt lat="43.900464528258986" lon="4.4976341565161855"><ele>129.0</ele><time>2026-04-04T14:13:07Z</time></trkpt><trkpt lat="43.900449949095524" lon="4.497505132009241"><ele>129.2</ele><time>2026-04-04T14:13:08Z</time></trkpt><trkpt lat="43.900468215351374" lon="4.497360944719638"><ele>129.4</ele><time>2026-04-04T14:13:09Z</time></trkpt><trkpt lat="43.90047697088424" lon="4.497210119341917"><ele>129.6</ele><time>2026-04-04T14:13:10Z</time></trkpt><trkpt lat="43.90049086565009" lon="4.497063027026958"><ele>129.8</ele><time>2026-04-04T14:13:11Z</time></trkpt><trkpt lat="43.90051226246921" lon="4.496908892692776"><ele>130.0</ele><time>2026-04-04T14:13:12Z</time></trkpt><trkpt lat="43.900545990246314" lon="4.4967792576097905"><ele>130.4</ele><time>2026-04-04T14:13:13Z</time></trkpt><trkpt lat="43.900585650023395" lon="4.496643380350521"><ele>130.8</ele><time>2026-04-04T14:13:14Z</time></trkpt><trkpt lat="43.900632287058336" lon="4.49650468659615"><ele>131.2</ele><time>2026-04-04T14:13:15Z</time></trkpt><trkpt lat="43.90068692789638" lon="4.496393159751151"><ele>131.6</ele><time>2026-04-04T14:13:16Z</time></trkpt><trkpt lat="43.90073188553405" lon="4.496279216002079"><ele>132.0</ele><time>2026-04-04T14:13:17Z</time></trkpt><trkpt lat="43.9007517733444" lon="4.496149024302743"><ele>132.4</ele><time>2026-04-04T14:13:18Z</time></trkpt><trkpt lat="43.90073050390926" lon="4.496033969960157"><ele>132.79999999999998</ele><time>2026-04-04T14:13:19Z</time></trkpt><trkpt lat="43.90072114445158" lon="4.49591128166056"><ele>133.2</ele><time>2026-04-04T14:13:21Z</time></trkpt><trkpt lat="43.90062993796971" lon="4.495804479228574"><ele>133.6</ele><time>2026-04-04T14:14:08Z</time></trkpt><trkpt lat="43.90059013365058" lon="4.495709612411186"><ele>134.0</ele><time>2026-04-04T14:14:10Z</time></trkpt><trkpt lat="43.90055677837475" lon="4.495604292397063"><ele>134.0</ele><time>2026-04-04T14:14:12Z</time></trkpt><trkpt lat="43.90050972376963" lon="4.495481548700431"><ele>134.0</ele><time>2026-04-04T14:14:14Z</time></trkpt><trkpt lat="43.90049152767064" lon="4.495335129929121"><ele>134.0</ele><time>2026-04-04T14:14:16Z</time></trkpt><trkpt lat="43.90045686328201" lon="4.495197417458605"><ele>134.0</ele><time>2026-04-04T14:14:18Z</time></trkpt><trkpt lat="43.90048197889123" lon="4.495078436692678"><ele>134.0</ele><time>2026-04-04T14:14:20Z</time></trkpt><trkpt lat="43.900494190119176" lon="4.494981076871318"><ele>133.5</ele><time>2026-04-04T14:14:24Z</time></trkpt><trkpt lat="43.900474802076005" lon="4.495106417907091"><ele>133.0</ele><time>2026-04-04T14:14:36Z</time></trkpt><trkpt lat="43.90011012717699" lon="4.494551480985685"><ele>132.83333333333334</ele><time>2026-04-04T14:15:02Z</time></trkpt><trkpt lat="43.90007298133926" lon="4.494453216196108"><ele>132.66666666666669</ele><time>2026-04-04T14:15:05Z</time></trkpt><trkpt lat="43.90003075345376" lon="4.494378236026571"><ele>132.5</ele><time>2026-04-04T14:15:07Z</time></trkpt><trkpt lat="43.89998348510054" lon="4.494291390654854"><ele>132.33333333333334</ele><time>2026-04-04T14:15:09Z</time></trkpt><trkpt lat="43.89994005412741" lon="4.4941995615974175"><ele>132.16666666666666</ele><time>2026-04-04T14:15:11Z</time></trkpt><trkpt lat="43.89991756521821" lon="4.494046004611774"><ele>132.0</ele><time>2026-04-04T14:15:13Z</time></trkpt><trkpt lat="43.89990569623498" lon="4.493944765992133"><ele>132.0</ele><time>2026-04-04T14:15:14Z</time></trkpt><trkpt lat="43.89989940731964" lon="4.493843264960687"><ele>132.0</ele><time>2026-04-04T14:15:15Z</time></trkpt><trkpt lat="43.899902862090386" lon="4.4937501747454105"><ele>132.0</ele><time>2026-04-04T14:15:16Z</time></trkpt><trkpt lat="43.8999075397484" lon="4.493651123768352"><ele>132.0</ele><time>2026-04-04T14:15:17Z</time></trkpt><trkpt lat="43.89991096201493" lon="4.493548605090092"><ele>132.0</ele><time>2026-04-04T14:15:18Z</time></trkpt><trkpt lat="43.89991553152873" lon="4.493451633383363"><ele>132.0</ele><time>2026-04-04T14:15:19Z</time></trkpt><trkpt lat="43.8999176890014" lon="4.493350867257149"><ele>132.0</ele><time>2026-04-04T14:15:20Z</time></trkpt><trkpt lat="43.89991031093044" lon="4.493263798262689"><ele>132.0</ele><time>2026-04-04T14:15:21Z</time></trkpt><trkpt lat="43.899890809852394" lon="4.493171428813577"><ele>132.0</ele><time>2026-04-04T14:15:22Z</time></trkpt><trkpt lat="43.89985875201615" lon="4.493049821325387"><ele>132.0</ele><time>2026-04-04T14:15:24Z</time></trkpt><trkpt lat="43.89985075967987" lon="4.4929516082386955"><ele>132.0</ele><time>2026-04-04T14:15:28Z</time></trkpt><trkpt lat="43.899789509347904" lon="4.492904001083773"><ele>132.0</ele><time>2026-04-04T14:15:31Z</time></trkpt><trkpt lat="43.8996866300714" lon="4.492844621782627"><ele>132.0</ele><time>2026-04-04T14:15:33Z</time></trkpt><trkpt lat="43.89961916086357" lon="4.492813699315921"><ele>132.0</ele><time>2026-04-04T14:15:34Z</time></trkpt><trkpt lat="43.89955431229782" lon="4.492785864052269"><ele>132.0</ele><time>2026-04-04T14:15:35Z</time></trkpt><trkpt lat="43.89949228584384" lon="4.492759615841656"><ele>132.0</ele><time>2026-04-04T14:15:36Z</time></trkpt><trkpt lat="43.89937466003562" lon="4.492698904583211"><ele>132.0</ele><time>2026-04-04T14:15:38Z</time></trkpt><trkpt lat="43.8992592695878" lon="4.492618124479843"><ele>132.0</ele><time>2026-04-04T14:15:40Z</time></trkpt><trkpt lat="43.89919487558109" lon="4.492559681389531"><ele>131.5</ele><time>2026-04-04T14:15:41Z</time></trkpt><trkpt lat="43.89913235086662" lon="4.492504088602293"><ele>131.0</ele><time>2026-04-04T14:15:42Z</time></trkpt><trkpt lat="43.89906792937959" lon="4.492447596923169"><ele>130.5</ele><time>2026-04-04T14:15:43Z</time></trkpt><trkpt lat="43.89899824356749" lon="4.492398580428658"><ele>130.0</ele><time>2026-04-04T14:15:44Z</time></trkpt><trkpt lat="43.89892983150664" lon="4.492358466536678"><ele>129.5</ele><time>2026-04-04T14:15:45Z</time></trkpt><trkpt lat="43.89885655435901" lon="4.492316881274168"><ele>129.0</ele><time>2026-04-04T14:15:46Z</time></trkpt><trkpt lat="43.89878477423628" lon="4.492277204380004"><ele>129.0</ele><time>2026-04-04T14:15:47Z</time></trkpt><trkpt lat="43.89871462485491" lon="4.492249274413099"><ele>129.0</ele><time>2026-04-04T14:15:48Z</time></trkpt><trkpt lat="43.89864866119049" lon="4.492210521224813"><ele>129.0</ele><time>2026-04-04T14:15:49Z</time></trkpt><trkpt lat="43.89854657122729" lon="4.49218205111167"><ele>129.0</ele><time>2026-04-04T14:15:51Z</time></trkpt><trkpt lat="43.89845460111192" lon="4.492172318537629"><ele>129.0</ele><time>2026-04-04T14:15:53Z</time></trkpt><trkpt lat="43.89839352844856" lon="4.492150435662111"><ele>129.0</ele><time>2026-04-04T14:15:55Z</time></trkpt><trkpt lat="43.8982987930035" lon="4.492171300265099"><ele>128.33333333333334</ele><time>2026-04-04T14:15:58Z</time></trkpt><trkpt lat="43.89823401842762" lon="4.492171871824227"><ele>127.66666666666666</ele><time>2026-04-04T14:16:00Z</time></trkpt><trkpt lat="43.89816650901341" lon="4.492164651800798"><ele>127.0</ele><time>2026-04-04T14:16:02Z</time></trkpt><trkpt lat="43.89805696701228" lon="4.49215660933793"><ele>126.33333333333333</ele><time>2026-04-04T14:16:04Z</time></trkpt><trkpt lat="43.89799461694014" lon="4.4921423622288685"><ele>125.66666666666666</ele><time>2026-04-04T14:16:05Z</time></trkpt><trkpt lat="43.897874256745226" lon="4.492117522079778"><ele>125.0</ele><time>2026-04-04T14:16:07Z</time></trkpt><trkpt lat="43.89777059639185" lon="4.492114219275503"><ele>125.0</ele><time>2026-04-04T14:16:09Z</time></trkpt><trkpt lat="43.89766073891311" lon="4.492108075616542"><ele>125.0</ele><time>2026-04-04T14:16:11Z</time></trkpt><trkpt lat="43.89756028865222" lon="4.492138668635451"><ele>125.0</ele><time>2026-04-04T14:16:13Z</time></trkpt><trkpt lat="43.89747191196536" lon="4.4921844795430905"><ele>125.0</ele><time>2026-04-04T14:16:15Z</time></trkpt><trkpt lat="43.897403893414435" lon="4.492122195185764"><ele>125.0</ele><time>2026-04-04T14:16:17Z</time></trkpt><trkpt lat="43.89734079597763" lon="4.4920358180227264"><ele>123.8</ele><time>2026-04-04T14:16:19Z</time></trkpt><trkpt lat="43.89727823140859" lon="4.491922669945572"><ele>122.6</ele><time>2026-04-04T14:16:21Z</time></trkpt><trkpt lat="43.89719439505774" lon="4.491907297178805"><ele>121.4</ele><time>2026-04-04T14:16:23Z</time></trkpt><trkpt lat="43.897112887997515" lon="4.491871820864489"><ele>120.2</ele><time>2026-04-04T14:16:25Z</time></trkpt><trkpt lat="43.89704392940966" lon="4.491741757526345"><ele>119.0</ele><time>2026-04-04T14:16:27Z</time></trkpt><trkpt lat="43.896987956759105" lon="4.491656640121723"><ele>119.0</ele><time>2026-04-04T14:16:28Z</time></trkpt><trkpt lat="43.896899692572816" lon="4.491555165878437"><ele>119.0</ele><time>2026-04-04T14:16:30Z</time></trkpt><trkpt lat="43.896828733881534" lon="4.491480633132844"><ele>119.0</ele><time>2026-04-04T14:16:32Z</time></trkpt><trkpt lat="43.89678227475165" lon="4.491403733379209"><ele>119.0</ele><time>2026-04-04T14:16:34Z</time></trkpt><trkpt lat="43.896738372404705" lon="4.491280033461865"><ele>119.0</ele><time>2026-04-04T14:16:36Z</time></trkpt><trkpt lat="43.89668953482448" lon="4.491174917616494"><ele>117.66666666666666</ele><time>2026-04-04T14:16:38Z</time></trkpt><trkpt lat="43.89665257274187" lon="4.49110049088687"><ele>116.33333333333333</ele><time>2026-04-04T14:16:40Z</time></trkpt><trkpt lat="43.89658590188194" lon="4.491031967661081"><ele>115.0</ele><time>2026-04-04T14:16:42Z</time></trkpt><trkpt lat="43.89652691431826" lon="4.490934520560669"><ele>113.66666666666666</ele><time>2026-04-04T14:16:44Z</time></trkpt><trkpt lat="43.896489729369094" lon="4.490847883013855"><ele>112.33333333333333</ele><time>2026-04-04T14:16:46Z</time></trkpt><trkpt lat="43.89643846514726" lon="4.490741769040226"><ele>111.0</ele><time>2026-04-04T14:16:49Z</time></trkpt><trkpt lat="43.89640430912559" lon="4.490664061598136"><ele>111.0</ele><time>2026-04-04T14:16:57Z</time></trkpt><trkpt lat="43.89642438132775" lon="4.490579314351316"><ele>111.0</ele><time>2026-04-04T14:16:59Z</time></trkpt><trkpt lat="43.89640309568516" lon="4.490469057751404"><ele>111.0</ele><time>2026-04-04T14:17:01Z</time></trkpt><trkpt lat="43.896321714015556" lon="4.490356429827436"><ele>111.0</ele><time>2026-04-04T14:17:03Z</time></trkpt><trkpt lat="43.89627481741231" lon="4.490286833611581"><ele>111.0</ele><time>2026-04-04T14:17:04Z</time></trkpt><trkpt lat="43.89622583190681" lon="4.490228915144545"><ele>111.0</ele><time>2026-04-04T14:17:05Z</time></trkpt><trkpt lat="43.89617365772735" lon="4.490176860241524"><ele>110.0</ele><time>2026-04-04T14:17:06Z</time></trkpt><trkpt lat="43.89606360459378" lon="4.490085012347965"><ele>109.0</ele><time>2026-04-04T14:17:08Z</time></trkpt><trkpt lat="43.895953629248474" lon="4.490004858753954"><ele>108.0</ele><time>2026-04-04T14:17:10Z</time></trkpt><trkpt lat="43.89587117377972" lon="4.48988999107343"><ele>107.0</ele><time>2026-04-04T14:17:12Z</time></trkpt><trkpt lat="43.89582966175869" lon="4.489824303188363"><ele>106.0</ele><time>2026-04-04T14:17:13Z</time></trkpt><trkpt lat="43.89575030708904" lon="4.489706978543866"><ele>105.83333333333334</ele><time>2026-04-04T14:17:15Z</time></trkpt><trkpt lat="43.89566678815353" lon="4.489579897646126"><ele>105.66666666666667</ele><time>2026-04-04T14:17:17Z</time></trkpt><trkpt lat="43.895627105729325" lon="4.489497045681948"><ele>105.5</ele><time>2026-04-04T14:17:18Z</time></trkpt><trkpt lat="43.895580638751056" lon="4.489427431057403"><ele>105.33333333333334</ele><time>2026-04-04T14:17:19Z</time></trkpt><trkpt lat="43.895526865274235" lon="4.489380019973377"><ele>105.16666666666667</ele><time>2026-04-04T14:17:20Z</time></trkpt><trkpt lat="43.895427014423326" lon="4.48929256194743"><ele>105.0</ele><time>2026-04-04T14:17:22Z</time></trkpt><trkpt lat="43.89534444363572" lon="4.489187281863558"><ele>105.0</ele><time>2026-04-04T14:17:24Z</time></trkpt><trkpt lat="43.89525472277794" lon="4.4891021693110345"><ele>105.0</ele><time>2026-04-04T14:17:26Z</time></trkpt><trkpt lat="43.89518422256058" lon="4.489056595815835"><ele>105.0</ele><time>2026-04-04T14:17:28Z</time></trkpt><trkpt lat="43.895115738958424" lon="4.489008317084148"><ele>105.0</ele><time>2026-04-04T14:17:30Z</time></trkpt><trkpt lat="43.895061619282686" lon="4.488948565863854"><ele>105.0</ele><time>2026-04-04T14:17:32Z</time></trkpt><trkpt lat="43.89502694399439" lon="4.488815042805325"><ele>105.0</ele><time>2026-04-04T14:18:11.001Z</time></trkpt><trkpt lat="43.89504796615928" lon="4.488684200996206"><ele>105.2</ele><time>2026-04-04T14:18:13.001Z</time></trkpt><trkpt lat="43.895052237462586" lon="4.488530087139394"><ele>105.4</ele><time>2026-04-04T14:18:15.001Z</time></trkpt><trkpt lat="43.89501944409349" lon="4.488396021151115"><ele>105.6</ele><time>2026-04-04T14:18:17.001Z</time></trkpt><trkpt lat="43.89504007509338" lon="4.488274045729064"><ele>105.8</ele><time>2026-04-04T14:18:19Z</time></trkpt><trkpt lat="43.895093026791066" lon="4.4881201980603365"><ele>106.0</ele><time>2026-04-04T14:18:21Z</time></trkpt><trkpt lat="43.89511744040907" lon="4.4880077427669836"><ele>106.42857142857143</ele><time>2026-04-04T14:18:32Z</time></trkpt><trkpt lat="43.89513804988593" lon="4.487917979697541"><ele>106.85714285714285</ele><time>2026-04-04T14:18:50Z</time></trkpt><trkpt lat="43.89520358579465" lon="4.48788698878655"><ele>107.28571428571428</ele><time>2026-04-04T14:18:53Z</time></trkpt><trkpt lat="43.895262291106825" lon="4.487832170070972"><ele>107.71428571428572</ele><time>2026-04-04T14:18:56Z</time></trkpt><trkpt lat="43.8952095184911" lon="4.487754559322723"><ele>108.14285714285714</ele><time>2026-04-04T14:19:00Z</time></trkpt><trkpt lat="43.89518440148577" lon="4.487657822667464"><ele>108.57142857142857</ele><time>2026-04-04T14:19:13Z</time></trkpt><trkpt lat="43.89517149801294" lon="4.487551361033548"><ele>109.0</ele><time>2026-04-04T14:19:15Z</time></trkpt><trkpt lat="43.89519255244183" lon="4.487672961604045"><ele>109.00000000000001</ele><time>2026-04-04T14:19:25Z</time></trkpt><trkpt lat="43.895201348566154" lon="4.487761483489256"><ele>109.0</ele><time>2026-04-04T14:19:27Z</time></trkpt><trkpt lat="43.89527220575167" lon="4.487824863315546"><ele>109.0</ele><time>2026-04-04T14:19:30Z</time></trkpt><trkpt lat="43.89524304763451" lon="4.487923958879557"><ele>109.0</ele><time>2026-04-04T14:19:34Z</time></trkpt><trkpt lat="43.89516496879694" lon="4.487938995309881"><ele>109.00000000000001</ele><time>2026-04-04T14:19:37Z</time></trkpt><trkpt lat="43.89508799468999" lon="4.487934250615645"><ele>109.0</ele><time>2026-04-04T14:19:39Z</time></trkpt><trkpt lat="43.895207617129465" lon="4.487899020107709"><ele>109.00000000000001</ele><time>2026-04-04T14:20:58Z</time></trkpt><trkpt lat="43.8952636636531" lon="4.487836921625312"><ele>109.0</ele><time>2026-04-04T14:21:00Z</time></trkpt><trkpt lat="43.895337728779104" lon="4.487860065652906"><ele>109.0</ele><time>2026-04-04T14:21:02Z</time></trkpt><trkpt lat="43.89538182365559" lon="4.487784346216723"><ele>109.0</ele><time>2026-04-04T14:21:05Z</time></trkpt><trkpt lat="43.89540094027959" lon="4.487659906123513"><ele>109.00000000000001</ele><time>2026-04-04T14:21:08Z</time></trkpt><trkpt lat="43.895403883312724" lon="4.487546284532537"><ele>109.0</ele><time>2026-04-04T14:21:10Z</time></trkpt><trkpt lat="43.895383994576704" lon="4.4874139085682945"><ele>109.00000000000001</ele><time>2026-04-04T14:21:12Z</time></trkpt><trkpt lat="43.89534124841801" lon="4.487346238951272"><ele>109.0</ele><time>2026-04-04T14:21:13Z</time></trkpt><trkpt lat="43.89528001328999" lon="4.487192643597294"><ele>109.0</ele><time>2026-04-04T14:21:15Z</time></trkpt><trkpt lat="43.89524338074685" lon="4.487028728107212"><ele>109.0</ele><time>2026-04-04T14:21:17Z</time></trkpt><trkpt lat="43.89523207947785" lon="4.4869364092588"><ele>109.00000000000001</ele><time>2026-04-04T14:21:18Z</time></trkpt><trkpt lat="43.895226433670345" lon="4.486846743282963"><ele>109.0</ele><time>2026-04-04T14:21:19Z</time></trkpt><trkpt lat="43.89519982797073" lon="4.486708213841037"><ele>109.50000000000001</ele><time>2026-04-04T14:21:21Z</time></trkpt><trkpt lat="43.895177413343085" lon="4.486592677951704"><ele>110.0</ele><time>2026-04-04T14:21:23Z</time></trkpt><trkpt lat="43.895167267703215" lon="4.48647518794325"><ele>110.5</ele><time>2026-04-04T14:21:25Z</time></trkpt><trkpt lat="43.89519715606748" lon="4.4863300238013135"><ele>111.0</ele><time>2026-04-04T14:21:27Z</time></trkpt><trkpt lat="43.895236029226915" lon="4.486235546289862"><ele>111.50000000000001</ele><time>2026-04-04T14:21:29Z</time></trkpt><trkpt lat="43.89525412196938" lon="4.486147387555709"><ele>112.0</ele><time>2026-04-04T14:21:58Z</time></trkpt><trkpt lat="43.89520708587216" lon="4.48608466109404"><ele>110.83333333333334</ele><time>2026-04-04T14:22:00Z</time></trkpt><trkpt lat="43.89511245532485" lon="4.4860568266617165"><ele>109.66666666666667</ele><time>2026-04-04T14:22:02Z</time></trkpt><trkpt lat="43.89501338088509" lon="4.486039640997847"><ele>108.5</ele><time>2026-04-04T14:22:04Z</time></trkpt><trkpt lat="43.89493143238215" lon="4.486053325920439"><ele>107.33333333333334</ele><time>2026-04-04T14:22:05Z</time></trkpt><trkpt lat="43.89484556892045" lon="4.486049793398099"><ele>106.16666666666667</ele><time>2026-04-04T14:22:06Z</time></trkpt><trkpt lat="43.894768578798164" lon="4.486026524132645"><ele>105.0</ele><time>2026-04-04T14:22:07Z</time></trkpt><trkpt lat="43.894698009771844" lon="4.486065767303537"><ele>104.5</ele><time>2026-04-04T14:22:08Z</time></trkpt><trkpt lat="43.89463339984486" lon="4.486093097086048"><ele>104.0</ele><time>2026-04-04T14:22:09Z</time></trkpt><trkpt lat="43.894571100839144" lon="4.486127662129711"><ele>103.5</ele><time>2026-04-04T14:22:10Z</time></trkpt><trkpt lat="43.8945096718481" lon="4.486075890763866"><ele>103.0</ele><time>2026-04-04T14:22:12Z</time></trkpt><trkpt lat="43.89447927161628" lon="4.485967389958178"><ele>102.5</ele><time>2026-04-04T14:22:14Z</time></trkpt><trkpt lat="43.894510088618524" lon="4.485828739717566"><ele>102.0</ele><time>2026-04-04T14:22:15.999Z</time></trkpt><trkpt lat="43.894548968855176" lon="4.485690420177123"><ele>102.0</ele><time>2026-04-04T14:22:17.999Z</time></trkpt><trkpt lat="43.894621213893544" lon="4.4855497478583235"><ele>102.0</ele><time>2026-04-04T14:22:19.999Z</time></trkpt><trkpt lat="43.894668149034565" lon="4.485486260928623"><ele>102.0</ele><time>2026-04-04T14:22:20.999Z</time></trkpt><trkpt lat="43.894722947664" lon="4.485431759736055"><ele>102.0</ele><time>2026-04-04T14:22:21.999Z</time></trkpt><trkpt lat="43.894823579825" lon="4.485328651690014"><ele>102.0</ele><time>2026-04-04T14:22:23.999Z</time></trkpt><trkpt lat="43.894888958804316" lon="4.485290694491129"><ele>101.5</ele><time>2026-04-04T14:22:24.999Z</time></trkpt><trkpt lat="43.894952190673564" lon="4.485266145759342"><ele>101.0</ele><time>2026-04-04T14:22:25.999Z</time></trkpt><trkpt lat="43.89501820917354" lon="4.485249544136859"><ele>100.5</ele><time>2026-04-04T14:22:27Z</time></trkpt><trkpt lat="43.89508550455823" lon="4.485247563428716"><ele>100.0</ele><time>2026-04-04T14:22:28Z</time></trkpt><trkpt lat="43.895155018523496" lon="4.485199937086735"><ele>99.5</ele><time>2026-04-04T14:22:30Z</time></trkpt><trkpt lat="43.89514609522843" lon="4.485038332859312"><ele>99.0</ele><time>2026-04-04T14:22:32Z</time></trkpt><trkpt lat="43.89513876665684" lon="4.484916999801572"><ele>99.0</ele><time>2026-04-04T14:22:33Z</time></trkpt><trkpt lat="43.89513693863486" lon="4.48478130294363"><ele>99.0</ele><time>2026-04-04T14:22:34Z</time></trkpt><trkpt lat="43.895131690617156" lon="4.484630923703714"><ele>99.0</ele><time>2026-04-04T14:22:35Z</time></trkpt><trkpt lat="43.89512975500538" lon="4.48448399445926"><ele>99.0</ele><time>2026-04-04T14:22:36Z</time></trkpt><trkpt lat="43.895128461108534" lon="4.4843508983020435"><ele>99.0</ele><time>2026-04-04T14:22:37Z</time></trkpt><trkpt lat="43.89513025825691" lon="4.484220784747952"><ele>98.83333333333333</ele><time>2026-04-04T14:22:38Z</time></trkpt><trkpt lat="43.8951307252461" lon="4.484097390861428"><ele>98.66666666666666</ele><time>2026-04-04T14:22:39Z</time></trkpt><trkpt lat="43.89513152376446" lon="4.483973905158176"><ele>98.5</ele><time>2026-04-04T14:22:40Z</time></trkpt><trkpt lat="43.89513653412049" lon="4.483860580586379"><ele>98.33333333333333</ele><time>2026-04-04T14:22:41Z</time></trkpt><trkpt lat="43.89515181705239" lon="4.483756650163226"><ele>98.16666666666666</ele><time>2026-04-04T14:22:42Z</time></trkpt><trkpt lat="43.89517122650098" lon="4.483640428129293"><ele>98.0</ele><time>2026-04-04T14:22:43Z</time></trkpt><trkpt lat="43.89518838256999" lon="4.483537840961291"><ele>98.16666666666666</ele><time>2026-04-04T14:22:44Z</time></trkpt><trkpt lat="43.89521993661642" lon="4.483409861807812"><ele>98.33333333333333</ele><time>2026-04-04T14:22:46Z</time></trkpt><trkpt lat="43.89524641164897" lon="4.483305366557881"><ele>98.5</ele><time>2026-04-04T14:22:50Z</time></trkpt><trkpt lat="43.895267476742006" lon="4.483202300262411"><ele>98.66666666666666</ele><time>2026-04-04T14:22:52Z</time></trkpt><trkpt lat="43.89528422715606" lon="4.4831007981899145"><ele>98.83333333333333</ele><time>2026-04-04T14:22:55Z</time></trkpt><trkpt lat="43.89531434781661" lon="4.4829928682285605"><ele>99.0</ele><time>2026-04-04T14:23:53Z</time></trkpt><trkpt lat="43.8953364431147" lon="4.4828849975173855"><ele>99.0</ele><time>2026-04-04T14:23:56Z</time></trkpt><trkpt lat="43.89536163613459" lon="4.482803128665391"><ele>99.0</ele><time>2026-04-04T14:23:58Z</time></trkpt><trkpt lat="43.895392499431665" lon="4.482683955012568"><ele>99.0</ele><time>2026-04-04T14:24:01Z</time></trkpt><trkpt lat="43.89543000866922" lon="4.482601853666735"><ele>99.0</ele><time>2026-04-04T14:24:03Z</time></trkpt><trkpt lat="43.89549149006733" lon="4.482535499344119"><ele>99.0</ele><time>2026-04-04T14:24:05Z</time></trkpt><trkpt lat="43.89554679560416" lon="4.482481395015729"><ele>99.0</ele><time>2026-04-04T14:24:07Z</time></trkpt><trkpt lat="43.8956105020801" lon="4.482471774289454"><ele>99.0</ele><time>2026-04-04T14:24:09Z</time></trkpt><trkpt lat="43.89565465563834" lon="4.482547376045226"><ele>99.0</ele><time>2026-04-04T14:24:10.999Z</time></trkpt><trkpt lat="43.89573084254801" lon="4.482642948439603"><ele>99.0</ele><time>2026-04-04T14:24:12.999Z</time></trkpt><trkpt lat="43.89580076038812" lon="4.482681682604642"><ele>99.0</ele><time>2026-04-04T14:24:13.999Z</time></trkpt><trkpt lat="43.89587528888944" lon="4.482724962508693"><ele>99.0</ele><time>2026-04-04T14:24:14.999Z</time></trkpt><trkpt lat="43.89596325228496" lon="4.482770786948913"><ele>99.0</ele><time>2026-04-04T14:24:15.999Z</time></trkpt><trkpt lat="43.89604707307519" lon="4.482814684485939"><ele>99.0</ele><time>2026-04-04T14:24:16.999Z</time></trkpt><trkpt lat="43.896140961428266" lon="4.482854279180741"><ele>99.83333333333333</ele><time>2026-04-04T14:24:17.999Z</time></trkpt><trkpt lat="43.896229502547286" lon="4.482885341080023"><ele>100.66666666666666</ele><time>2026-04-04T14:24:18.999Z</time></trkpt><trkpt lat="43.896324232300586" lon="4.482911576792554"><ele>101.5</ele><time>2026-04-04T14:24:19.999Z</time></trkpt><trkpt lat="43.896414390058005" lon="4.482946068475274"><ele>102.33333333333333</ele><time>2026-04-04T14:24:21Z</time></trkpt><trkpt lat="43.89647633487756" lon="4.483007067866291"><ele>103.16666666666666</ele><time>2026-04-04T14:24:22Z</time></trkpt><trkpt lat="43.89652870059759" lon="4.483084601236303"><ele>104.0</ele><time>2026-04-04T14:24:23Z</time></trkpt><trkpt lat="43.896626620185536" lon="4.483159547165921"><ele>104.0</ele><time>2026-04-04T14:24:25Z</time></trkpt><trkpt lat="43.89673644343848" lon="4.483280738855266"><ele>104.0</ele><time>2026-04-04T14:24:27Z</time></trkpt><trkpt lat="43.89681505316973" lon="4.483333379903248"><ele>104.0</ele><time>2026-04-04T14:24:28Z</time></trkpt><trkpt lat="43.8969029706059" lon="4.483368337213629"><ele>104.0</ele><time>2026-04-04T14:24:29Z</time></trkpt><trkpt lat="43.89699819106579" lon="4.483393149813065"><ele>104.0</ele><time>2026-04-04T14:24:30Z</time></trkpt><trkpt lat="43.897101458631695" lon="4.483421856075553"><ele>105.0</ele><time>2026-04-04T14:24:31Z</time></trkpt><trkpt lat="43.897201026868125" lon="4.483454038615974"><ele>106.0</ele><time>2026-04-04T14:24:32Z</time></trkpt><trkpt lat="43.89730817732751" lon="4.483487854382853"><ele>107.0</ele><time>2026-04-04T14:24:33Z</time></trkpt><trkpt lat="43.897418761218304" lon="4.483530360729801"><ele>108.0</ele><time>2026-04-04T14:24:34Z</time></trkpt><trkpt lat="43.89752059556909" lon="4.483587761201984"><ele>109.0</ele><time>2026-04-04T14:24:35Z</time></trkpt><trkpt lat="43.8976129360286" lon="4.483649165501196"><ele>110.0</ele><time>2026-04-04T14:24:36Z</time></trkpt><trkpt lat="43.897704951359366" lon="4.4836872454258225"><ele>111.0</ele><time>2026-04-04T14:24:37Z</time></trkpt><trkpt lat="43.89779825236735" lon="4.483703917017952"><ele>112.0</ele><time>2026-04-04T14:24:38Z</time></trkpt><trkpt lat="43.89788955082204" lon="4.483717655636162"><ele>113.0</ele><time>2026-04-04T14:24:39Z</time></trkpt><trkpt lat="43.897991197243904" lon="4.483735548203338"><ele>114.0</ele><time>2026-04-04T14:24:40Z</time></trkpt><trkpt lat="43.89810185105067" lon="4.483757988729027"><ele>112.83333333333333</ele><time>2026-04-04T14:24:41Z</time></trkpt><trkpt lat="43.89821001413454" lon="4.483780279986137"><ele>111.66666666666666</ele><time>2026-04-04T14:24:42Z</time></trkpt><trkpt lat="43.89831225153134" lon="4.483793858605298"><ele>110.5</ele><time>2026-04-04T14:24:43Z</time></trkpt><trkpt lat="43.89839614520692" lon="4.483815827269146"><ele>109.33333333333333</ele><time>2026-04-04T14:24:44Z</time></trkpt><trkpt lat="43.89847807797" lon="4.483828248540246"><ele>108.16666666666666</ele><time>2026-04-04T14:24:45Z</time></trkpt><trkpt lat="43.89853839155213" lon="4.483867043388364"><ele>107.0</ele><time>2026-04-04T14:24:46Z</time></trkpt><trkpt lat="43.89862272861586" lon="4.483904209971179"><ele>106.99999999999999</ele><time>2026-04-04T14:24:47Z</time></trkpt><trkpt lat="43.898701255559196" lon="4.483916424066658"><ele>107.0</ele><time>2026-04-04T14:24:48Z</time></trkpt><trkpt lat="43.89877142088527" lon="4.483913431394569"><ele>107.0</ele><time>2026-04-04T14:24:49Z</time></trkpt><trkpt lat="43.898845900160694" lon="4.483909042772918"><ele>107.0</ele><time>2026-04-04T14:24:50Z</time></trkpt><trkpt lat="43.89893785336102" lon="4.483911870513863"><ele>106.99999999999999</ele><time>2026-04-04T14:24:51Z</time></trkpt><trkpt lat="43.89903885271875" lon="4.483907631363585"><ele>107.0</ele><time>2026-04-04T14:24:52Z</time></trkpt><trkpt lat="43.8991471354726" lon="4.483894375777707"><ele>108.25</ele><time>2026-04-04T14:24:53Z</time></trkpt><trkpt lat="43.899251483379764" lon="4.483886860798944"><ele>109.5</ele><time>2026-04-04T14:24:54Z</time></trkpt><trkpt lat="43.89935765688032" lon="4.483886667289358"><ele>110.75</ele><time>2026-04-04T14:24:55Z</time></trkpt><trkpt lat="43.899476411631554" lon="4.483907743993746"><ele>112.0</ele><time>2026-04-04T14:24:56Z</time></trkpt><trkpt lat="43.89960262100015" lon="4.48392867539913"><ele>112.0</ele><time>2026-04-04T14:24:57Z</time></trkpt><trkpt lat="43.89971977900975" lon="4.483955484882403"><ele>111.99999999999999</ele><time>2026-04-04T14:24:58Z</time></trkpt><trkpt lat="43.89983595947976" lon="4.483969415656434"><ele>111.99999999999999</ele><time>2026-04-04T14:24:59Z</time></trkpt><trkpt lat="43.89994666549795" lon="4.483980714680759"><ele>112.0</ele><time>2026-04-04T14:25:00Z</time></trkpt><trkpt lat="43.900043560965386" lon="4.4839877733599085"><ele>112.0</ele><time>2026-04-04T14:25:01Z</time></trkpt><trkpt lat="43.9001358398384" lon="4.483998456118493"><ele>112.50000000000001</ele><time>2026-04-04T14:25:02Z</time></trkpt><trkpt lat="43.90022342737986" lon="4.483984946149353"><ele>113.0</ele><time>2026-04-04T14:25:03Z</time></trkpt><trkpt lat="43.90031235524853" lon="4.483960223016156"><ele>113.5</ele><time>2026-04-04T14:25:04Z</time></trkpt><trkpt lat="43.90038548759933" lon="4.483929503598544"><ele>114.0</ele><time>2026-04-04T14:25:05Z</time></trkpt><trkpt lat="43.900455191809215" lon="4.483871112794217"><ele>114.50000000000001</ele><time>2026-04-04T14:25:06Z</time></trkpt><trkpt lat="43.90052417810061" lon="4.483786450101728"><ele>115.0</ele><time>2026-04-04T14:25:07Z</time></trkpt><trkpt lat="43.90058594822772" lon="4.483725774780136"><ele>115.0</ele><time>2026-04-04T14:25:08Z</time></trkpt><trkpt lat="43.90065246721821" lon="4.483703370956175"><ele>115.0</ele><time>2026-04-04T14:25:09Z</time></trkpt><trkpt lat="43.90077487505681" lon="4.483781232826293"><ele>115.0</ele><time>2026-04-04T14:25:11Z</time></trkpt><trkpt lat="43.90082994577377" lon="4.483853028554647"><ele>115.0</ele><time>2026-04-04T14:25:12Z</time></trkpt><trkpt lat="43.90088925194387" lon="4.483923932695703"><ele>115.0</ele><time>2026-04-04T14:25:13Z</time></trkpt><trkpt lat="43.90097619635286" lon="4.4839841107888905"><ele>116.5</ele><time>2026-04-04T14:25:14Z</time></trkpt><trkpt lat="43.90107679949697" lon="4.484038839566458"><ele>118.0</ele><time>2026-04-04T14:25:15Z</time></trkpt><trkpt lat="43.90119039918906" lon="4.484090400180943"><ele>119.5</ele><time>2026-04-04T14:25:16Z</time></trkpt><trkpt lat="43.90129236967946" lon="4.484144649324664"><ele>121.0</ele><time>2026-04-04T14:25:17Z</time></trkpt><trkpt lat="43.90139935052817" lon="4.484205495549388"><ele>121.00000000000001</ele><time>2026-04-04T14:25:18Z</time></trkpt><trkpt lat="43.901479339832335" lon="4.4842471080830375"><ele>121.0</ele><time>2026-04-04T14:25:19Z</time></trkpt><trkpt lat="43.901556124852895" lon="4.484290930288509"><ele>121.0</ele><time>2026-04-04T14:25:20Z</time></trkpt><trkpt lat="43.901635165440226" lon="4.484335037358"><ele>121.0</ele><time>2026-04-04T14:25:21Z</time></trkpt><trkpt lat="43.90170299653277" lon="4.484363837224097"><ele>121.00000000000001</ele><time>2026-04-04T14:25:22Z</time></trkpt><trkpt lat="43.90177234241829" lon="4.484368703226065"><ele>121.0</ele><time>2026-04-04T14:25:23Z</time></trkpt><trkpt lat="43.90183469729973" lon="4.484355184739942"><ele>121.16666666666667</ele><time>2026-04-04T14:25:24Z</time></trkpt><trkpt lat="43.90192849037081" lon="4.484238083672253"><ele>121.33333333333334</ele><time>2026-04-04T14:25:26Z</time></trkpt><trkpt lat="43.90196730573441" lon="4.48414448207148"><ele>121.5</ele><time>2026-04-04T14:25:27Z</time></trkpt><trkpt lat="43.902000382511794" lon="4.484056161964303"><ele>121.66666666666666</ele><time>2026-04-04T14:25:28Z</time></trkpt><trkpt lat="43.90203352120524" lon="4.483957074483839"><ele>121.83333333333333</ele><time>2026-04-04T14:25:29Z</time></trkpt><trkpt lat="43.90206648078714" lon="4.483859603686753"><ele>122.0</ele><time>2026-04-04T14:25:30Z</time></trkpt><trkpt lat="43.9021212326166" lon="4.483786842067788"><ele>122.66666666666666</ele><time>2026-04-04T14:25:32Z</time></trkpt><trkpt lat="43.902128807965866" lon="4.483698184990367"><ele>123.33333333333333</ele><time>2026-04-04T14:25:34Z</time></trkpt><trkpt lat="43.90209580346944" lon="4.483561065188021"><ele>124.0</ele><time>2026-04-04T14:25:36Z</time></trkpt><trkpt lat="43.90202780166206" lon="4.483453913333258"><ele>124.66666666666666</ele><time>2026-04-04T14:25:38Z</time></trkpt><trkpt lat="43.90197802615326" lon="4.483384803619993"><ele>125.33333333333333</ele><time>2026-04-04T14:25:39Z</time></trkpt><trkpt lat="43.90195887361503" lon="4.483256464560889"><ele>126.0</ele><time>2026-04-04T14:25:41Z</time></trkpt><trkpt lat="43.90197439488291" lon="4.483159135736015"><ele>126.0</ele><time>2026-04-04T14:25:42Z</time></trkpt><trkpt lat="43.901980236387146" lon="4.483052937469488"><ele>126.0</ele><time>2026-04-04T14:25:43Z</time></trkpt><trkpt lat="43.90197482317959" lon="4.482938240831249"><ele>126.0</ele><time>2026-04-04T14:25:44Z</time></trkpt><trkpt lat="43.90197794566615" lon="4.482770140411122"><ele>126.0</ele><time>2026-04-04T14:25:46Z</time></trkpt><trkpt lat="43.90197993575419" lon="4.482642182209504"><ele>126.0</ele><time>2026-04-04T14:25:48Z</time></trkpt><trkpt lat="43.90197520661253" lon="4.482515953219376"><ele>125.83333333333333</ele><time>2026-04-04T14:25:50Z</time></trkpt><trkpt lat="43.9019687622401" lon="4.482402329690777"><ele>125.66666666666666</ele><time>2026-04-04T14:25:52Z</time></trkpt><trkpt lat="43.90199148235755" lon="4.4823203148989705"><ele>125.5</ele><time>2026-04-04T14:25:55Z</time></trkpt><trkpt lat="43.90201745937361" lon="4.482239763700096"><ele>125.33333333333333</ele><time>2026-04-04T14:26:13Z</time></trkpt><trkpt lat="43.90203967113003" lon="4.4821041462584805"><ele>125.16666666666666</ele><time>2026-04-04T14:26:15Z</time></trkpt><trkpt lat="43.90202962450684" lon="4.481987036884834"><ele>125.0</ele><time>2026-04-04T14:26:18Z</time></trkpt><trkpt lat="43.90201458159315" lon="4.481868470811939"><ele>124.99999999999999</ele><time>2026-04-04T14:26:21Z</time></trkpt><trkpt lat="43.90201343316515" lon="4.481777872426029"><ele>125.0</ele><time>2026-04-04T14:26:23Z</time></trkpt><trkpt lat="43.90201871923373" lon="4.4816545449366645"><ele>125.0</ele><time>2026-04-04T14:26:26Z</time></trkpt><trkpt lat="43.90203498875903" lon="4.48156583495926"><ele>125.0</ele><time>2026-04-04T14:26:38Z</time></trkpt><trkpt lat="43.902008674611885" lon="4.481456747773871"><ele>124.99999999999999</ele><time>2026-04-04T14:26:49Z</time></trkpt><trkpt lat="43.90201260600253" lon="4.4813506335786455"><ele>125.0</ele><time>2026-04-04T14:26:51Z</time></trkpt><trkpt lat="43.90197291683175" lon="4.4812230581447645"><ele>124.0</ele><time>2026-04-04T14:26:53Z</time></trkpt><trkpt lat="43.90188299436652" lon="4.481143315494328"><ele>123.0</ele><time>2026-04-04T14:26:55Z</time></trkpt><trkpt lat="43.90182107542579" lon="4.481053096854976"><ele>122.0</ele><time>2026-04-04T14:26:57Z</time></trkpt><trkpt lat="43.90179974396758" lon="4.480936796298682"><ele>121.0</ele><time>2026-04-04T14:26:58Z</time></trkpt><trkpt lat="43.901788356095906" lon="4.48081206228061"><ele>120.0</ele><time>2026-04-04T14:26:59Z</time></trkpt><trkpt lat="43.90177115827561" lon="4.480678256976353"><ele>120.0</ele><time>2026-04-04T14:27:00Z</time></trkpt><trkpt lat="43.90176133627874" lon="4.480554065689975"><ele>120.0</ele><time>2026-04-04T14:27:01Z</time></trkpt><trkpt lat="43.90174865769711" lon="4.480422041294663"><ele>120.0</ele><time>2026-04-04T14:27:02Z</time></trkpt><trkpt lat="43.90173872440775" lon="4.480289883208883"><ele>120.0</ele><time>2026-04-04T14:27:03Z</time></trkpt><trkpt lat="43.901721722953965" lon="4.480157747565598"><ele>120.0</ele><time>2026-04-04T14:27:04Z</time></trkpt><trkpt lat="43.90170934929042" lon="4.480036811512981"><ele>119.83333333333333</ele><time>2026-04-04T14:27:05Z</time></trkpt><trkpt lat="43.90170127758117" lon="4.479911990049695"><ele>119.66666666666666</ele><time>2026-04-04T14:27:06Z</time></trkpt><trkpt lat="43.901705152101165" lon="4.479818818740893"><ele>119.5</ele><time>2026-04-04T14:27:07Z</time></trkpt><trkpt lat="43.90171504776873" lon="4.479710870364195"><ele>119.33333333333333</ele><time>2026-04-04T14:27:09Z</time></trkpt><trkpt lat="43.901719364869365" lon="4.479597742216685"><ele>119.16666666666666</ele><time>2026-04-04T14:27:49Z</time></trkpt><trkpt lat="43.901781843779396" lon="4.479539715280521"><ele>119.0</ele><time>2026-04-04T14:27:51Z</time></trkpt><trkpt lat="43.90183804862857" lon="4.47945718086758"><ele>118.99999999999999</ele><time>2026-04-04T14:27:53Z</time></trkpt><trkpt lat="43.90190810028223" lon="4.479404526267481"><ele>119.0</ele><time>2026-04-04T14:27:56Z</time></trkpt><trkpt lat="43.90196804568678" lon="4.479363144082347"><ele>119.0</ele><time>2026-04-04T14:28:01Z</time></trkpt><trkpt lat="43.902040461039" lon="4.479303244259035"><ele>119.0</ele><time>2026-04-04T14:28:04Z</time></trkpt><trkpt lat="43.90210731455146" lon="4.479257845473668"><ele>118.99999999999999</ele><time>2026-04-04T14:28:06Z</time></trkpt><trkpt lat="43.9021876699445" lon="4.479207173522365"><ele>119.0</ele><time>2026-04-04T14:28:08Z</time></trkpt><trkpt lat="43.902268965870284" lon="4.479142042738722"><ele>118.99999999999999</ele><time>2026-04-04T14:28:10Z</time></trkpt><trkpt lat="43.90235064621504" lon="4.479077458143777"><ele>119.0</ele><time>2026-04-04T14:28:12Z</time></trkpt><trkpt lat="43.902412065838185" lon="4.479040209740346"><ele>119.0</ele><time>2026-04-04T14:28:14Z</time></trkpt><trkpt lat="43.90247099583421" lon="4.479002691485325"><ele>119.0</ele><time>2026-04-04T14:28:16Z</time></trkpt><trkpt lat="43.90255834183343" lon="4.478939954927696"><ele>118.99999999999999</ele><time>2026-04-04T14:28:18Z</time></trkpt><trkpt lat="43.902667872235526" lon="4.478900280263422"><ele>119.0</ele><time>2026-04-04T14:28:20Z</time></trkpt><trkpt lat="43.902757767507254" lon="4.478856921328173"><ele>119.66666666666666</ele><time>2026-04-04T14:28:22Z</time></trkpt><trkpt lat="43.90287262616532" lon="4.478803236288163"><ele>120.33333333333333</ele><time>2026-04-04T14:28:24Z</time></trkpt><trkpt lat="43.902940772860454" lon="4.478767124058195"><ele>121.0</ele><time>2026-04-04T14:28:25Z</time></trkpt><trkpt lat="43.90301302496349" lon="4.478731768779302"><ele>121.66666666666666</ele><time>2026-04-04T14:28:26Z</time></trkpt><trkpt lat="43.90308722190567" lon="4.478690881820292"><ele>122.33333333333333</ele><time>2026-04-04T14:28:27Z</time></trkpt><trkpt lat="43.9031636658688" lon="4.478645177821995"><ele>123.0</ele><time>2026-04-04T14:28:28Z</time></trkpt><trkpt lat="43.903234302069265" lon="4.478597413862091"><ele>123.0</ele><time>2026-04-04T14:28:29Z</time></trkpt><trkpt lat="43.903296555973185" lon="4.478558601890475"><ele>123.0</ele><time>2026-04-04T14:28:30Z</time></trkpt><trkpt lat="43.903406693746234" lon="4.478532012005789"><ele>123.0</ele><time>2026-04-04T14:28:32Z</time></trkpt><trkpt lat="43.9034901356457" lon="4.478502505761813"><ele>123.0</ele><time>2026-04-04T14:28:34Z</time></trkpt><trkpt lat="43.903560208636655" lon="4.478482041150839"><ele>123.0</ele><time>2026-04-04T14:28:36Z</time></trkpt><trkpt lat="43.9036431262764" lon="4.478466427368449"><ele>123.0</ele><time>2026-04-04T14:28:38Z</time></trkpt><trkpt lat="43.9037359978754" lon="4.478438379043374"><ele>123.66666666666667</ele><time>2026-04-04T14:28:40Z</time></trkpt><trkpt lat="43.90382563441702" lon="4.478459695318434"><ele>124.33333333333334</ele><time>2026-04-04T14:28:42Z</time></trkpt><trkpt lat="43.90391263782041" lon="4.478461747805902"><ele>125.0</ele><time>2026-04-04T14:28:44Z</time></trkpt><trkpt lat="43.9039908190944" lon="4.478464689717244"><ele>125.66666666666667</ele><time>2026-04-04T14:28:46Z</time></trkpt><trkpt lat="43.90405374745804" lon="4.478458287663016"><ele>126.33333333333334</ele><time>2026-04-04T14:28:48Z</time></trkpt><trkpt lat="43.90412288723845" lon="4.478477687703222"><ele>127.0</ele><time>2026-04-04T14:28:53Z</time></trkpt><trkpt lat="43.90405057706081" lon="4.4784497138139585"><ele>127.0</ele><time>2026-04-04T14:29:47Z</time></trkpt><trkpt lat="43.90393996379876" lon="4.4784431896118075"><ele>126.99999999999999</ele><time>2026-04-04T14:29:49Z</time></trkpt><trkpt lat="43.90382490628331" lon="4.478447965266534"><ele>126.99999999999999</ele><time>2026-04-04T14:29:51Z</time></trkpt><trkpt lat="43.903750480648334" lon="4.47846798909534"><ele>127.0</ele><time>2026-04-04T14:29:52Z</time></trkpt><trkpt lat="43.90367074125711" lon="4.478461788086442"><ele>127.0</ele><time>2026-04-04T14:29:53Z</time></trkpt><trkpt lat="43.903596868728926" lon="4.478457523491993"><ele>127.0</ele><time>2026-04-04T14:29:54Z</time></trkpt><trkpt lat="43.90347276310915" lon="4.47848336986894"><ele>126.99999999999999</ele><time>2026-04-04T14:29:56Z</time></trkpt><trkpt lat="43.90339324081966" lon="4.478515032592198"><ele>126.99999999999999</ele><time>2026-04-04T14:29:57Z</time></trkpt><trkpt lat="43.90331099690737" lon="4.4785374605287736"><ele>127.0</ele><time>2026-04-04T14:29:58Z</time></trkpt><trkpt lat="43.903233220828255" lon="4.478581954241817"><ele>127.0</ele><time>2026-04-04T14:29:59Z</time></trkpt><trkpt lat="43.90315782221775" lon="4.478640404829862"><ele>126.33333333333334</ele><time>2026-04-04T14:30:00Z</time></trkpt><trkpt lat="43.90309253844721" lon="4.478713568658298"><ele>125.66666666666667</ele><time>2026-04-04T14:30:01Z</time></trkpt><trkpt lat="43.90302174629328" lon="4.478751994466165"><ele>125.0</ele><time>2026-04-04T14:30:02Z</time></trkpt><trkpt lat="43.9029528691528" lon="4.478789296241946"><ele>124.33333333333334</ele><time>2026-04-04T14:30:03Z</time></trkpt><trkpt lat="43.902885501414715" lon="4.478826238222272"><ele>123.66666666666667</ele><time>2026-04-04T14:30:04Z</time></trkpt><trkpt lat="43.9028228855162" lon="4.478860666496092"><ele>123.0</ele><time>2026-04-04T14:30:05Z</time></trkpt><trkpt lat="43.90271443186411" lon="4.4789410282401025"><ele>123.0</ele><time>2026-04-04T14:30:07Z</time></trkpt><trkpt lat="43.902630953686995" lon="4.478946986234423"><ele>123.0</ele><time>2026-04-04T14:30:09Z</time></trkpt><trkpt lat="43.90271787995874" lon="4.478894620375544"><ele>123.0</ele><time>2026-04-04T14:31:07Z</time></trkpt><trkpt lat="43.90282874995166" lon="4.478844942075384"><ele>123.0</ele><time>2026-04-04T14:31:09Z</time></trkpt><trkpt lat="43.902889323479066" lon="4.478814767286155"><ele>123.0</ele><time>2026-04-04T14:31:10Z</time></trkpt><trkpt lat="43.90295529708925" lon="4.478778731345596"><ele>123.0</ele><time>2026-04-04T14:31:11Z</time></trkpt><trkpt lat="43.90306639365105" lon="4.478717577846974"><ele>123.0</ele><time>2026-04-04T14:31:13Z</time></trkpt><trkpt lat="43.90315784534045" lon="4.478661544074204"><ele>123.00000000000001</ele><time>2026-04-04T14:31:15Z</time></trkpt><trkpt lat="43.90321812564659" lon="4.478623178144543"><ele>123.00000000000001</ele><time>2026-04-04T14:31:17Z</time></trkpt><trkpt lat="43.90328771149754" lon="4.47858268389973"><ele>123.0</ele><time>2026-04-04T14:31:21Z</time></trkpt><trkpt lat="43.90317132783933" lon="4.478650506466664"><ele>123.0</ele><time>2026-04-04T14:35:53Z</time></trkpt><trkpt lat="43.90309777367785" lon="4.478702625404261"><ele>123.0</ele><time>2026-04-04T14:35:55Z</time></trkpt><trkpt lat="43.90299823519333" lon="4.4787769893318465"><ele>123.00000000000001</ele><time>2026-04-04T14:35:57Z</time></trkpt><trkpt lat="43.9029186373618" lon="4.478821884490119"><ele>123.00000000000001</ele><time>2026-04-04T14:35:59Z</time></trkpt><trkpt lat="43.90284131433296" lon="4.478864503946956"><ele>123.0</ele><time>2026-04-04T14:36:01Z</time></trkpt><trkpt lat="43.902754222216295" lon="4.478902246363237"><ele>123.0</ele><time>2026-04-04T14:36:03Z</time></trkpt><trkpt lat="43.902675251475316" lon="4.478939556896349"><ele>123.0</ele><time>2026-04-04T14:36:05Z</time></trkpt><trkpt lat="43.90260845505861" lon="4.4789695684054776"><ele>123.0</ele><time>2026-04-04T14:36:07Z</time></trkpt><trkpt lat="43.90252628642217" lon="4.479015019359557"><ele>123.0</ele><time>2026-04-04T14:36:10Z</time></trkpt><trkpt lat="43.902422735468306" lon="4.479065848143224"><ele>123.0</ele><time>2026-04-04T14:36:12Z</time></trkpt><trkpt lat="43.90235371472578" lon="4.479106461880793"><ele>123.0</ele><time>2026-04-04T14:36:13Z</time></trkpt><trkpt lat="43.902280838028524" lon="4.479162878115983"><ele>123.0</ele><time>2026-04-04T14:36:14Z</time></trkpt><trkpt lat="43.902194656390016" lon="4.479230966646745"><ele>122.33333333333333</ele><time>2026-04-04T14:36:15Z</time></trkpt><trkpt lat="43.902112393445734" lon="4.479285964343146"><ele>121.66666666666666</ele><time>2026-04-04T14:36:16Z</time></trkpt><trkpt lat="43.9020332412881" lon="4.479315287836021"><ele>121.0</ele><time>2026-04-04T14:36:17Z</time></trkpt><trkpt lat="43.90195362843223" lon="4.479374239700911"><ele>120.33333333333333</ele><time>2026-04-04T14:36:18Z</time></trkpt><trkpt lat="43.901892427097614" lon="4.479423597547352"><ele>119.66666666666666</ele><time>2026-04-04T14:36:19Z</time></trkpt><trkpt lat="43.90183078089312" lon="4.47950421188246"><ele>119.0</ele><time>2026-04-04T14:36:21Z</time></trkpt><trkpt lat="43.90175409051975" lon="4.4796000745392055"><ele>118.4</ele><time>2026-04-04T14:36:29Z</time></trkpt><trkpt lat="43.9016677630413" lon="4.479696729162852"><ele>117.80000000000001</ele><time>2026-04-04T14:36:31Z</time></trkpt><trkpt lat="43.901574563665434" lon="4.479773304090417"><ele>117.19999999999999</ele><time>2026-04-04T14:36:33Z</time></trkpt><trkpt lat="43.90148235697231" lon="4.479827857728292"><ele>116.6</ele><time>2026-04-04T14:36:35Z</time></trkpt><trkpt lat="43.901566664250886" lon="4.479781100162762"><ele>116.0</ele><time>2026-04-04T14:36:42Z</time></trkpt><trkpt lat="43.90162333195356" lon="4.479740923504469"><ele>115.99999999999999</ele><time>2026-04-04T14:36:44Z</time></trkpt><trkpt lat="43.90168068492246" lon="4.479694385310914"><ele>116.0</ele><time>2026-04-04T14:36:47Z</time></trkpt><trkpt lat="43.90167942342678" lon="4.479581185180902"><ele>116.0</ele><time>2026-04-04T14:36:50Z</time></trkpt><trkpt lat="43.90163860314035" lon="4.479507453255414"><ele>116.0</ele><time>2026-04-04T14:36:52Z</time></trkpt><trkpt lat="43.901610559799735" lon="4.479413462853649"><ele>115.99999999999999</ele><time>2026-04-04T14:36:54Z</time></trkpt><trkpt lat="43.901559550887136" lon="4.47930836329984"><ele>116.0</ele><time>2026-04-04T14:36:56Z</time></trkpt><trkpt lat="43.9015041668003" lon="4.479196135816177"><ele>117.19999999999999</ele><time>2026-04-04T14:36:57.999Z</time></trkpt><trkpt lat="43.901453092037414" lon="4.479085033614558"><ele>118.39999999999999</ele><time>2026-04-04T14:36:59.999Z</time></trkpt><trkpt lat="43.90143504961551" lon="4.478979038035686"><ele>119.6</ele><time>2026-04-04T14:37:01.999Z</time></trkpt><trkpt lat="43.90142304038206" lon="4.478837081454464"><ele>120.8</ele><time>2026-04-04T14:37:03.999Z</time></trkpt><trkpt lat="43.901377325060295" lon="4.478726564450815"><ele>122.0</ele><time>2026-04-04T14:37:05.999Z</time></trkpt><trkpt lat="43.90132783183213" lon="4.478614081108179"><ele>122.14285714285712</ele><time>2026-04-04T14:37:07.999Z</time></trkpt><trkpt lat="43.9013431117088" lon="4.478512813585909"><ele>122.28571428571428</ele><time>2026-04-04T14:37:10.999Z</time></trkpt><trkpt lat="43.90127428637559" lon="4.478481981467178"><ele>122.42857142857143</ele><time>2026-04-04T14:37:36.999Z</time></trkpt><trkpt lat="43.90119395675973" lon="4.478520752332445"><ele>122.57142857142857</ele><time>2026-04-04T14:37:38.999Z</time></trkpt><trkpt lat="43.901136925529705" lon="4.478580400655307"><ele>122.71428571428572</ele><time>2026-04-04T14:37:39.999Z</time></trkpt><trkpt lat="43.90107466107139" lon="4.47862508237446"><ele>122.85714285714288</ele><time>2026-04-04T14:37:40.999Z</time></trkpt><trkpt lat="43.90100878299768" lon="4.47864016878536"><ele>123.00000000000001</ele><time>2026-04-04T14:37:41.999Z</time></trkpt><trkpt lat="43.9009000628287" lon="4.478674658846188"><ele>123.0</ele><time>2026-04-04T14:37:43.999Z</time></trkpt><trkpt lat="43.90085997025409" lon="4.478751855974598"><ele>123.00000000000001</ele><time>2026-04-04T14:37:44.999Z</time></trkpt><trkpt lat="43.90080534517663" lon="4.478871201993264"><ele>123.00000000000001</ele><time>2026-04-04T14:37:46.999Z</time></trkpt><trkpt lat="43.90071319122084" lon="4.478999422611155"><ele>123.0</ele><time>2026-04-04T14:37:49Z</time></trkpt><trkpt lat="43.900636604560326" lon="4.479043302270892"><ele>123.0</ele><time>2026-04-04T14:37:50Z</time></trkpt><trkpt lat="43.90054614313931" lon="4.479051197815467"><ele>123.0</ele><time>2026-04-04T14:37:51Z</time></trkpt><trkpt lat="43.90045609221632" lon="4.479054251249939"><ele>123.00000000000001</ele><time>2026-04-04T14:37:52Z</time></trkpt><trkpt lat="43.90036998200599" lon="4.479082379296329"><ele>123.00000000000001</ele><time>2026-04-04T14:37:53Z</time></trkpt><trkpt lat="43.90027175041027" lon="4.479101410129236"><ele>123.0</ele><time>2026-04-04T14:37:54Z</time></trkpt><trkpt lat="43.900181912468454" lon="4.479135184432049"><ele>123.0</ele><time>2026-04-04T14:37:55Z</time></trkpt><trkpt lat="43.90007769780935" lon="4.479174460866035"><ele>122.0</ele><time>2026-04-04T14:37:56Z</time></trkpt><trkpt lat="43.89996632094565" lon="4.479213384654194"><ele>121.00000000000001</ele><time>2026-04-04T14:37:57Z</time></trkpt><trkpt lat="43.89985608586157" lon="4.479246891407329"><ele>120.00000000000001</ele><time>2026-04-04T14:37:58Z</time></trkpt><trkpt lat="43.89974900006944" lon="4.479276103990518"><ele>119.0</ele><time>2026-04-04T14:37:59Z</time></trkpt><trkpt lat="43.899647966902414" lon="4.479297415796"><ele>118.0</ele><time>2026-04-04T14:38:00Z</time></trkpt><trkpt lat="43.899547847588636" lon="4.479321079137114"><ele>118.00000000000001</ele><time>2026-04-04T14:38:01Z</time></trkpt><trkpt lat="43.899447088280745" lon="4.47932842749966"><ele>118.0</ele><time>2026-04-04T14:38:02Z</time></trkpt><trkpt lat="43.89935564782962" lon="4.47932511291483"><ele>118.0</ele><time>2026-04-04T14:38:03Z</time></trkpt><trkpt lat="43.899280694081284" lon="4.479322773509442"><ele>118.0</ele><time>2026-04-04T14:38:04Z</time></trkpt><trkpt lat="43.89916823414487" lon="4.4793606425783326"><ele>118.00000000000001</ele><time>2026-04-04T14:38:06Z</time></trkpt><trkpt lat="43.8991169513845" lon="4.479414544616154"><ele>118.0</ele><time>2026-04-04T14:38:07Z</time></trkpt><trkpt lat="43.899054303891155" lon="4.4794523748086785"><ele>117.0</ele><time>2026-04-04T14:38:08Z</time></trkpt><trkpt lat="43.89894974278747" lon="4.4794823505277925"><ele>116.00000000000001</ele><time>2026-04-04T14:38:10Z</time></trkpt><trkpt lat="43.8988712427652" lon="4.479568398112912"><ele>115.00000000000001</ele><time>2026-04-04T14:38:12Z</time></trkpt><trkpt lat="43.89882619049076" lon="4.479674172257468"><ele>114.0</ele><time>2026-04-04T14:38:14Z</time></trkpt><trkpt lat="43.8987983395486" lon="4.479837135969176"><ele>113.0</ele><time>2026-04-04T14:38:16Z</time></trkpt><trkpt lat="43.89874239689229" lon="4.479968617961909"><ele>112.60000000000001</ele><time>2026-04-04T14:38:18Z</time></trkpt><trkpt lat="43.89869187355528" lon="4.480074644082038"><ele>112.20000000000002</ele><time>2026-04-04T14:38:20Z</time></trkpt><trkpt lat="43.8986559654643" lon="4.48020873611868"><ele>111.8</ele><time>2026-04-04T14:38:22Z</time></trkpt><trkpt lat="43.898640902764015" lon="4.480369390955406"><ele>111.4</ele><time>2026-04-04T14:38:24Z</time></trkpt><trkpt lat="43.898593785348105" lon="4.480455692690384"><ele>111.0</ele><time>2026-04-04T14:38:26Z</time></trkpt><trkpt lat="43.89853494942991" lon="4.480399871229964"><ele>111.0</ele><time>2026-04-04T14:38:39Z</time></trkpt><trkpt lat="43.89841826201316" lon="4.480392665967636"><ele>111.0</ele><time>2026-04-04T14:38:41Z</time></trkpt><trkpt lat="43.898347536044845" lon="4.480362611328743"><ele>111.0</ele><time>2026-04-04T14:38:42Z</time></trkpt><trkpt lat="43.89825849805166" lon="4.480315180084736"><ele>111.0</ele><time>2026-04-04T14:38:43Z</time></trkpt><trkpt lat="43.8981669032997" lon="4.480263248535365"><ele>111.0</ele><time>2026-04-04T14:38:44Z</time></trkpt><trkpt lat="43.89807476000241" lon="4.480205456357432"><ele>110.0</ele><time>2026-04-04T14:38:45Z</time></trkpt><trkpt lat="43.89797864995408" lon="4.4801465290645615"><ele>109.0</ele><time>2026-04-04T14:38:46Z</time></trkpt><trkpt lat="43.89788131013249" lon="4.480086140636771"><ele>108.0</ele><time>2026-04-04T14:38:47Z</time></trkpt><trkpt lat="43.897791905486834" lon="4.480018153105888"><ele>107.0</ele><time>2026-04-04T14:38:48Z</time></trkpt><trkpt lat="43.897716301564834" lon="4.479945517373072"><ele>106.0</ele><time>2026-04-04T14:38:49Z</time></trkpt><trkpt lat="43.897658069802745" lon="4.479857852810731"><ele>106.0</ele><time>2026-04-04T14:38:50Z</time></trkpt><trkpt lat="43.89760899381606" lon="4.4797663375448815"><ele>106.0</ele><time>2026-04-04T14:38:51Z</time></trkpt><trkpt lat="43.89756864247727" lon="4.479683939435194"><ele>106.0</ele><time>2026-04-04T14:38:52Z</time></trkpt><trkpt lat="43.8975334546349" lon="4.47954388761665"><ele>106.0</ele><time>2026-04-04T14:38:54Z</time></trkpt><trkpt lat="43.89748862447877" lon="4.479439088378033"><ele>106.0</ele><time>2026-04-04T14:39:06.999Z</time></trkpt><trkpt lat="43.897397978867886" lon="4.479349300041654"><ele>105.0</ele><time>2026-04-04T14:39:08.999Z</time></trkpt><trkpt lat="43.89730601732273" lon="4.479264844343723"><ele>104.0</ele><time>2026-04-04T14:39:10.999Z</time></trkpt><trkpt lat="43.89723352578052" lon="4.479193511789959"><ele>103.0</ele><time>2026-04-04T14:39:12.999Z</time></trkpt><trkpt lat="43.89715790116732" lon="4.479211171601628"><ele>102.0</ele><time>2026-04-04T14:39:19.999Z</time></trkpt><trkpt lat="43.897067326452316" lon="4.479239129637227"><ele>101.0</ele><time>2026-04-04T14:39:22.999Z</time></trkpt><trkpt lat="43.89697928897103" lon="4.479256325850822"><ele>101.0</ele><time>2026-04-04T14:39:25.999Z</time></trkpt><trkpt lat="43.89690634056752" lon="4.479238516605848"><ele>101.0</ele><time>2026-04-04T14:39:29Z</time></trkpt><trkpt lat="43.89686993784897" lon="4.479337522317871"><ele>101.0</ele><time>2026-04-04T14:40:32Z</time></trkpt><trkpt lat="43.89685731591967" lon="4.479494149314388"><ele>101.0</ele><time>2026-04-04T14:40:34Z</time></trkpt><trkpt lat="43.89685465406087" lon="4.479619104001359"><ele>101.0</ele><time>2026-04-04T14:40:35Z</time></trkpt><trkpt lat="43.896852605419" lon="4.479756894322132"><ele>100.8</ele><time>2026-04-04T14:40:36Z</time></trkpt><trkpt lat="43.89682265429699" lon="4.479910759852878"><ele>100.6</ele><time>2026-04-04T14:40:37Z</time></trkpt><trkpt lat="43.89682946706735" lon="4.480059011289749"><ele>100.4</ele><time>2026-04-04T14:40:38Z</time></trkpt><trkpt lat="43.896812160362586" lon="4.480184511494652"><ele>100.2</ele><time>2026-04-04T14:40:39Z</time></trkpt><trkpt lat="43.89683202765553" lon="4.480318668904789"><ele>100.0</ele><time>2026-04-04T14:40:40Z</time></trkpt><trkpt lat="43.896826046234835" lon="4.480436772004947"><ele>99.66666666666667</ele><time>2026-04-04T14:40:41Z</time></trkpt><trkpt lat="43.896816838743966" lon="4.480548543084888"><ele>99.33333333333334</ele><time>2026-04-04T14:40:42Z</time></trkpt><trkpt lat="43.896804728478266" lon="4.480643211889952"><ele>99.0</ele><time>2026-04-04T14:40:43Z</time></trkpt><trkpt lat="43.89676908389114" lon="4.480772920611612"><ele>98.66666666666666</ele><time>2026-04-04T14:40:45Z</time></trkpt><trkpt lat="43.89672432388515" lon="4.480843648421621"><ele>98.33333333333333</ele><time>2026-04-04T14:40:47Z</time></trkpt><trkpt lat="43.89669605407103" lon="4.480923996147158"><ele>98.0</ele><time>2026-04-04T14:40:51Z</time></trkpt><trkpt lat="43.89668531135048" lon="4.481048950565209"><ele>98.4</ele><time>2026-04-04T14:41:06Z</time></trkpt><trkpt lat="43.8965530372183" lon="4.481071020143064"><ele>98.80000000000001</ele><time>2026-04-04T14:41:08Z</time></trkpt><trkpt lat="43.89646128981151" lon="4.4812043450103465"><ele>99.2</ele><time>2026-04-04T14:41:09.999Z</time></trkpt><trkpt lat="43.89640860374772" lon="4.481286005245744"><ele>99.6</ele><time>2026-04-04T14:41:10.999Z</time></trkpt><trkpt lat="43.89635505297148" lon="4.481369353015747"><ele>100.0</ele><time>2026-04-04T14:41:11.999Z</time></trkpt><trkpt lat="43.89629460396655" lon="4.481465113686185"><ele>100.00000000000001</ele><time>2026-04-04T14:41:12.999Z</time></trkpt><trkpt lat="43.89623590804011" lon="4.481561497333238"><ele>100.0</ele><time>2026-04-04T14:41:13.999Z</time></trkpt><trkpt lat="43.89618947374123" lon="4.481637746328483"><ele>100.0</ele><time>2026-04-04T14:41:14.999Z</time></trkpt><trkpt lat="43.89614812255115" lon="4.481706908246184"><ele>100.0</ele><time>2026-04-04T14:41:15.999Z</time></trkpt><trkpt lat="43.89609649949625" lon="4.481798229073047"><ele>100.00000000000001</ele><time>2026-04-04T14:41:16.999Z</time></trkpt><trkpt lat="43.89607333739" lon="4.481907166242481"><ele>100.0</ele><time>2026-04-04T14:41:18.999Z</time></trkpt><trkpt lat="43.896502231116" lon="4.482389151445844"><ele>100.66666666666667</ele><time>2026-04-04T14:41:19.999Z</time></trkpt><trkpt lat="43.89650245631566" lon="4.482492930346675"><ele>101.33333333333334</ele><time>2026-04-04T14:41:20.999Z</time></trkpt><trkpt lat="43.89649484305453" lon="4.482610477352217"><ele>102.0</ele><time>2026-04-04T14:41:22Z</time></trkpt><trkpt lat="43.89650071901507" lon="4.482714514787831"><ele>102.66666666666666</ele><time>2026-04-04T14:41:23Z</time></trkpt><trkpt lat="43.896508488775275" lon="4.482806457821484"><ele>103.33333333333333</ele><time>2026-04-04T14:41:24Z</time></trkpt><trkpt lat="43.89653493647621" lon="4.482909345876347"><ele>104.0</ele><time>2026-04-04T14:41:25Z</time></trkpt><trkpt lat="43.896565328766464" lon="4.482996982771467"><ele>103.99999999999999</ele><time>2026-04-04T14:41:26Z</time></trkpt><trkpt lat="43.89659280658395" lon="4.483101853492647"><ele>104.0</ele><time>2026-04-04T14:41:28Z</time></trkpt><trkpt lat="43.89665743060278" lon="4.483172381176833"><ele>104.0</ele><time>2026-04-04T14:41:31Z</time></trkpt><trkpt lat="43.896712957236275" lon="4.483228533004356"><ele>104.0</ele><time>2026-04-04T14:41:33Z</time></trkpt><trkpt lat="43.89675235684605" lon="4.483296796933286"><ele>103.99999999999999</ele><time>2026-04-04T14:41:36Z</time></trkpt><trkpt lat="43.8966853176006" lon="4.483221374937365"><ele>104.0</ele><time>2026-04-04T14:41:42Z</time></trkpt><trkpt lat="43.89662558523691" lon="4.483127868033773"><ele>103.99999999999999</ele><time>2026-04-04T14:41:44Z</time></trkpt><trkpt lat="43.89654511358463" lon="4.483099483058137"><ele>104.0</ele><time>2026-04-04T14:41:46Z</time></trkpt><trkpt lat="43.89648170772759" lon="4.483043161489569"><ele>104.0</ele><time>2026-04-04T14:41:48Z</time></trkpt><trkpt lat="43.89643561868345" lon="4.482975723708663"><ele>104.0</ele><time>2026-04-04T14:41:49Z</time></trkpt><trkpt lat="43.89632825760963" lon="4.482887690315617"><ele>103.99999999999999</ele><time>2026-04-04T14:41:51Z</time></trkpt><trkpt lat="43.89624939112182" lon="4.482865186481705"><ele>104.0</ele><time>2026-04-04T14:41:52Z</time></trkpt><trkpt lat="43.89615180795181" lon="4.482839292764182"><ele>104.0</ele><time>2026-04-04T14:41:53Z</time></trkpt><trkpt lat="43.89604962538994" lon="4.482799221522536"><ele>104.0</ele><time>2026-04-04T14:41:54Z</time></trkpt><trkpt lat="43.895950088663255" lon="4.482753856445968"><ele>104.0</ele><time>2026-04-04T14:41:55Z</time></trkpt><trkpt lat="43.895862038277855" lon="4.482708600673295"><ele>104.0</ele><time>2026-04-04T14:41:56Z</time></trkpt><trkpt lat="43.89579610841299" lon="4.482660533514425"><ele>104.0</ele><time>2026-04-04T14:41:57Z</time></trkpt><trkpt lat="43.89570999259491" lon="4.482616828775164"><ele>102.75</ele><time>2026-04-04T14:41:59Z</time></trkpt><trkpt lat="43.895547184296724" lon="4.482483409585301"><ele>101.5</ele><time>2026-04-04T14:42:02Z</time></trkpt><trkpt lat="43.895450696496376" lon="4.482557595609659"><ele>100.25</ele><time>2026-04-04T14:42:03Z</time></trkpt><trkpt lat="43.8954043067906" lon="4.482645027455952"><ele>99.0</ele><time>2026-04-04T14:42:04Z</time></trkpt><trkpt lat="43.89534960574939" lon="4.482717819495151"><ele>99.0</ele><time>2026-04-04T14:42:08Z</time></trkpt><trkpt lat="43.89533687898254" lon="4.482848953318712"><ele>99.0</ele><time>2026-04-04T14:42:09Z</time></trkpt><trkpt lat="43.89557448596364" lon="4.482950180520829"><ele>99.0</ele><time>2026-04-04T14:42:11Z</time></trkpt><trkpt lat="43.89563313704735" lon="4.482888091864403"><ele>99.0</ele><time>2026-04-04T14:42:12Z</time></trkpt><trkpt lat="43.89567234776068" lon="4.482804806787594"><ele>99.0</ele><time>2026-04-04T14:42:13Z</time></trkpt><trkpt lat="43.89570844799401" lon="4.4827248245874305"><ele>99.0</ele><time>2026-04-04T14:42:14Z</time></trkpt><trkpt lat="43.89580567606904" lon="4.482648820792483"><ele>99.0</ele><time>2026-04-04T14:42:16Z</time></trkpt><trkpt lat="43.89587123567746" lon="4.482712272669587"><ele>99.0</ele><time>2026-04-04T14:42:18Z</time></trkpt><trkpt lat="43.89598097916271" lon="4.482789959945683"><ele>99.0</ele><time>2026-04-04T14:42:20Z</time></trkpt><trkpt lat="43.89606580373966" lon="4.482827277268381"><ele>99.83333333333333</ele><time>2026-04-04T14:42:21Z</time></trkpt><trkpt lat="43.89615340507909" lon="4.482868669965303"><ele>100.66666666666666</ele><time>2026-04-04T14:42:22Z</time></trkpt><trkpt lat="43.8962425117712" lon="4.482900247959233"><ele>101.5</ele><time>2026-04-04T14:42:23Z</time></trkpt><trkpt lat="43.89633173922216" lon="4.482928455384288"><ele>102.33333333333333</ele><time>2026-04-04T14:42:24Z</time></trkpt><trkpt lat="43.89640393364163" lon="4.482958379002343"><ele>103.16666666666666</ele><time>2026-04-04T14:42:25Z</time></trkpt><trkpt lat="43.896461501965746" lon="4.483008404062179"><ele>104.0</ele><time>2026-04-04T14:42:26Z</time></trkpt><trkpt lat="43.89652808084392" lon="4.483104800480229"><ele>103.99999999999999</ele><time>2026-04-04T14:42:28Z</time></trkpt><trkpt lat="43.89659720197647" lon="4.483136592518362"><ele>104.0</ele><time>2026-04-04T14:42:33Z</time></trkpt><trkpt lat="43.896658439347775" lon="4.483192409274496"><ele>104.0</ele><time>2026-04-04T14:42:37Z</time></trkpt><trkpt lat="43.896725784372144" lon="4.48327631463879"><ele>104.0</ele><time>2026-04-04T14:42:40Z</time></trkpt><trkpt lat="43.896732472936364" lon="4.483405485902262"><ele>103.99999999999999</ele><time>2026-04-04T14:42:42Z</time></trkpt><trkpt lat="43.89669546203424" lon="4.4835370330032935"><ele>104.0</ele><time>2026-04-04T14:42:44Z</time></trkpt><trkpt lat="43.896634667085586" lon="4.483674533184576"><ele>103.83333333333333</ele><time>2026-04-04T14:42:46Z</time></trkpt><trkpt lat="43.8965578031539" lon="4.48378303321277"><ele>103.66666666666666</ele><time>2026-04-04T14:42:48Z</time></trkpt><trkpt lat="43.89652339781709" lon="4.483857197799148"><ele>103.5</ele><time>2026-04-04T14:42:50Z</time></trkpt><trkpt lat="43.896518475214634" lon="4.483974142059632"><ele>103.33333333333334</ele><time>2026-04-04T14:42:53Z</time></trkpt><trkpt lat="43.896596526002746" lon="4.484033299665666"><ele>103.16666666666667</ele><time>2026-04-04T14:43:53Z</time></trkpt><trkpt lat="43.89666387003323" lon="4.484023285163023"><ele>103.0</ele><time>2026-04-04T14:43:54Z</time></trkpt><trkpt lat="43.896779462589045" lon="4.484020345423131"><ele>103.0</ele><time>2026-04-04T14:43:56Z</time></trkpt><trkpt lat="43.89690824632013" lon="4.484008819716448"><ele>103.0</ele><time>2026-04-04T14:43:58Z</time></trkpt><trkpt lat="43.89698109717712" lon="4.484001702233788"><ele>103.0</ele><time>2026-04-04T14:43:59Z</time></trkpt><trkpt lat="43.89705936194324" lon="4.483993533206701"><ele>103.0</ele><time>2026-04-04T14:44:00Z</time></trkpt><trkpt lat="43.89713646934353" lon="4.483988646237877"><ele>103.0</ele><time>2026-04-04T14:44:01Z</time></trkpt><trkpt lat="43.89724386024529" lon="4.484017472016569"><ele>103.00000000000001</ele><time>2026-04-04T14:44:03Z</time></trkpt><trkpt lat="43.897244281312226" lon="4.484158933065854"><ele>103.0</ele><time>2026-04-04T14:44:06Z</time></trkpt><trkpt lat="43.89724035104779" lon="4.484307159766815"><ele>103.0</ele><time>2026-04-04T14:44:08Z</time></trkpt><trkpt lat="43.89723686078904" lon="4.4844022598717865"><ele>103.0</ele><time>2026-04-04T14:44:09Z</time></trkpt><trkpt lat="43.89722931442634" lon="4.484492763857027"><ele>103.00000000000001</ele><time>2026-04-04T14:44:10Z</time></trkpt><trkpt lat="43.897223322823095" lon="4.48459217014646"><ele>103.0</ele><time>2026-04-04T14:44:11Z</time></trkpt><trkpt lat="43.897217837424066" lon="4.484691411257658"><ele>103.42857142857142</ele><time>2026-04-04T14:44:12Z</time></trkpt><trkpt lat="43.8972133025136" lon="4.4847940017485"><ele>103.85714285714286</ele><time>2026-04-04T14:44:13Z</time></trkpt><trkpt lat="43.89721867738508" lon="4.484895204010433"><ele>104.28571428571428</ele><time>2026-04-04T14:44:14Z</time></trkpt><trkpt lat="43.897231127973654" lon="4.485011096142908"><ele>104.71428571428571</ele><time>2026-04-04T14:44:16Z</time></trkpt><trkpt lat="43.897282594315406" lon="4.485079001122742"><ele>105.14285714285714</ele><time>2026-04-04T14:44:19Z</time></trkpt><trkpt lat="43.89735408390839" lon="4.485065171908018"><ele>105.57142857142857</ele><time>2026-04-04T14:44:21.001Z</time></trkpt><trkpt lat="43.89742424229864" lon="4.485054533191605"><ele>106.0</ele><time>2026-04-04T14:44:23.001Z</time></trkpt><trkpt lat="43.897469811140596" lon="4.485149614758074"><ele>106.00000000000001</ele><time>2026-04-04T14:44:25.001Z</time></trkpt><trkpt lat="43.89748520616251" lon="4.485305665118148"><ele>106.0</ele><time>2026-04-04T14:44:27.001Z</time></trkpt><trkpt lat="43.89750670394342" lon="4.485428805402934"><ele>106.0</ele><time>2026-04-04T14:44:29.001Z</time></trkpt><trkpt lat="43.89752615156039" lon="4.485541742761666"><ele>106.0</ele><time>2026-04-04T14:44:33.001Z</time></trkpt><trkpt lat="43.89757071863322" lon="4.485610212967785"><ele>106.00000000000001</ele><time>2026-04-04T14:44:37.001Z</time></trkpt><trkpt lat="43.897580046722595" lon="4.485523287030335"><ele>106.0</ele><time>2026-04-04T14:45:26Z</time></trkpt><trkpt lat="43.897635311406695" lon="4.485592720799877"><ele>108.33333333333334</ele><time>2026-04-04T14:45:35Z</time></trkpt><trkpt lat="43.897684571158464" lon="4.4856748429527515"><ele>110.66666666666667</ele><time>2026-04-04T14:45:43Z</time></trkpt><trkpt lat="43.89772244670347" lon="4.485750606028908"><ele>113.0</ele><time>2026-04-04T14:45:46Z</time></trkpt><trkpt lat="43.897745040524256" lon="4.485842513013066"><ele>115.33333333333334</ele><time>2026-04-04T14:45:48Z</time></trkpt><trkpt lat="43.89777593939072" lon="4.485950556038048"><ele>117.66666666666667</ele><time>2026-04-04T14:45:50Z</time></trkpt><trkpt lat="43.89781777046962" lon="4.486053119183897"><ele>120.0</ele><time>2026-04-04T14:45:52Z</time></trkpt><trkpt lat="43.897881959452086" lon="4.486165904532416"><ele>120.6</ele><time>2026-04-04T14:45:54Z</time></trkpt><trkpt lat="43.89795127277259" lon="4.4862987986725935"><ele>121.2</ele><time>2026-04-04T14:45:56Z</time></trkpt><trkpt lat="43.89801158547113" lon="4.486424171071536"><ele>121.80000000000001</ele><time>2026-04-04T14:45:58Z</time></trkpt><trkpt lat="43.89806317109383" lon="4.486526580352569"><ele>122.4</ele><time>2026-04-04T14:46:00Z</time></trkpt><trkpt lat="43.89811045940903" lon="4.48661893373782"><ele>123.0</ele><time>2026-04-04T14:46:02Z</time></trkpt><trkpt lat="43.898179889952566" lon="4.486695148342069"><ele>123.0</ele><time>2026-04-04T14:46:04Z</time></trkpt><trkpt lat="43.898255994273846" lon="4.486791116315173"><ele>123.0</ele><time>2026-04-04T14:46:06Z</time></trkpt><trkpt lat="43.898307994376125" lon="4.486854892064746"><ele>123.0</ele><time>2026-04-04T14:46:07Z</time></trkpt><trkpt lat="43.89836880611365" lon="4.486915276242041"><ele>123.0</ele><time>2026-04-04T14:46:08Z</time></trkpt><trkpt lat="43.8984549957573" lon="4.487017791649874"><ele>123.0</ele><time>2026-04-04T14:46:10Z</time></trkpt><trkpt lat="43.898515028750104" lon="4.487092577052275"><ele>123.0</ele><time>2026-04-04T14:46:33Z</time></trkpt><trkpt lat="43.89860082235144" lon="4.487144871736047"><ele>123.66666666666667</ele><time>2026-04-04T14:46:35Z</time></trkpt><trkpt lat="43.89866376176506" lon="4.48717023129852"><ele>124.33333333333334</ele><time>2026-04-04T14:46:36Z</time></trkpt><trkpt lat="43.898732232373774" lon="4.487197982462294"><ele>125.0</ele><time>2026-04-04T14:46:37.001Z</time></trkpt><trkpt lat="43.89881036696609" lon="4.487241992031824"><ele>125.66666666666667</ele><time>2026-04-04T14:46:38.001Z</time></trkpt><trkpt lat="43.898889322863205" lon="4.487288159328941"><ele>126.33333333333334</ele><time>2026-04-04T14:46:39.001Z</time></trkpt><trkpt lat="43.89897071967727" lon="4.487327328878648"><ele>127.0</ele><time>2026-04-04T14:46:40.001Z</time></trkpt><trkpt lat="43.89907175406425" lon="4.487374237099817"><ele>127.0</ele><time>2026-04-04T14:46:41.001Z</time></trkpt><trkpt lat="43.89920936199566" lon="4.487406518899729"><ele>126.99999999999999</ele><time>2026-04-04T14:46:42.001Z</time></trkpt><trkpt lat="43.899310478528584" lon="4.487457937896344"><ele>126.99999999999999</ele><time>2026-04-04T14:46:43.001Z</time></trkpt><trkpt lat="43.89939595993965" lon="4.4875116775356085"><ele>127.0</ele><time>2026-04-04T14:46:44.001Z</time></trkpt><trkpt lat="43.89948580943408" lon="4.487567607714023"><ele>127.0</ele><time>2026-04-04T14:46:45.001Z</time></trkpt><trkpt lat="43.899560847862844" lon="4.487607695459391"><ele>127.50000000000001</ele><time>2026-04-04T14:46:46.001Z</time></trkpt><trkpt lat="43.89962906694696" lon="4.487642489720512"><ele>128.0</ele><time>2026-04-04T14:46:47.001Z</time></trkpt><trkpt lat="43.8996900138065" lon="4.487676345564694"><ele>128.5</ele><time>2026-04-04T14:46:48.001Z</time></trkpt><trkpt lat="43.8997922246531" lon="4.487715809440628"><ele>129.0</ele><time>2026-04-04T14:46:50.001Z</time></trkpt><trkpt lat="43.89987485959255" lon="4.487773341310225"><ele>129.5</ele><time>2026-04-04T14:46:52.001Z</time></trkpt><trkpt lat="43.899977214601016" lon="4.4878327697656175"><ele>130.0</ele><time>2026-04-04T14:46:54.001Z</time></trkpt><trkpt lat="43.90008601175303" lon="4.487875571077676"><ele>129.6</ele><time>2026-04-04T14:46:56.001Z</time></trkpt><trkpt lat="43.900158449002824" lon="4.487967644653551"><ele>129.2</ele><time>2026-04-04T14:46:58.001Z</time></trkpt><trkpt lat="43.90022078724816" lon="4.488009642199927"><ele>128.8</ele><time>2026-04-04T14:47:01.001Z</time></trkpt><trkpt lat="43.90032030726814" lon="4.488014506442346"><ele>128.4</ele><time>2026-04-04T14:47:18.001Z</time></trkpt><trkpt lat="43.90045115253148" lon="4.487983414525886"><ele>128.0</ele><time>2026-04-04T14:47:21.001Z</time></trkpt><trkpt lat="43.90054479980258" lon="4.487945443552411"><ele>128.0</ele><time>2026-04-04T14:47:23.001Z</time></trkpt><trkpt lat="43.90068060220777" lon="4.487928980725087"><ele>128.0</ele><time>2026-04-04T14:47:25.001Z</time></trkpt><trkpt lat="43.90075148052639" lon="4.487952412492645"><ele>128.0</ele><time>2026-04-04T14:47:26.001Z</time></trkpt><trkpt lat="43.90086137139977" lon="4.4879350785703345"><ele>128.0</ele><time>2026-04-04T14:47:28Z</time></trkpt><trkpt lat="43.90092658382746" lon="4.487926942316832"><ele>128.0</ele><time>2026-04-04T14:47:29Z</time></trkpt><trkpt lat="43.90099969271326" lon="4.487922941158084"><ele>128.0</ele><time>2026-04-04T14:47:30Z</time></trkpt><trkpt lat="43.901080747770465" lon="4.487926608502092"><ele>128.0</ele><time>2026-04-04T14:47:31Z</time></trkpt><trkpt lat="43.90115407180591" lon="4.487941504104382"><ele>128.0</ele><time>2026-04-04T14:47:32Z</time></trkpt><trkpt lat="43.901232004230145" lon="4.487967079540489"><ele>128.0</ele><time>2026-04-04T14:47:33Z</time></trkpt><trkpt lat="43.901332000100226" lon="4.488054057746448"><ele>128.0</ele><time>2026-04-04T14:47:35Z</time></trkpt><trkpt lat="43.901431618048605" lon="4.488117127892788"><ele>128.4</ele><time>2026-04-04T14:47:37Z</time></trkpt><trkpt lat="43.90153439446538" lon="4.488117972171719"><ele>128.8</ele><time>2026-04-04T14:47:39Z</time></trkpt><trkpt lat="43.90160150394537" lon="4.488059179778335"><ele>129.2</ele><time>2026-04-04T14:47:41Z</time></trkpt><trkpt lat="43.90165378171326" lon="4.487960932319858"><ele>129.6</ele><time>2026-04-04T14:47:43Z</time></trkpt><trkpt lat="43.90175396832143" lon="4.487919762813753"><ele>130.0</ele><time>2026-04-04T14:47:45Z</time></trkpt><trkpt lat="43.90182647897974" lon="4.487948943868813"><ele>130.33333333333334</ele><time>2026-04-04T14:47:46Z</time></trkpt><trkpt lat="43.901907181628225" lon="4.487978817791531"><ele>130.66666666666669</ele><time>2026-04-04T14:47:47Z</time></trkpt><trkpt lat="43.90198624876807" lon="4.487993538320462"><ele>131.0</ele><time>2026-04-04T14:47:48Z</time></trkpt><trkpt lat="43.90207702902285" lon="4.488007641928177"><ele>131.33333333333334</ele><time>2026-04-04T14:47:49Z</time></trkpt><trkpt lat="43.90217026320377" lon="4.488024133986029"><ele>131.66666666666666</ele><time>2026-04-04T14:47:50Z</time></trkpt><trkpt lat="43.90225969373933" lon="4.488042555291888"><ele>132.0</ele><time>2026-04-04T14:47:51Z</time></trkpt><trkpt lat="43.902336715325326" lon="4.48804907150411"><ele>132.0</ele><time>2026-04-04T14:47:52Z</time></trkpt><trkpt lat="43.90242733365515" lon="4.488037798440569"><ele>132.0</ele><time>2026-04-04T14:47:53Z</time></trkpt><trkpt lat="43.90250941500737" lon="4.488010524937881"><ele>132.0</ele><time>2026-04-04T14:47:54Z</time></trkpt><trkpt lat="43.902569807541816" lon="4.487969950627115"><ele>132.0</ele><time>2026-04-04T14:47:55Z</time></trkpt><trkpt lat="43.90262608721107" lon="4.487908668959714"><ele>132.0</ele><time>2026-04-04T14:47:56Z</time></trkpt><trkpt lat="43.90267471728352" lon="4.48785002978194"><ele>132.0</ele><time>2026-04-04T14:47:57Z</time></trkpt><trkpt lat="43.90276792724658" lon="4.487747258331244"><ele>131.5</ele><time>2026-04-04T14:47:59Z</time></trkpt><trkpt lat="43.90282968250741" lon="4.487708745431326"><ele>131.0</ele><time>2026-04-04T14:48:00Z</time></trkpt><trkpt lat="43.902905431768055" lon="4.487672493690274"><ele>130.5</ele><time>2026-04-04T14:48:01Z</time></trkpt><trkpt lat="43.90298720459307" lon="4.487644468275246"><ele>130.0</ele><time>2026-04-04T14:48:02Z</time></trkpt><trkpt lat="43.903057365440645" lon="4.487615555942127"><ele>129.5</ele><time>2026-04-04T14:48:03Z</time></trkpt><trkpt lat="43.90312645644607" lon="4.48758420552274"><ele>129.0</ele><time>2026-04-04T14:48:04Z</time></trkpt><trkpt lat="43.90319504130751" lon="4.487535337097684"><ele>129.0</ele><time>2026-04-04T14:48:05Z</time></trkpt><trkpt lat="43.90325903037311" lon="4.487497603240981"><ele>129.0</ele><time>2026-04-04T14:48:06Z</time></trkpt><trkpt lat="43.90332550983375" lon="4.487473872326029"><ele>129.0</ele><time>2026-04-04T14:48:07Z</time></trkpt><trkpt lat="43.90339066016942" lon="4.487458348370992"><ele>129.0</ele><time>2026-04-04T14:48:08Z</time></trkpt><trkpt lat="43.90349603567367" lon="4.487514959344093"><ele>129.0</ele><time>2026-04-04T14:48:10Z</time></trkpt><trkpt lat="43.90358234837201" lon="4.487519739459993"><ele>129.0</ele><time>2026-04-04T14:48:12Z</time></trkpt><trkpt lat="43.90365587055615" lon="4.487502036907128"><ele>129.5</ele><time>2026-04-04T14:48:14Z</time></trkpt><trkpt lat="43.903719277930016" lon="4.487484587764848"><ele>130.0</ele><time>2026-04-04T14:48:16Z</time></trkpt><trkpt lat="43.90378794125351" lon="4.4874961959956625"><ele>130.5</ele><time>2026-04-04T14:48:19Z</time></trkpt><trkpt lat="43.90385002845801" lon="4.4874606247147435"><ele>131.0</ele><time>2026-04-04T14:48:38Z</time></trkpt><trkpt lat="43.90385574464308" lon="4.48728070269901"><ele>131.5</ele><time>2026-04-04T14:48:40Z</time></trkpt><trkpt lat="43.903880080471325" lon="4.487164808127624"><ele>132.0</ele><time>2026-04-04T14:48:42Z</time></trkpt><trkpt lat="43.90397721345953" lon="4.487176496299563"><ele>132.0</ele><time>2026-04-04T14:48:44Z</time></trkpt><trkpt lat="43.904049736757" lon="4.487199070293297"><ele>132.0</ele><time>2026-04-04T14:48:45Z</time></trkpt><trkpt lat="43.90413071557254" lon="4.4872065280395885"><ele>132.0</ele><time>2026-04-04T14:48:46Z</time></trkpt><trkpt lat="43.90420167256739" lon="4.4872271672338915"><ele>132.0</ele><time>2026-04-04T14:48:47Z</time></trkpt><trkpt lat="43.904270052933725" lon="4.487241153711421"><ele>132.0</ele><time>2026-04-04T14:48:48Z</time></trkpt><trkpt lat="43.904335222649266" lon="4.487256399428452"><ele>132.0</ele><time>2026-04-04T14:48:49Z</time></trkpt><trkpt lat="43.90440069728631" lon="4.48727491497799"><ele>132.0</ele><time>2026-04-04T14:48:50Z</time></trkpt><trkpt lat="43.9044686470381" lon="4.4873007388579005"><ele>133.0</ele><time>2026-04-04T14:48:51Z</time></trkpt><trkpt lat="43.904534753876376" lon="4.48731399154971"><ele>134.0</ele><time>2026-04-04T14:48:52Z</time></trkpt><trkpt lat="43.90460331662036" lon="4.487311347846606"><ele>135.0</ele><time>2026-04-04T14:48:53Z</time></trkpt><trkpt lat="43.904666073810844" lon="4.487323507257071"><ele>136.0</ele><time>2026-04-04T14:48:54Z</time></trkpt><trkpt lat="43.90476434887658" lon="4.487319350335953"><ele>137.0</ele><time>2026-04-04T14:48:56Z</time></trkpt><trkpt lat="43.904893133956946" lon="4.487371711093026"><ele>138.0</ele><time>2026-04-04T14:48:58Z</time></trkpt><trkpt lat="43.904977161549375" lon="4.487376724585781"><ele>138.8</ele><time>2026-04-04T14:48:59Z</time></trkpt><trkpt lat="43.90509222234347" lon="4.487391820269916"><ele>139.60000000000002</ele><time>2026-04-04T14:49:01Z</time></trkpt><trkpt lat="43.905185473064385" lon="4.48732623811581"><ele>140.39999999999998</ele><time>2026-04-04T14:49:03Z</time></trkpt><trkpt lat="43.90529258470359" lon="4.4872936158049415"><ele>141.2</ele><time>2026-04-04T14:49:05.001Z</time></trkpt><trkpt lat="43.90537162491659" lon="4.487304151267255"><ele>142.0</ele><time>2026-04-04T14:49:06.001Z</time></trkpt><trkpt lat="43.90546836709727" lon="4.487353329926085"><ele>142.0</ele><time>2026-04-04T14:49:08.001Z</time></trkpt><trkpt lat="43.905563546703604" lon="4.48742535129984"><ele>142.0</ele><time>2026-04-04T14:49:10.001Z</time></trkpt><trkpt lat="43.90567994971446" lon="4.487454181617758"><ele>142.0</ele><time>2026-04-04T14:49:12.001Z</time></trkpt><trkpt lat="43.90574374397607" lon="4.487454274783474"><ele>142.0</ele><time>2026-04-04T14:49:13.001Z</time></trkpt><trkpt lat="43.905864655357675" lon="4.487369197928296"><ele>142.0</ele><time>2026-04-04T14:49:15.001Z</time></trkpt><trkpt lat="43.905927573321726" lon="4.487314548332908"><ele>143.2</ele><time>2026-04-04T14:49:16.001Z</time></trkpt><trkpt lat="43.90598728786978" lon="4.487262148688641"><ele>144.39999999999998</ele><time>2026-04-04T14:49:17.001Z</time></trkpt><trkpt lat="43.906076583390806" lon="4.4871802714936315"><ele>145.60000000000002</ele><time>2026-04-04T14:49:19.001Z</time></trkpt><trkpt lat="43.90619158765031" lon="4.4871594365107175"><ele>146.8</ele><time>2026-04-04T14:49:21.001Z</time></trkpt><trkpt lat="43.906259365518245" lon="4.487151046326248"><ele>148.0</ele><time>2026-04-04T14:49:22.001Z</time></trkpt><trkpt lat="43.90638619812651" lon="4.487134561929218"><ele>148.0</ele><time>2026-04-04T14:49:24.001Z</time></trkpt><trkpt lat="43.90645836477345" lon="4.48710779092674"><ele>148.0</ele><time>2026-04-04T14:49:25.001Z</time></trkpt><trkpt lat="43.90656197033508" lon="4.487084248469038"><ele>148.0</ele><time>2026-04-04T14:49:27.001Z</time></trkpt><trkpt lat="43.90665834984548" lon="4.487067293636438"><ele>148.0</ele><time>2026-04-04T14:49:29.001Z</time></trkpt><trkpt lat="43.90671847544734" lon="4.487117490949548"><ele>148.0</ele><time>2026-04-04T14:49:30.001Z</time></trkpt><trkpt lat="43.90678842107364" lon="4.487152937667671"><ele>148.0</ele><time>2026-04-04T14:49:31.001Z</time></trkpt><trkpt lat="43.90687272945622" lon="4.4872422231453895"><ele>148.4</ele><time>2026-04-04T14:49:33.001Z</time></trkpt><trkpt lat="43.90690135058734" lon="4.487360881624675"><ele>148.8</ele><time>2026-04-04T14:49:35.001Z</time></trkpt><trkpt lat="43.90698119206661" lon="4.487398781806096"><ele>149.2</ele><time>2026-04-04T14:49:37.001Z</time></trkpt><trkpt lat="43.90710790548031" lon="4.487438302026481"><ele>149.6</ele><time>2026-04-04T14:49:39.001Z</time></trkpt><trkpt lat="43.90717327589001" lon="4.487447197011438"><ele>150.0</ele><time>2026-04-04T14:49:40.001Z</time></trkpt><trkpt lat="43.90729163276399" lon="4.487500303442852"><ele>150.0</ele><time>2026-04-04T14:49:42.001Z</time></trkpt><trkpt lat="43.90739885442759" lon="4.487513557120006"><ele>150.0</ele><time>2026-04-04T14:49:44.001Z</time></trkpt><trkpt lat="43.907487523959645" lon="4.487614740328521"><ele>150.0</ele><time>2026-04-04T14:49:46.001Z</time></trkpt><trkpt lat="43.9075598116528" lon="4.487732302851977"><ele>150.0</ele><time>2026-04-04T14:49:48.001Z</time></trkpt><trkpt lat="43.90766917669696" lon="4.487757413796308"><ele>150.0</ele><time>2026-04-04T14:49:50.001Z</time></trkpt><trkpt lat="43.90773494696311" lon="4.48776214400451"><ele>150.5</ele><time>2026-04-04T14:49:51.001Z</time></trkpt><trkpt lat="43.90780288599245" lon="4.487760358502641"><ele>151.0</ele><time>2026-04-04T14:49:52.001Z</time></trkpt><trkpt lat="43.90787469380718" lon="4.487742426096951"><ele>151.5</ele><time>2026-04-04T14:49:53.001Z</time></trkpt><trkpt lat="43.90795318212666" lon="4.4877207432459745"><ele>152.0</ele><time>2026-04-04T14:49:54Z</time></trkpt><trkpt lat="43.90801920989133" lon="4.487729528620738"><ele>152.5</ele><time>2026-04-04T14:49:55Z</time></trkpt><trkpt lat="43.90810765889305" lon="4.487715221278729"><ele>153.0</ele><time>2026-04-04T14:49:57Z</time></trkpt><trkpt lat="43.90813585330288" lon="4.487588614535935"><ele>153.0</ele><time>2026-04-04T14:50:28Z</time></trkpt><trkpt lat="43.90805797839228" lon="4.487550718923639"><ele>153.0</ele><time>2026-04-04T14:50:31Z</time></trkpt><trkpt lat="43.90796810688658" lon="4.487543159962419"><ele>153.0</ele><time>2026-04-04T14:50:34Z</time></trkpt><trkpt lat="43.90789243655555" lon="4.4874950713915105"><ele>153.0</ele><time>2026-04-04T14:50:37Z</time></trkpt><trkpt lat="43.90780697247332" lon="4.487451616260621"><ele>153.0</ele><time>2026-04-04T14:50:39Z</time></trkpt><trkpt lat="43.907752085134675" lon="4.487325029726331"><ele>153.0</ele><time>2026-04-04T14:50:41.001Z</time></trkpt><trkpt lat="43.90768493608825" lon="4.487214233147993"><ele>153.0</ele><time>2026-04-04T14:50:43.001Z</time></trkpt><trkpt lat="43.907647775844815" lon="4.487083912733507"><ele>153.0</ele><time>2026-04-04T14:50:46.001Z</time></trkpt><trkpt lat="43.90762904773081" lon="4.486975065519024"><ele>153.0</ele><time>2026-04-04T14:50:48.001Z</time></trkpt><trkpt lat="43.90762142904884" lon="4.486876196348075"><ele>153.0</ele><time>2026-04-04T14:50:50.001Z</time></trkpt><trkpt lat="43.90762682287972" lon="4.486779435547949"><ele>153.0</ele><time>2026-04-04T14:50:52.001Z</time></trkpt><trkpt lat="43.907703255774294" lon="4.486710428126295"><ele>154.4</ele><time>2026-04-04T14:50:54.001Z</time></trkpt><trkpt lat="43.907795092093444" lon="4.486681789503754"><ele>155.8</ele><time>2026-04-04T14:50:56.001Z</time></trkpt><trkpt lat="43.90788411670053" lon="4.486619942315581"><ele>157.2</ele><time>2026-04-04T14:50:58.001Z</time></trkpt><trkpt lat="43.907993716825764" lon="4.4866249030674155"><ele>158.6</ele><time>2026-04-04T14:51:00.001Z</time></trkpt><trkpt lat="43.908109516401765" lon="4.486606343246689"><ele>160.0</ele><time>2026-04-04T14:51:02.001Z</time></trkpt><trkpt lat="43.908171024265286" lon="4.4865844219296624"><ele>160.0</ele><time>2026-04-04T14:51:03.001Z</time></trkpt><trkpt lat="43.908234616268814" lon="4.486566242104833"><ele>160.0</ele><time>2026-04-04T14:51:04.001Z</time></trkpt><trkpt lat="43.90830365393428" lon="4.48655183850854"><ele>160.0</ele><time>2026-04-04T14:51:05.001Z</time></trkpt><trkpt lat="43.9083833780415" lon="4.486547263497801"><ele>160.0</ele><time>2026-04-04T14:51:06.001Z</time></trkpt><trkpt lat="43.90845483149161" lon="4.4865777652645065"><ele>160.0</ele><time>2026-04-04T14:51:07.001Z</time></trkpt><trkpt lat="43.90852415296167" lon="4.486601425561532"><ele>160.0</ele><time>2026-04-04T14:51:08.001Z</time></trkpt><trkpt lat="43.90863332174023" lon="4.486577245482288"><ele>161.0</ele><time>2026-04-04T14:51:10.001Z</time></trkpt><trkpt lat="43.90869178005512" lon="4.486527263261636"><ele>162.0</ele><time>2026-04-04T14:51:11.001Z</time></trkpt><trkpt lat="43.90875684566634" lon="4.486478062670297"><ele>163.0</ele><time>2026-04-04T14:51:12.001Z</time></trkpt><trkpt lat="43.908826201669015" lon="4.486434993120195"><ele>164.0</ele><time>2026-04-04T14:51:13.001Z</time></trkpt><trkpt lat="43.90888992298399" lon="4.486396778107377"><ele>165.0</ele><time>2026-04-04T14:51:14.001Z</time></trkpt><trkpt lat="43.90901056193462" lon="4.486379701192315"><ele>166.0</ele><time>2026-04-04T14:51:16.001Z</time></trkpt><trkpt lat="43.90907728083143" lon="4.486377716956465"><ele>166.0</ele><time>2026-04-04T14:51:17.001Z</time></trkpt><trkpt lat="43.9091538994133" lon="4.486354821984586"><ele>166.0</ele><time>2026-04-04T14:51:18.001Z</time></trkpt><trkpt lat="43.90923029728616" lon="4.4863261210951295"><ele>166.0</ele><time>2026-04-04T14:51:19.001Z</time></trkpt><trkpt lat="43.90930351091873" lon="4.486296658610303"><ele>166.0</ele><time>2026-04-04T14:51:20.001Z</time></trkpt><trkpt lat="43.90940913244391" lon="4.486295838184454"><ele>166.0</ele><time>2026-04-04T14:51:22.001Z</time></trkpt><trkpt lat="43.909473953801076" lon="4.486308055991981"><ele>166.0</ele><time>2026-04-04T14:51:23.001Z</time></trkpt><trkpt lat="43.90955032232398" lon="4.486313035528069"><ele>167.16666666666669</ele><time>2026-04-04T14:51:24.001Z</time></trkpt><trkpt lat="43.90963166987856" lon="4.486301141796838"><ele>168.33333333333334</ele><time>2026-04-04T14:51:25.001Z</time></trkpt><trkpt lat="43.9097147701062" lon="4.486284727542475"><ele>169.5</ele><time>2026-04-04T14:51:26.001Z</time></trkpt><trkpt lat="43.90979669039032" lon="4.486287795801647"><ele>170.66666666666666</ele><time>2026-04-04T14:51:27.001Z</time></trkpt><trkpt lat="43.90986908639206" lon="4.486308862234954"><ele>171.83333333333331</ele><time>2026-04-04T14:51:28.001Z</time></trkpt><trkpt lat="43.90994781029017" lon="4.486347670356145"><ele>173.0</ele><time>2026-04-04T14:51:29.001Z</time></trkpt><trkpt lat="43.91001633888607" lon="4.486389106117081"><ele>174.16666666666666</ele><time>2026-04-04T14:51:30.001Z</time></trkpt><trkpt lat="43.91009729966381" lon="4.486447736629556"><ele>175.33333333333331</ele><time>2026-04-04T14:51:31.001Z</time></trkpt><trkpt lat="43.91016091525271" lon="4.486489478019415"><ele>176.5</ele><time>2026-04-04T14:51:32.001Z</time></trkpt><trkpt lat="43.910236614044365" lon="4.486505519981369"><ele>177.66666666666666</ele><time>2026-04-04T14:51:33.001Z</time></trkpt><trkpt lat="43.91031014418678" lon="4.48651636125176"><ele>178.83333333333334</ele><time>2026-04-04T14:51:34.001Z</time></trkpt><trkpt lat="43.9103897213872" lon="4.486514811046419"><ele>180.0</ele><time>2026-04-04T14:51:35.001Z</time></trkpt><trkpt lat="43.91047110729015" lon="4.486496929822066"><ele>180.0</ele><time>2026-04-04T14:51:36.001Z</time></trkpt><trkpt lat="43.910560453686145" lon="4.486499332465116"><ele>180.0</ele><time>2026-04-04T14:51:37.001Z</time></trkpt><trkpt lat="43.91064794830601" lon="4.48651846118621"><ele>180.0</ele><time>2026-04-04T14:51:38.001Z</time></trkpt><trkpt lat="43.91073393373382" lon="4.4865419909828645"><ele>180.0</ele><time>2026-04-04T14:51:39.001Z</time></trkpt><trkpt lat="43.9108291198547" lon="4.486558715749095"><ele>180.0</ele><time>2026-04-04T14:51:40.001Z</time></trkpt><trkpt lat="43.91092088554459" lon="4.4865628421806"><ele>181.2</ele><time>2026-04-04T14:51:41.001Z</time></trkpt><trkpt lat="43.91101753475151" lon="4.486568616944851"><ele>182.4</ele><time>2026-04-04T14:51:42.001Z</time></trkpt><trkpt lat="43.9111165613603" lon="4.486574857132702"><ele>183.60000000000002</ele><time>2026-04-04T14:51:43.001Z</time></trkpt><trkpt lat="43.91120138613408" lon="4.486586026859809"><ele>184.8</ele><time>2026-04-04T14:51:44.001Z</time></trkpt><trkpt lat="43.9112995773661" lon="4.486588954845431"><ele>186.0</ele><time>2026-04-04T14:51:45.001Z</time></trkpt><trkpt lat="43.911408653830534" lon="4.486587033497142"><ele>186.0</ele><time>2026-04-04T14:51:46.001Z</time></trkpt><trkpt lat="43.9114984833477" lon="4.486595665672868"><ele>186.0</ele><time>2026-04-04T14:51:47.001Z</time></trkpt><trkpt lat="43.91163388921774" lon="4.4866148057975055"><ele>186.0</ele><time>2026-04-04T14:51:49.001Z</time></trkpt><trkpt lat="43.91170409918103" lon="4.4866271643693425"><ele>186.0</ele><time>2026-04-04T14:51:50.001Z</time></trkpt><trkpt lat="43.91178984445053" lon="4.486632279596028"><ele>186.0</ele><time>2026-04-04T14:51:51.001Z</time></trkpt><trkpt lat="43.91187692190531" lon="4.486640537232833"><ele>186.60000000000002</ele><time>2026-04-04T14:51:52.001Z</time></trkpt><trkpt lat="43.911984240032375" lon="4.486645225093292"><ele>187.2</ele><time>2026-04-04T14:51:53.001Z</time></trkpt><trkpt lat="43.91209359700649" lon="4.486648515678441"><ele>187.8</ele><time>2026-04-04T14:51:54.001Z</time></trkpt><trkpt lat="43.91220290167722" lon="4.486651387367745"><ele>188.39999999999998</ele><time>2026-04-04T14:51:55.001Z</time></trkpt><trkpt lat="43.91231585781864" lon="4.486659979501241"><ele>189.0</ele><time>2026-04-04T14:51:56.001Z</time></trkpt><trkpt lat="43.91242670243415" lon="4.486670912126536"><ele>189.0</ele><time>2026-04-04T14:51:57.001Z</time></trkpt><trkpt lat="43.912525534886825" lon="4.486665869984786"><ele>189.0</ele><time>2026-04-04T14:51:58.001Z</time></trkpt><trkpt lat="43.912622587650425" lon="4.486643457561524"><ele>189.0</ele><time>2026-04-04T14:51:59Z</time></trkpt><trkpt lat="43.91271877223961" lon="4.486623126945208"><ele>189.0</ele><time>2026-04-04T14:52:00Z</time></trkpt><trkpt lat="43.91282487804045" lon="4.486612453132537"><ele>189.0</ele><time>2026-04-04T14:52:01Z</time></trkpt><trkpt lat="43.912925384031034" lon="4.4866176796350965"><ele>189.6</ele><time>2026-04-04T14:52:02Z</time></trkpt><trkpt lat="43.913030819899994" lon="4.486587819430283"><ele>190.2</ele><time>2026-04-04T14:52:03Z</time></trkpt><trkpt lat="43.913135269655335" lon="4.486545295001818"><ele>190.79999999999998</ele><time>2026-04-04T14:52:04Z</time></trkpt><trkpt lat="43.91323775089761" lon="4.4865087766198775"><ele>191.39999999999998</ele><time>2026-04-04T14:52:05Z</time></trkpt><trkpt lat="43.91332826796987" lon="4.486493632247071"><ele>192.0</ele><time>2026-04-04T14:52:06Z</time></trkpt><trkpt lat="43.91344098375746" lon="4.486495182798584"><ele>192.8</ele><time>2026-04-04T14:52:07Z</time></trkpt><trkpt lat="43.913550485918854" lon="4.486506659489117"><ele>193.6</ele><time>2026-04-04T14:52:08Z</time></trkpt><trkpt lat="43.91364760218981" lon="4.486512880590031"><ele>194.4</ele><time>2026-04-04T14:52:09Z</time></trkpt><trkpt lat="43.913729080119204" lon="4.486535989554207"><ele>195.20000000000002</ele><time>2026-04-04T14:52:10Z</time></trkpt><trkpt lat="43.91385887529543" lon="4.486548387090814"><ele>196.0</ele><time>2026-04-04T14:52:11Z</time></trkpt><trkpt lat="43.91393940692405" lon="4.486584890719021"><ele>196.0</ele><time>2026-04-04T14:52:12Z</time></trkpt><trkpt lat="43.91404283033066" lon="4.486609994042387"><ele>196.0</ele><time>2026-04-04T14:52:13Z</time></trkpt><trkpt lat="43.914172103626655" lon="4.48661510690818"><ele>196.0</ele><time>2026-04-04T14:52:14Z</time></trkpt><trkpt lat="43.91428844347396" lon="4.486606209801201"><ele>196.0</ele><time>2026-04-04T14:52:15Z</time></trkpt><trkpt lat="43.91438415802472" lon="4.486588313311056"><ele>196.0</ele><time>2026-04-04T14:52:16Z</time></trkpt><trkpt lat="43.91449635539756" lon="4.486579212709085"><ele>196.49999999999997</ele><time>2026-04-04T14:52:17Z</time></trkpt><trkpt lat="43.914586517597044" lon="4.486581073106778"><ele>197.0</ele><time>2026-04-04T14:52:18Z</time></trkpt><trkpt lat="43.91466667956867" lon="4.48659082267832"><ele>197.5</ele><time>2026-04-04T14:52:19Z</time></trkpt><trkpt lat="43.91475211708422" lon="4.486603318620022"><ele>198.0</ele><time>2026-04-04T14:52:20Z</time></trkpt><trkpt lat="43.914824485797844" lon="4.48661857538257"><ele>198.49999999999997</ele><time>2026-04-04T14:52:21Z</time></trkpt><trkpt lat="43.91489270883178" lon="4.486634757459873"><ele>199.0</ele><time>2026-04-04T14:52:22Z</time></trkpt><trkpt lat="43.91496087380256" lon="4.486653119257929"><ele>198.99999999999997</ele><time>2026-04-04T14:52:23Z</time></trkpt><trkpt lat="43.91502452400644" lon="4.486684631527729"><ele>199.0</ele><time>2026-04-04T14:52:24Z</time></trkpt><trkpt lat="43.91509784777282" lon="4.486681933795165"><ele>199.0</ele><time>2026-04-04T14:52:25Z</time></trkpt><trkpt lat="43.915190599885946" lon="4.48669189399991"><ele>199.0</ele><time>2026-04-04T14:52:27Z</time></trkpt><trkpt lat="43.91528629997693" lon="4.486745153877562"><ele>198.99999999999997</ele><time>2026-04-04T14:52:29Z</time></trkpt><trkpt lat="43.91531902950232" lon="4.4868356123051045"><ele>199.0</ele><time>2026-04-04T14:52:31Z</time></trkpt><trkpt lat="43.915382105675924" lon="4.486880979413325"><ele>198.99999999999997</ele><time>2026-04-04T14:53:52Z</time></trkpt><trkpt lat="43.91547098502493" lon="4.486849801826593"><ele>199.0</ele><time>2026-04-04T14:53:54Z</time></trkpt><trkpt lat="43.91558151354886" lon="4.486781208175296"><ele>199.0</ele><time>2026-04-04T14:53:56Z</time></trkpt><trkpt lat="43.915651666039025" lon="4.486758909253741"><ele>199.0</ele><time>2026-04-04T14:53:57Z</time></trkpt><trkpt lat="43.915727056584565" lon="4.486735349821689"><ele>198.99999999999997</ele><time>2026-04-04T14:53:58Z</time></trkpt><trkpt lat="43.915801813898334" lon="4.486706011088123"><ele>199.0</ele><time>2026-04-04T14:53:59Z</time></trkpt><trkpt lat="43.915866306226086" lon="4.486669986090777"><ele>198.85714285714283</ele><time>2026-04-04T14:54:00Z</time></trkpt><trkpt lat="43.915925498716135" lon="4.486626223365021"><ele>198.71428571428572</ele><time>2026-04-04T14:54:01Z</time></trkpt><trkpt lat="43.91600533723524" lon="4.486568489341632"><ele>198.57142857142856</ele><time>2026-04-04T14:54:03Z</time></trkpt><trkpt lat="43.91606808326731" lon="4.486517961305974"><ele>198.42857142857142</ele><time>2026-04-04T14:54:05Z</time></trkpt><trkpt lat="43.91611436337607" lon="4.48645469713647"><ele>198.28571428571428</ele><time>2026-04-04T14:54:07Z</time></trkpt><trkpt lat="43.916161010045386" lon="4.486393778687371"><ele>198.14285714285714</ele><time>2026-04-04T14:54:09Z</time></trkpt><trkpt lat="43.91621555312464" lon="4.486302292873687"><ele>198.0</ele><time>2026-04-04T14:54:12Z</time></trkpt><trkpt lat="43.91625956388803" lon="4.486197077595492"><ele>198.0</ele><time>2026-04-04T14:54:16Z</time></trkpt><trkpt lat="43.916334572457664" lon="4.4861366105508145"><ele>198.0</ele><time>2026-04-04T14:54:19Z</time></trkpt><trkpt lat="43.91640848556166" lon="4.486135822599452"><ele>198.0</ele><time>2026-04-04T14:54:22Z</time></trkpt><trkpt lat="43.91644827341829" lon="4.486224519234254"><ele>198.0</ele><time>2026-04-04T14:54:26Z</time></trkpt><trkpt lat="43.91640530551401" lon="4.4862930940473476"><ele>198.0</ele><time>2026-04-04T14:54:28Z</time></trkpt><trkpt lat="43.91631232915689" lon="4.486343130709092"><ele>198.0</ele><time>2026-04-04T14:54:30Z</time></trkpt><trkpt lat="43.91619305790239" lon="4.486361822644278"><ele>198.16666666666666</ele><time>2026-04-04T14:54:32Z</time></trkpt><trkpt lat="43.916111451888796" lon="4.486452364817022"><ele>198.33333333333331</ele><time>2026-04-04T14:54:34Z</time></trkpt><trkpt lat="43.91605605301403" lon="4.486507441171754"><ele>198.5</ele><time>2026-04-04T14:54:35Z</time></trkpt><trkpt lat="43.915996869997024" lon="4.486588631922713"><ele>198.66666666666666</ele><time>2026-04-04T14:54:36Z</time></trkpt><trkpt lat="43.915924217030806" lon="4.486649827924721"><ele>198.83333333333331</ele><time>2026-04-04T14:54:37Z</time></trkpt><trkpt lat="43.91584265815733" lon="4.486686891516973"><ele>199.0</ele><time>2026-04-04T14:54:38Z</time></trkpt><trkpt lat="43.91577290584719" lon="4.486719769774025"><ele>198.99999999999997</ele><time>2026-04-04T14:54:39Z</time></trkpt><trkpt lat="43.91569460708197" lon="4.486759922970313"><ele>199.0</ele><time>2026-04-04T14:54:40Z</time></trkpt><trkpt lat="43.91562427527934" lon="4.48678972334558"><ele>199.0</ele><time>2026-04-04T14:54:41Z</time></trkpt><trkpt lat="43.91555533623061" lon="4.4868114328007795"><ele>199.0</ele><time>2026-04-04T14:54:42Z</time></trkpt><trkpt lat="43.91548635701313" lon="4.486822492804903"><ele>199.0</ele><time>2026-04-04T14:54:43Z</time></trkpt><trkpt lat="43.91542059533164" lon="4.486838271214593"><ele>198.99999999999997</ele><time>2026-04-04T14:54:44Z</time></trkpt><trkpt lat="43.91535867708003" lon="4.486872769295474"><ele>199.0</ele><time>2026-04-04T14:54:45Z</time></trkpt><trkpt lat="43.915303939204684" lon="4.486939586040612"><ele>198.99999999999997</ele><time>2026-04-04T14:54:46Z</time></trkpt><trkpt lat="43.915252578291046" lon="4.487033672928155"><ele>199.0</ele><time>2026-04-04T14:54:47Z</time></trkpt><trkpt lat="43.91519977435112" lon="4.487120465802621"><ele>199.0</ele><time>2026-04-04T14:54:48Z</time></trkpt><trkpt lat="43.91514513547065" lon="4.487207198917089"><ele>199.0</ele><time>2026-04-04T14:54:49Z</time></trkpt><trkpt lat="43.9150915743356" lon="4.487278962944749"><ele>198.99999999999997</ele><time>2026-04-04T14:54:50Z</time></trkpt><trkpt lat="43.91502676422697" lon="4.487362618116816"><ele>199.0</ele><time>2026-04-04T14:54:51Z</time></trkpt><trkpt lat="43.91494474020051" lon="4.487441336178715"><ele>198.79999999999998</ele><time>2026-04-04T14:54:52Z</time></trkpt><trkpt lat="43.91485747880903" lon="4.487533931455715"><ele>198.6</ele><time>2026-04-04T14:54:53Z</time></trkpt><trkpt lat="43.914776146770485" lon="4.487615723030024"><ele>198.4</ele><time>2026-04-04T14:54:54Z</time></trkpt><trkpt lat="43.91469942258291" lon="4.487694293265839"><ele>198.2</ele><time>2026-04-04T14:54:55Z</time></trkpt><trkpt lat="43.91462310890031" lon="4.487769871058477"><ele>198.0</ele><time>2026-04-04T14:54:56Z</time></trkpt><trkpt lat="43.91455363884978" lon="4.48783762453251"><ele>198.0</ele><time>2026-04-04T14:54:57Z</time></trkpt><trkpt lat="43.914490481093154" lon="4.487907788037068"><ele>198.0</ele><time>2026-04-04T14:54:58Z</time></trkpt><trkpt lat="43.914434727937824" lon="4.487981365390083"><ele>198.0</ele><time>2026-04-04T14:54:59Z</time></trkpt><trkpt lat="43.91438185430252" lon="4.488062356002169"><ele>198.0</ele><time>2026-04-04T14:55:00Z</time></trkpt><trkpt lat="43.91433023890036" lon="4.488142517781035"><ele>198.0</ele><time>2026-04-04T14:55:01Z</time></trkpt><trkpt lat="43.91427979364447" lon="4.488223729785009"><ele>198.0</ele><time>2026-04-04T14:55:02Z</time></trkpt><trkpt lat="43.914227484100095" lon="4.488299104056369"><ele>197.33333333333334</ele><time>2026-04-04T14:55:03Z</time></trkpt><trkpt lat="43.914171887579585" lon="4.4883811159981075"><ele>196.66666666666669</ele><time>2026-04-04T14:55:04Z</time></trkpt><trkpt lat="43.91410868098375" lon="4.48846338670171"><ele>196.0</ele><time>2026-04-04T14:55:05Z</time></trkpt><trkpt lat="43.91404650088508" lon="4.488536410908461"><ele>195.33333333333334</ele><time>2026-04-04T14:55:06Z</time></trkpt><trkpt lat="43.91398503714499" lon="4.488609540240965"><ele>194.66666666666669</ele><time>2026-04-04T14:55:07Z</time></trkpt><trkpt lat="43.91391277925927" lon="4.488706246912557"><ele>194.0</ele><time>2026-04-04T14:55:08Z</time></trkpt><trkpt lat="43.91384218518532" lon="4.488794568025445"><ele>193.79999999999998</ele><time>2026-04-04T14:55:09Z</time></trkpt><trkpt lat="43.91377186693545" lon="4.488878588331484"><ele>193.6</ele><time>2026-04-04T14:55:10Z</time></trkpt><trkpt lat="43.91369472387727" lon="4.488968674792633"><ele>193.4</ele><time>2026-04-04T14:55:11Z</time></trkpt><trkpt lat="43.91362572443503" lon="4.489047387872504"><ele>193.2</ele><time>2026-04-04T14:55:12Z</time></trkpt><trkpt lat="43.913549524608484" lon="4.4891410016678055"><ele>193.0</ele><time>2026-04-04T14:55:13Z</time></trkpt><trkpt lat="43.913481987812446" lon="4.489227578403063"><ele>192.99999999999997</ele><time>2026-04-04T14:55:14Z</time></trkpt><trkpt lat="43.91341007913215" lon="4.489314981141413"><ele>193.0</ele><time>2026-04-04T14:55:15Z</time></trkpt><trkpt lat="43.913344983988544" lon="4.489398925655506"><ele>193.0</ele><time>2026-04-04T14:55:16Z</time></trkpt><trkpt lat="43.91328622277984" lon="4.489476878138679"><ele>193.0</ele><time>2026-04-04T14:55:17Z</time></trkpt><trkpt lat="43.91322775693406" lon="4.489555323237936"><ele>192.99999999999997</ele><time>2026-04-04T14:55:18Z</time></trkpt><trkpt lat="43.913177626192265" lon="4.489617142960129"><ele>193.0</ele><time>2026-04-04T14:55:19Z</time></trkpt><trkpt lat="43.913122155565915" lon="4.489669286355599"><ele>191.83333333333331</ele><time>2026-04-04T14:55:20Z</time></trkpt><trkpt lat="43.91306057657723" lon="4.489703425286492"><ele>190.66666666666666</ele><time>2026-04-04T14:55:21Z</time></trkpt><trkpt lat="43.9129943109084" lon="4.489717894241063"><ele>189.5</ele><time>2026-04-04T14:55:22Z</time></trkpt><trkpt lat="43.912932286990404" lon="4.489701912143028"><ele>188.33333333333331</ele><time>2026-04-04T14:55:23Z</time></trkpt><trkpt lat="43.91282735729029" lon="4.489670821411734"><ele>187.16666666666666</ele><time>2026-04-04T14:55:25Z</time></trkpt><trkpt lat="43.91271803316501" lon="4.489706565286383"><ele>186.0</ele><time>2026-04-04T14:55:27Z</time></trkpt><trkpt lat="43.91261360226734" lon="4.489703813251961"><ele>185.20000000000002</ele><time>2026-04-04T14:55:29Z</time></trkpt><trkpt lat="43.91249734589278" lon="4.489675937652987"><ele>184.4</ele><time>2026-04-04T14:55:31Z</time></trkpt><trkpt lat="43.91239323450976" lon="4.489707307280057"><ele>183.6</ele><time>2026-04-04T14:55:33Z</time></trkpt><trkpt lat="43.912350236402425" lon="4.4897829405329235"><ele>182.8</ele><time>2026-04-04T14:55:35Z</time></trkpt><trkpt lat="43.912368854892875" lon="4.489945833043542"><ele>182.0</ele><time>2026-04-04T14:55:37Z</time></trkpt><trkpt lat="43.912403549974655" lon="4.490024317647122"><ele>182.0</ele><time>2026-04-04T14:55:38Z</time></trkpt><trkpt lat="43.912438125339996" lon="4.490113607653347"><ele>182.0</ele><time>2026-04-04T14:55:39Z</time></trkpt><trkpt lat="43.91244491372989" lon="4.490207146805186"><ele>182.0</ele><time>2026-04-04T14:55:40Z</time></trkpt><trkpt lat="43.91244852884799" lon="4.490309656376869"><ele>182.0</ele><time>2026-04-04T14:55:41Z</time></trkpt><trkpt lat="43.91245428493875" lon="4.490421507217017"><ele>182.0</ele><time>2026-04-04T14:55:42Z</time></trkpt><trkpt lat="43.91246732245574" lon="4.490535913620533"><ele>182.0</ele><time>2026-04-04T14:55:43Z</time></trkpt><trkpt lat="43.91250066804323" lon="4.490651190705672"><ele>182.2</ele><time>2026-04-04T14:55:44Z</time></trkpt><trkpt lat="43.912527726119976" lon="4.490765507174077"><ele>182.39999999999998</ele><time>2026-04-04T14:55:45Z</time></trkpt><trkpt lat="43.91253339649414" lon="4.490917848210492"><ele>182.60000000000002</ele><time>2026-04-04T14:55:47Z</time></trkpt><trkpt lat="43.912471323808546" lon="4.491018061574159"><ele>182.8</ele><time>2026-04-04T14:55:49Z</time></trkpt><trkpt lat="43.912411276255035" lon="4.491103409351759"><ele>183.0</ele><time>2026-04-04T14:55:50.999Z</time></trkpt><trkpt lat="43.91243051841024" lon="4.49120929767848"><ele>183.0</ele><time>2026-04-04T14:55:52.999Z</time></trkpt><trkpt lat="43.912433404855356" lon="4.491361065111349"><ele>183.0</ele><time>2026-04-04T14:55:54.999Z</time></trkpt><trkpt lat="43.91246479679119" lon="4.491452768067479"><ele>183.0</ele><time>2026-04-04T14:56:02.999Z</time></trkpt><trkpt lat="43.91253555587028" lon="4.491545780585462"><ele>183.0</ele><time>2026-04-04T14:56:04.999Z</time></trkpt><trkpt lat="43.91261239940998" lon="4.491660118192659"><ele>183.0</ele><time>2026-04-04T14:56:06.999Z</time></trkpt><trkpt lat="43.9126578152385" lon="4.491731111639167"><ele>183.8</ele><time>2026-04-04T14:56:07.999Z</time></trkpt><trkpt lat="43.912761163667106" lon="4.4917769016289535"><ele>184.60000000000002</ele><time>2026-04-04T14:56:09.999Z</time></trkpt><trkpt lat="43.912853422587006" lon="4.491786350026463"><ele>185.39999999999998</ele><time>2026-04-04T14:56:11.999Z</time></trkpt><trkpt lat="43.912905875631814" lon="4.491913402249867"><ele>186.2</ele><time>2026-04-04T14:56:13.999Z</time></trkpt><trkpt lat="43.91292696316993" lon="4.492078430164409"><ele>187.0</ele><time>2026-04-04T14:56:16Z</time></trkpt><trkpt lat="43.912913395267886" lon="4.4921682179670865"><ele>187.0</ele><time>2026-04-04T14:56:17Z</time></trkpt><trkpt lat="43.91286582151447" lon="4.492275040909071"><ele>187.0</ele><time>2026-04-04T14:56:19Z</time></trkpt><trkpt lat="43.91277726241415" lon="4.492313984913772"><ele>187.0</ele><time>2026-04-04T14:56:21Z</time></trkpt><trkpt lat="43.91271802916385" lon="4.492374521096125"><ele>187.0</ele><time>2026-04-04T14:56:23Z</time></trkpt><trkpt lat="43.912663824200145" lon="4.492492683254467"><ele>187.0</ele><time>2026-04-04T14:56:26Z</time></trkpt><trkpt lat="43.912605811298924" lon="4.492532739277088"><ele>187.0</ele><time>2026-04-04T14:56:28Z</time></trkpt><trkpt lat="43.912542283392185" lon="4.4926022472909635"><ele>186.0</ele><time>2026-04-04T14:56:30Z</time></trkpt><trkpt lat="43.912544707072016" lon="4.492786313407565"><ele>185.0</ele><time>2026-04-04T14:56:32Z</time></trkpt><trkpt lat="43.91255580514791" lon="4.492883351959093"><ele>184.0</ele><time>2026-04-04T14:56:33Z</time></trkpt><trkpt lat="43.91254669875448" lon="4.493039242350183"><ele>183.0</ele><time>2026-04-04T14:56:35Z</time></trkpt><trkpt lat="43.91251803929958" lon="4.4931801516997325"><ele>182.0</ele><time>2026-04-04T14:56:37Z</time></trkpt><trkpt lat="43.912482949999614" lon="4.49325738867493"><ele>181.83333333333331</ele><time>2026-04-04T14:56:39Z</time></trkpt><trkpt lat="43.912429886960005" lon="4.49334537609722"><ele>181.66666666666666</ele><time>2026-04-04T14:56:42Z</time></trkpt><trkpt lat="43.91236391172622" lon="4.493416305116976"><ele>181.5</ele><time>2026-04-04T14:56:45Z</time></trkpt><trkpt lat="43.912326300457906" lon="4.493486614632203"><ele>181.33333333333334</ele><time>2026-04-04T14:56:47Z</time></trkpt><trkpt lat="43.912281707783144" lon="4.49357208076073"><ele>181.16666666666669</ele><time>2026-04-04T14:56:49Z</time></trkpt><trkpt lat="43.912219293411496" lon="4.493653393310159"><ele>181.0</ele><time>2026-04-04T14:56:51Z</time></trkpt><trkpt lat="43.912142710934106" lon="4.493714729983115"><ele>181.0</ele><time>2026-04-04T14:56:53Z</time></trkpt><trkpt lat="43.9120625896032" lon="4.493781127648466"><ele>181.0</ele><time>2026-04-04T14:56:55Z</time></trkpt><trkpt lat="43.911996407314255" lon="4.493843941432591"><ele>181.0</ele><time>2026-04-04T14:56:57Z</time></trkpt><trkpt lat="43.91192891585391" lon="4.493915943006952"><ele>181.0</ele><time>2026-04-04T14:57:00Z</time></trkpt><trkpt lat="43.91186659644529" lon="4.493982363275543"><ele>181.0</ele><time>2026-04-04T14:57:03Z</time></trkpt><trkpt lat="43.91182362485625" lon="4.494047476862732"><ele>181.0</ele><time>2026-04-04T14:57:05Z</time></trkpt><trkpt lat="43.91174985204593" lon="4.494147347496143"><ele>180.5</ele><time>2026-04-04T14:57:07Z</time></trkpt><trkpt lat="43.91170251043422" lon="4.494205900220352"><ele>180.0</ele><time>2026-04-04T14:57:08Z</time></trkpt><trkpt lat="43.911648816046885" lon="4.494262252473999"><ele>179.5</ele><time>2026-04-04T14:57:09Z</time></trkpt><trkpt lat="43.91158126032575" lon="4.494321879225008"><ele>179.0</ele><time>2026-04-04T14:57:10Z</time></trkpt><trkpt lat="43.91151133626686" lon="4.494381050875835"><ele>178.5</ele><time>2026-04-04T14:57:11Z</time></trkpt><trkpt lat="43.911442116818144" lon="4.494445884908816"><ele>178.0</ele><time>2026-04-04T14:57:12Z</time></trkpt><trkpt lat="43.91136499415829" lon="4.4945112987346265"><ele>178.0</ele><time>2026-04-04T14:57:13Z</time></trkpt><trkpt lat="43.91129611514994" lon="4.494583067168776"><ele>178.0</ele><time>2026-04-04T14:57:14Z</time></trkpt><trkpt lat="43.91123677539104" lon="4.494663148594076"><ele>178.0</ele><time>2026-04-04T14:57:15Z</time></trkpt><trkpt lat="43.91117641143995" lon="4.49472544582474"><ele>178.0</ele><time>2026-04-04T14:57:16Z</time></trkpt><trkpt lat="43.911084913525265" lon="4.494808289991143"><ele>178.0</ele><time>2026-04-04T14:57:18Z</time></trkpt><trkpt lat="43.91101655690232" lon="4.494873605340622"><ele>178.0</ele><time>2026-04-04T14:57:20Z</time></trkpt><trkpt lat="43.91100612654653" lon="4.495014080532853"><ele>178.0</ele><time>2026-04-04T14:57:22Z</time></trkpt><trkpt lat="43.91103576483089" lon="4.495092025383243"><ele>178.0</ele><time>2026-04-04T14:57:23Z</time></trkpt><trkpt lat="43.91108916045754" lon="4.49521329625689"><ele>178.0</ele><time>2026-04-04T14:57:25Z</time></trkpt><trkpt lat="43.91114311671343" lon="4.495334315871534"><ele>178.0</ele><time>2026-04-04T14:57:27Z</time></trkpt><trkpt lat="43.91120129784253" lon="4.495481920586601"><ele>178.0</ele><time>2026-04-04T14:57:29Z</time></trkpt><trkpt lat="43.9112261002006" lon="4.495606628599061"><ele>178.0</ele><time>2026-04-04T14:57:31Z</time></trkpt><trkpt lat="43.911207550936695" lon="4.495748277079569"><ele>178.0</ele><time>2026-04-04T14:57:33Z</time></trkpt><trkpt lat="43.91120598636279" lon="4.495889199397385"><ele>178.0</ele><time>2026-04-04T14:57:35Z</time></trkpt><trkpt lat="43.911206574610254" lon="4.495992983486182"><ele>178.0</ele><time>2026-04-04T14:57:36Z</time></trkpt><trkpt lat="43.91120497464754" lon="4.496084458251405"><ele>178.0</ele><time>2026-04-04T14:57:37Z</time></trkpt><trkpt lat="43.91120289295496" lon="4.496266855868738"><ele>177.66666666666669</ele><time>2026-04-04T14:57:39Z</time></trkpt><trkpt lat="43.911228122501875" lon="4.4963985801607755"><ele>177.33333333333334</ele><time>2026-04-04T14:57:40Z</time></trkpt><trkpt lat="43.91127191160656" lon="4.496511604423705"><ele>177.0</ele><time>2026-04-04T14:57:41Z</time></trkpt><trkpt lat="43.91131202236784" lon="4.496620016798527"><ele>176.66666666666666</ele><time>2026-04-04T14:57:42Z</time></trkpt><trkpt lat="43.91133335682267" lon="4.496718968151355"><ele>176.33333333333331</ele><time>2026-04-04T14:57:43Z</time></trkpt><trkpt lat="43.91137387019859" lon="4.496834699782605"><ele>176.0</ele><time>2026-04-04T14:57:45Z</time></trkpt><trkpt lat="43.91145088157015" lon="4.496795789886434"><ele>176.0</ele><time>2026-04-04T14:58:56Z</time></trkpt><trkpt lat="43.91150169581384" lon="4.496666560567469"><ele>176.0</ele><time>2026-04-04T14:58:58Z</time></trkpt><trkpt lat="43.91156008536633" lon="4.496561960403073"><ele>176.0</ele><time>2026-04-04T14:59:00Z</time></trkpt><trkpt lat="43.91162225820337" lon="4.496516887689098"><ele>176.0</ele><time>2026-04-04T14:59:02Z</time></trkpt><trkpt lat="43.9117098861897" lon="4.496494615920643"><ele>176.0</ele><time>2026-04-04T14:59:04Z</time></trkpt><trkpt lat="43.911791260342405" lon="4.496481403702038"><ele>176.0</ele><time>2026-04-04T14:59:06Z</time></trkpt><trkpt lat="43.91185941339574" lon="4.496485831948057"><ele>177.25</ele><time>2026-04-04T14:59:08Z</time></trkpt><trkpt lat="43.9119162907225" lon="4.496360945787673"><ele>178.5</ele><time>2026-04-04T14:59:10Z</time></trkpt><trkpt lat="43.911949053787566" lon="4.496214012199547"><ele>179.75</ele><time>2026-04-04T14:59:12Z</time></trkpt><trkpt lat="43.91200930264339" lon="4.496141667365404"><ele>181.0</ele><time>2026-04-04T14:59:14Z</time></trkpt><trkpt lat="43.91213350388193" lon="4.496269823728164"><ele>181.0</ele><time>2026-04-04T14:59:16Z</time></trkpt><trkpt lat="43.91223570086313" lon="4.496342614957696"><ele>181.0</ele><time>2026-04-04T14:59:18Z</time></trkpt><trkpt lat="43.91235279753655" lon="4.496373340194636"><ele>181.0</ele><time>2026-04-04T14:59:20Z</time></trkpt><trkpt lat="43.9124254576796" lon="4.496396050314604"><ele>181.0</ele><time>2026-04-04T14:59:21Z</time></trkpt><trkpt lat="43.91249608777692" lon="4.49641477415607"><ele>181.0</ele><time>2026-04-04T14:59:22Z</time></trkpt><trkpt lat="43.912566557201295" lon="4.496447327446786"><ele>181.8</ele><time>2026-04-04T14:59:23Z</time></trkpt><trkpt lat="43.91264165498542" lon="4.4964453932065345"><ele>182.60000000000002</ele><time>2026-04-04T14:59:24Z</time></trkpt><trkpt lat="43.91270083332196" lon="4.496403769699462"><ele>183.4</ele><time>2026-04-04T14:59:25Z</time></trkpt><trkpt lat="43.91279788908985" lon="4.496395977039692"><ele>184.2</ele><time>2026-04-04T14:59:27Z</time></trkpt><trkpt lat="43.91291316082259" lon="4.496428885798867"><ele>185.0</ele><time>2026-04-04T14:59:29Z</time></trkpt><trkpt lat="43.91302880959513" lon="4.49633884980022"><ele>185.0</ele><time>2026-04-04T14:59:31Z</time></trkpt><trkpt lat="43.9130661320994" lon="4.4962639724642885"><ele>185.0</ele><time>2026-04-04T14:59:32Z</time></trkpt><trkpt lat="43.91315095405942" lon="4.496221004492769"><ele>185.0</ele><time>2026-04-04T14:59:34Z</time></trkpt><trkpt lat="43.913249966395455" lon="4.496273117323197"><ele>185.0</ele><time>2026-04-04T14:59:36Z</time></trkpt><trkpt lat="43.91331301123266" lon="4.496288183629857"><ele>185.0</ele><time>2026-04-04T14:59:37Z</time></trkpt><trkpt lat="43.91338022645991" lon="4.496286646952131"><ele>185.0</ele><time>2026-04-04T14:59:38Z</time></trkpt><trkpt lat="43.91345239141356" lon="4.496251474246625"><ele>186.33333333333331</ele><time>2026-04-04T14:59:39Z</time></trkpt><trkpt lat="43.91351331592156" lon="4.496186289099236"><ele>187.66666666666666</ele><time>2026-04-04T14:59:40Z</time></trkpt><trkpt lat="43.91355846831713" lon="4.496100256649061"><ele>189.0</ele><time>2026-04-04T14:59:41Z</time></trkpt><trkpt lat="43.91359765953607" lon="4.49601153296809"><ele>190.33333333333331</ele><time>2026-04-04T14:59:42Z</time></trkpt><trkpt lat="43.91365229644522" lon="4.495956739375294"><ele>191.66666666666666</ele><time>2026-04-04T14:59:43Z</time></trkpt><trkpt lat="43.91375045615527" lon="4.4958934907470995"><ele>193.0</ele><time>2026-04-04T14:59:45Z</time></trkpt><trkpt lat="43.91381429174305" lon="4.495880851236645"><ele>192.99999999999997</ele><time>2026-04-04T14:59:46Z</time></trkpt><trkpt lat="43.91395093694818" lon="4.4959295889382105"><ele>193.0</ele><time>2026-04-04T14:59:48Z</time></trkpt><trkpt lat="43.91401939628989" lon="4.495956672865688"><ele>193.0</ele><time>2026-04-04T14:59:49Z</time></trkpt><trkpt lat="43.914085923775055" lon="4.4960015797572686"><ele>193.0</ele><time>2026-04-04T14:59:50Z</time></trkpt><trkpt lat="43.914147856541305" lon="4.496058303781374"><ele>192.99999999999997</ele><time>2026-04-04T14:59:51Z</time></trkpt><trkpt lat="43.9142102323934" lon="4.496126374792783"><ele>193.0</ele><time>2026-04-04T14:59:52Z</time></trkpt><trkpt lat="43.914276531739866" lon="4.496191637751924"><ele>193.33333333333331</ele><time>2026-04-04T14:59:53Z</time></trkpt><trkpt lat="43.9143539349635" lon="4.496257295273104"><ele>193.66666666666666</ele><time>2026-04-04T14:59:54Z</time></trkpt><trkpt lat="43.91443241609419" lon="4.4963031747086495"><ele>194.0</ele><time>2026-04-04T14:59:55Z</time></trkpt><trkpt lat="43.91451992385768" lon="4.496336088614061"><ele>194.33333333333331</ele><time>2026-04-04T14:59:56Z</time></trkpt><trkpt lat="43.914601417523016" lon="4.496390551536914"><ele>194.66666666666666</ele><time>2026-04-04T14:59:57Z</time></trkpt><trkpt lat="43.91467746907968" lon="4.496461100745262"><ele>195.0</ele><time>2026-04-04T14:59:58Z</time></trkpt><trkpt lat="43.91475681047018" lon="4.496537599689582"><ele>195.0</ele><time>2026-04-04T14:59:59Z</time></trkpt><trkpt lat="43.91482867442508" lon="4.496623975091888"><ele>195.0</ele><time>2026-04-04T15:00:00Z</time></trkpt><trkpt lat="43.91490573860257" lon="4.496711408301082"><ele>195.0</ele><time>2026-04-04T15:00:01Z</time></trkpt><trkpt lat="43.9149782022489" lon="4.496810749597942"><ele>195.0</ele><time>2026-04-04T15:00:02Z</time></trkpt><trkpt lat="43.9150475793822" lon="4.496926184082773"><ele>195.0</ele><time>2026-04-04T15:00:02.999Z</time></trkpt><trkpt lat="43.91511033409513" lon="4.4970287526402215"><ele>195.2</ele><time>2026-04-04T15:00:03.999Z</time></trkpt><trkpt lat="43.91517009005599" lon="4.497131078827229"><ele>195.4</ele><time>2026-04-04T15:00:04.999Z</time></trkpt><trkpt lat="43.915225931847715" lon="4.497232699711131"><ele>195.60000000000002</ele><time>2026-04-04T15:00:05.999Z</time></trkpt><trkpt lat="43.915274948927454" lon="4.497328200612747"><ele>195.8</ele><time>2026-04-04T15:00:06.999Z</time></trkpt><trkpt lat="43.9153348353086" lon="4.497437054453307"><ele>196.0</ele><time>2026-04-04T15:00:07.999Z</time></trkpt><trkpt lat="43.91540453452226" lon="4.497498143392912"><ele>196.0</ele><time>2026-04-04T15:00:08.999Z</time></trkpt><trkpt lat="43.915485553591296" lon="4.497543875002641"><ele>196.0</ele><time>2026-04-04T15:00:09.999Z</time></trkpt><trkpt lat="43.91555531713397" lon="4.497607734409398"><ele>196.0</ele><time>2026-04-04T15:00:10.999Z</time></trkpt><trkpt lat="43.91562969574319" lon="4.497738700672256"><ele>196.0</ele><time>2026-04-04T15:00:12.999Z</time></trkpt><trkpt lat="43.91567094048384" lon="4.497807640918469"><ele>196.0</ele><time>2026-04-04T15:00:13.999Z</time></trkpt><trkpt lat="43.91573874608981" lon="4.497916564901894"><ele>195.99999999999997</ele><time>2026-04-04T15:00:15.999Z</time></trkpt><trkpt lat="43.915773907453726" lon="4.497994492724415"><ele>196.0</ele><time>2026-04-04T15:00:17.999Z</time></trkpt><trkpt lat="43.915805921284566" lon="4.498110516591328"><ele>196.0</ele><time>2026-04-04T15:00:21Z</time></trkpt><trkpt lat="43.91591594285601" lon="4.498203857088362"><ele>196.0</ele><time>2026-04-04T15:00:23Z</time></trkpt><trkpt lat="43.91597079290187" lon="4.498267789376184"><ele>195.99999999999997</ele><time>2026-04-04T15:00:24Z</time></trkpt><trkpt lat="43.91603385947062" lon="4.498327338938549"><ele>196.0</ele><time>2026-04-04T15:00:25Z</time></trkpt><trkpt lat="43.91609097271656" lon="4.49839276987057"><ele>196.49999999999997</ele><time>2026-04-04T15:00:26Z</time></trkpt><trkpt lat="43.91615416959607" lon="4.498462972650444"><ele>197.0</ele><time>2026-04-04T15:00:27Z</time></trkpt><trkpt lat="43.91622478509817" lon="4.4985312773054895"><ele>197.5</ele><time>2026-04-04T15:00:28Z</time></trkpt><trkpt lat="43.91629719894709" lon="4.49860355424912"><ele>198.0</ele><time>2026-04-04T15:00:29Z</time></trkpt><trkpt lat="43.9163534016614" lon="4.498660880736863"><ele>198.49999999999997</ele><time>2026-04-04T15:00:30Z</time></trkpt><trkpt lat="43.9164158366864" lon="4.498712265121928"><ele>199.0</ele><time>2026-04-04T15:00:32Z</time></trkpt><trkpt lat="43.91645912690543" lon="4.498778724440166"><ele>199.0</ele><time>2026-04-04T15:00:35Z</time></trkpt><trkpt lat="43.9165506056418" lon="4.498727120758687"><ele>199.0</ele><time>2026-04-04T15:00:37Z</time></trkpt><trkpt lat="43.9166661517413" lon="4.4986820849499445"><ele>199.0</ele><time>2026-04-04T15:00:39Z</time></trkpt><trkpt lat="43.916743401359895" lon="4.498663019973055"><ele>199.0</ele><time>2026-04-04T15:00:40Z</time></trkpt><trkpt lat="43.91682931241839" lon="4.4986553624602355"><ele>199.0</ele><time>2026-04-04T15:00:41Z</time></trkpt><trkpt lat="43.91690587191126" lon="4.498639951593781"><ele>199.66666666666666</ele><time>2026-04-04T15:00:42Z</time></trkpt><trkpt lat="43.9169747549573" lon="4.498620487908813"><ele>200.33333333333331</ele><time>2026-04-04T15:00:43Z</time></trkpt><trkpt lat="43.91706361304367" lon="4.498595822126163"><ele>201.0</ele><time>2026-04-04T15:00:45Z</time></trkpt><trkpt lat="43.91717216971929" lon="4.498551570935027"><ele>201.66666666666669</ele><time>2026-04-04T15:00:47Z</time></trkpt><trkpt lat="43.917239196320686" lon="4.498535658997089"><ele>202.33333333333334</ele><time>2026-04-04T15:00:48Z</time></trkpt><trkpt lat="43.917314308606706" lon="4.498500704960032"><ele>203.0</ele><time>2026-04-04T15:00:49Z</time></trkpt><trkpt lat="43.91739900898472" lon="4.498445466029176"><ele>203.0</ele><time>2026-04-04T15:00:50Z</time></trkpt><trkpt lat="43.917489452586295" lon="4.498391284643262"><ele>203.0</ele><time>2026-04-04T15:00:51Z</time></trkpt><trkpt lat="43.91758925785594" lon="4.498336090246027"><ele>203.0</ele><time>2026-04-04T15:00:52Z</time></trkpt><trkpt lat="43.91769845987386" lon="4.498286674253342"><ele>203.0</ele><time>2026-04-04T15:00:53Z</time></trkpt><trkpt lat="43.91780256306683" lon="4.498222076371607"><ele>203.0</ele><time>2026-04-04T15:00:54Z</time></trkpt><trkpt lat="43.91791225223141" lon="4.498160338652494"><ele>203.4</ele><time>2026-04-04T15:00:55Z</time></trkpt><trkpt lat="43.9180193890568" lon="4.498085719609885"><ele>203.8</ele><time>2026-04-04T15:00:56Z</time></trkpt><trkpt lat="43.91812539501713" lon="4.498037226253584"><ele>204.2</ele><time>2026-04-04T15:00:57Z</time></trkpt><trkpt lat="43.91821138124057" lon="4.4979942573994585"><ele>204.6</ele><time>2026-04-04T15:00:58Z</time></trkpt><trkpt lat="43.918296967058566" lon="4.497943115471307"><ele>205.0</ele><time>2026-04-04T15:00:59Z</time></trkpt><trkpt lat="43.91837595754284" lon="4.497893250409246"><ele>205.2</ele><time>2026-04-04T15:01:00Z</time></trkpt><trkpt lat="43.9184553046798" lon="4.49784249196445"><ele>205.4</ele><time>2026-04-04T15:01:01Z</time></trkpt><trkpt lat="43.91852172744373" lon="4.497782761558228"><ele>205.60000000000002</ele><time>2026-04-04T15:01:02Z</time></trkpt><trkpt lat="43.91859239908555" lon="4.497696510039964"><ele>205.8</ele><time>2026-04-04T15:01:03Z</time></trkpt><trkpt lat="43.91866287691562" lon="4.497582074958504"><ele>206.0</ele><time>2026-04-04T15:01:04Z</time></trkpt><trkpt lat="43.918732269069466" lon="4.497476539854993"><ele>206.0</ele><time>2026-04-04T15:01:05Z</time></trkpt><trkpt lat="43.918789244740104" lon="4.497391393740367"><ele>206.0</ele><time>2026-04-04T15:01:06Z</time></trkpt><trkpt lat="43.918849608066616" lon="4.497310543470364"><ele>206.0</ele><time>2026-04-04T15:01:07Z</time></trkpt><trkpt lat="43.91890874746226" lon="4.497220274488907"><ele>206.0</ele><time>2026-04-04T15:01:08Z</time></trkpt><trkpt lat="43.918999715558584" lon="4.497152059285269"><ele>206.0</ele><time>2026-04-04T15:01:09Z</time></trkpt><trkpt lat="43.91908557060773" lon="4.497044710141535"><ele>206.25</ele><time>2026-04-04T15:01:10Z</time></trkpt><trkpt lat="43.91918367780088" lon="4.496960266441032"><ele>206.5</ele><time>2026-04-04T15:01:11Z</time></trkpt><trkpt lat="43.919297211786095" lon="4.496879496464785"><ele>206.75</ele><time>2026-04-04T15:01:12Z</time></trkpt><trkpt lat="43.91940456739263" lon="4.49679461538866"><ele>207.0</ele><time>2026-04-04T15:01:13Z</time></trkpt><trkpt lat="43.91949919043431" lon="4.496724176883263"><ele>207.16666666666666</ele><time>2026-04-04T15:01:14Z</time></trkpt><trkpt lat="43.919577768360334" lon="4.496683593489043"><ele>207.33333333333331</ele><time>2026-04-04T15:01:15Z</time></trkpt><trkpt lat="43.919633333314515" lon="4.496638659213989"><ele>207.5</ele><time>2026-04-04T15:01:16Z</time></trkpt><trkpt lat="43.9197061652111" lon="4.496599239155739"><ele>207.66666666666666</ele><time>2026-04-04T15:01:18Z</time></trkpt><trkpt lat="43.91975802936522" lon="4.496538630341476"><ele>207.83333333333331</ele><time>2026-04-04T15:01:20Z</time></trkpt><trkpt lat="43.91984320881094" lon="4.4964659696214895"><ele>208.0</ele><time>2026-04-04T15:01:22Z</time></trkpt><trkpt lat="43.919916591541714" lon="4.49640803458901"><ele>207.99999999999997</ele><time>2026-04-04T15:01:24Z</time></trkpt><trkpt lat="43.919988242307745" lon="4.496508927695097"><ele>208.0</ele><time>2026-04-04T15:01:26Z</time></trkpt><trkpt lat="43.919939735255255" lon="4.496656432341237"><ele>208.0</ele><time>2026-04-04T15:01:28Z</time></trkpt><trkpt lat="43.91992147456917" lon="4.496748733098663"><ele>208.0</ele><time>2026-04-04T15:01:29Z</time></trkpt><trkpt lat="43.91990140054125" lon="4.49684222305211"><ele>207.99999999999997</ele><time>2026-04-04T15:01:30Z</time></trkpt><trkpt lat="43.919892519289895" lon="4.496945037704271"><ele>208.0</ele><time>2026-04-04T15:01:32Z</time></trkpt><trkpt lat="43.91986158855167" lon="4.497036888345845"><ele>207.75</ele><time>2026-04-04T15:01:36Z</time></trkpt><trkpt lat="43.91984673241991" lon="4.4971708496168485"><ele>207.5</ele><time>2026-04-04T15:01:38Z</time></trkpt><trkpt lat="43.919830434742885" lon="4.49731780966104"><ele>207.25</ele><time>2026-04-04T15:01:40Z</time></trkpt><trkpt lat="43.91967038574167" lon="4.497386936596328"><ele>207.0</ele><time>2026-04-04T15:01:41Z</time></trkpt><trkpt lat="43.91960461708435" lon="4.497473745866123"><ele>207.0</ele><time>2026-04-04T15:01:42Z</time></trkpt><trkpt lat="43.919545154967714" lon="4.497555747134307"><ele>207.0</ele><time>2026-04-04T15:01:43Z</time></trkpt><trkpt lat="43.91948767447272" lon="4.497616179718105"><ele>207.0</ele><time>2026-04-04T15:01:44Z</time></trkpt><trkpt lat="43.919409656021294" lon="4.497732545986021"><ele>207.0</ele><time>2026-04-04T15:01:46Z</time></trkpt><trkpt lat="43.919388046490994" lon="4.49782893271117"><ele>207.0</ele><time>2026-04-04T15:01:47Z</time></trkpt><trkpt lat="43.919365797753294" lon="4.497943566225978"><ele>207.0</ele><time>2026-04-04T15:01:48Z</time></trkpt><trkpt lat="43.91933892180526" lon="4.498061295275714"><ele>207.0</ele><time>2026-04-04T15:01:49Z</time></trkpt><trkpt lat="43.91932864405622" lon="4.498168804599444"><ele>207.0</ele><time>2026-04-04T15:01:50Z</time></trkpt><trkpt lat="43.91927399408309" lon="4.498332519366707"><ele>207.0</ele><time>2026-04-04T15:01:52Z</time></trkpt><trkpt lat="43.91922728263087" lon="4.4984091277063545"><ele>207.0</ele><time>2026-04-04T15:01:53Z</time></trkpt><trkpt lat="43.91917739448517" lon="4.498494822718282"><ele>207.0</ele><time>2026-04-04T15:01:54Z</time></trkpt><trkpt lat="43.919150389979116" lon="4.498595228323928"><ele>207.0</ele><time>2026-04-04T15:01:55Z</time></trkpt><trkpt lat="43.919149900228916" lon="4.498690277128843"><ele>206.5</ele><time>2026-04-04T15:01:56Z</time></trkpt><trkpt lat="43.91909190024132" lon="4.498799085535544"><ele>206.0</ele><time>2026-04-04T15:01:58Z</time></trkpt><trkpt lat="43.91896526255497" lon="4.498807599292571"><ele>205.5</ele><time>2026-04-04T15:02:00Z</time></trkpt><trkpt lat="43.91888876384276" lon="4.498826008687575"><ele>205.0</ele><time>2026-04-04T15:02:01Z</time></trkpt><trkpt lat="43.91881691172742" lon="4.498847653871932"><ele>204.5</ele><time>2026-04-04T15:02:02Z</time></trkpt><trkpt lat="43.91874856531969" lon="4.4988665630112115"><ele>204.0</ele><time>2026-04-04T15:02:03Z</time></trkpt><trkpt lat="43.91868667388233" lon="4.498905092681562"><ele>204.0</ele><time>2026-04-04T15:02:04.001Z</time></trkpt><trkpt lat="43.91862670519266" lon="4.498940162599633"><ele>204.0</ele><time>2026-04-04T15:02:05.001Z</time></trkpt><trkpt lat="43.91856682759437" lon="4.498975184247259"><ele>204.0</ele><time>2026-04-04T15:02:06.001Z</time></trkpt><trkpt lat="43.91850898836025" lon="4.4990143173200945"><ele>204.0</ele><time>2026-04-04T15:02:07.001Z</time></trkpt><trkpt lat="43.91844341125101" lon="4.4990683312186555"><ele>204.0</ele><time>2026-04-04T15:02:08.001Z</time></trkpt><trkpt lat="43.91832952967366" lon="4.499134870940913"><ele>204.0</ele><time>2026-04-04T15:02:10Z</time></trkpt><trkpt lat="43.91822387496761" lon="4.499216343365519"><ele>203.79999999999998</ele><time>2026-04-04T15:02:12Z</time></trkpt><trkpt lat="43.91814384790301" lon="4.4993283708767375"><ele>203.6</ele><time>2026-04-04T15:02:14Z</time></trkpt><trkpt lat="43.9180771098686" lon="4.499454469627365"><ele>203.4</ele><time>2026-04-04T15:02:16Z</time></trkpt><trkpt lat="43.91795008387293" lon="4.499468035777266"><ele>203.2</ele><time>2026-04-04T15:02:18Z</time></trkpt><trkpt lat="43.91788353600023" lon="4.499443156552502"><ele>203.0</ele><time>2026-04-04T15:02:19Z</time></trkpt><trkpt lat="43.91782183176694" lon="4.499417285574515"><ele>203.0</ele><time>2026-04-04T15:02:20Z</time></trkpt><trkpt lat="43.91770583591876" lon="4.499446667212385"><ele>203.0</ele><time>2026-04-04T15:02:22Z</time></trkpt><trkpt lat="43.91764112541637" lon="4.499480489828878"><ele>203.0</ele><time>2026-04-04T15:02:23Z</time></trkpt><trkpt lat="43.91750759859936" lon="4.499457945197046"><ele>203.0</ele><time>2026-04-04T15:02:25Z</time></trkpt><trkpt lat="43.917436667283134" lon="4.499388232124879"><ele>203.0</ele><time>2026-04-04T15:02:26Z</time></trkpt><trkpt lat="43.91735527989511" lon="4.499306589729406"><ele>202.85714285714286</ele><time>2026-04-04T15:02:27Z</time></trkpt><trkpt lat="43.91729690024641" lon="4.499261490645827"><ele>202.71428571428572</ele><time>2026-04-04T15:02:28Z</time></trkpt><trkpt lat="43.917243194711105" lon="4.499204609413901"><ele>202.57142857142856</ele><time>2026-04-04T15:02:29Z</time></trkpt><trkpt lat="43.91718162193533" lon="4.499180872461175"><ele>202.42857142857144</ele><time>2026-04-04T15:02:30Z</time></trkpt><trkpt lat="43.91710784687514" lon="4.499148696768903"><ele>202.28571428571428</ele><time>2026-04-04T15:02:31Z</time></trkpt><trkpt lat="43.917024688885476" lon="4.49914601045783"><ele>202.14285714285714</ele><time>2026-04-04T15:02:32Z</time></trkpt><trkpt lat="43.916955887784255" lon="4.499156100483643"><ele>202.0</ele><time>2026-04-04T15:02:33Z</time></trkpt><trkpt lat="43.91686163427157" lon="4.499147443918455"><ele>201.99999999999997</ele><time>2026-04-04T15:02:35Z</time></trkpt><trkpt lat="43.91678613033794" lon="4.499135001357291"><ele>202.0</ele><time>2026-04-04T15:02:37Z</time></trkpt><trkpt lat="43.916704780081794" lon="4.4991261762234025"><ele>202.0</ele><time>2026-04-04T15:02:39Z</time></trkpt><trkpt lat="43.91667223404853" lon="4.499217016057227"><ele>202.0</ele><time>2026-04-04T15:02:43Z</time></trkpt><trkpt lat="43.91667087602613" lon="4.499344385621031"><ele>201.99999999999997</ele><time>2026-04-04T15:02:46Z</time></trkpt><trkpt lat="43.91667425386091" lon="4.499486702656307"><ele>202.0</ele><time>2026-04-04T15:02:48Z</time></trkpt><trkpt lat="43.916689919794834" lon="4.499572525043571"><ele>201.83333333333331</ele><time>2026-04-04T15:02:49Z</time></trkpt><trkpt lat="43.916716795638834" lon="4.499702942006005"><ele>201.66666666666666</ele><time>2026-04-04T15:02:51Z</time></trkpt><trkpt lat="43.91675454108308" lon="4.499779860991117"><ele>201.5</ele><time>2026-04-04T15:03:33.001Z</time></trkpt><trkpt lat="43.916799667866485" lon="4.4998505544351985"><ele>201.33333333333331</ele><time>2026-04-04T15:03:38.001Z</time></trkpt><trkpt lat="43.91685466290467" lon="4.499928369670896"><ele>201.16666666666666</ele><time>2026-04-04T15:03:40.001Z</time></trkpt><trkpt lat="43.91692031750756" lon="4.499983213521603"><ele>201.0</ele><time>2026-04-04T15:03:41.001Z</time></trkpt><trkpt lat="43.916991591195995" lon="4.500053177909496"><ele>201.0</ele><time>2026-04-04T15:03:42.001Z</time></trkpt><trkpt lat="43.917078709465535" lon="4.500123807604714"><ele>201.0</ele><time>2026-04-04T15:03:43.001Z</time></trkpt><trkpt lat="43.917158762817614" lon="4.500197601591295"><ele>201.0</ele><time>2026-04-04T15:03:44.001Z</time></trkpt><trkpt lat="43.9172588545521" lon="4.500270012901473"><ele>201.0</ele><time>2026-04-04T15:03:45.001Z</time></trkpt><trkpt lat="43.917346910192165" lon="4.500336125152252"><ele>201.0</ele><time>2026-04-04T15:03:46.001Z</time></trkpt><trkpt lat="43.91742458604647" lon="4.500402419220934"><ele>201.0</ele><time>2026-04-04T15:03:47.001Z</time></trkpt><trkpt lat="43.91749178016352" lon="4.500485692233768"><ele>201.0</ele><time>2026-04-04T15:03:48.001Z</time></trkpt><trkpt lat="43.91756425792284" lon="4.500549680972567"><ele>201.0</ele><time>2026-04-04T15:03:49.001Z</time></trkpt><trkpt lat="43.91764127717806" lon="4.500613166718366"><ele>201.0</ele><time>2026-04-04T15:03:50.001Z</time></trkpt><trkpt lat="43.91771600194895" lon="4.500687003205249"><ele>201.0</ele><time>2026-04-04T15:03:51.001Z</time></trkpt><trkpt lat="43.91780083479837" lon="4.500764351287397"><ele>200.8</ele><time>2026-04-04T15:03:52.001Z</time></trkpt><trkpt lat="43.91787635419856" lon="4.50085608329843"><ele>200.60000000000002</ele><time>2026-04-04T15:03:53.001Z</time></trkpt><trkpt lat="43.91796057604626" lon="4.500941338648773"><ele>200.4</ele><time>2026-04-04T15:03:54.001Z</time></trkpt><trkpt lat="43.918036666026524" lon="4.501016571547489"><ele>200.2</ele><time>2026-04-04T15:03:55.001Z</time></trkpt><trkpt lat="43.91810932313083" lon="4.5010860186601"><ele>200.0</ele><time>2026-04-04T15:03:56.001Z</time></trkpt><trkpt lat="43.91818042544061" lon="4.501145298353504"><ele>200.00000000000003</ele><time>2026-04-04T15:03:57.001Z</time></trkpt><trkpt lat="43.918250850138605" lon="4.501208109946744"><ele>200.0</ele><time>2026-04-04T15:03:58.001Z</time></trkpt><trkpt lat="43.918316134280055" lon="4.501270409658423"><ele>200.0</ele><time>2026-04-04T15:03:59.001Z</time></trkpt><trkpt lat="43.918384489744525" lon="4.501330849183183"><ele>200.0</ele><time>2026-04-04T15:04:00.001Z</time></trkpt><trkpt lat="43.91844347477228" lon="4.501390666464439"><ele>200.00000000000003</ele><time>2026-04-04T15:04:01.001Z</time></trkpt><trkpt lat="43.91850278975495" lon="4.5014492230663965"><ele>200.0</ele><time>2026-04-04T15:04:02.001Z</time></trkpt><trkpt lat="43.918561434602324" lon="4.501505333879714"><ele>199.66666666666669</ele><time>2026-04-04T15:04:03.001Z</time></trkpt><trkpt lat="43.91861598016966" lon="4.501558490932718"><ele>199.33333333333334</ele><time>2026-04-04T15:04:04.001Z</time></trkpt><trkpt lat="43.91867058109179" lon="4.501608441122892"><ele>199.0</ele><time>2026-04-04T15:04:05.001Z</time></trkpt><trkpt lat="43.91872612247899" lon="4.501660944757018"><ele>198.66666666666669</ele><time>2026-04-04T15:04:06.001Z</time></trkpt><trkpt lat="43.91877566218233" lon="4.501716331611182"><ele>198.33333333333334</ele><time>2026-04-04T15:04:07.001Z</time></trkpt><trkpt lat="43.918824372346776" lon="4.501777500465145"><ele>198.0</ele><time>2026-04-04T15:04:08.001Z</time></trkpt><trkpt lat="43.91890054546969" lon="4.501923333178768"><ele>198.0</ele><time>2026-04-04T15:04:10.001Z</time></trkpt><trkpt lat="43.918933556896455" lon="4.50202160576344"><ele>198.0</ele><time>2026-04-04T15:04:11.001Z</time></trkpt><trkpt lat="43.91896195315272" lon="4.5021329957089895"><ele>198.0</ele><time>2026-04-04T15:04:12.001Z</time></trkpt><trkpt lat="43.9189689876562" lon="4.50223771755957"><ele>198.0</ele><time>2026-04-04T15:04:13.001Z</time></trkpt><trkpt lat="43.91898892198679" lon="4.50233193936225"><ele>198.0</ele><time>2026-04-04T15:04:14.001Z</time></trkpt><trkpt lat="43.919008406893795" lon="4.502422214188855"><ele>198.0</ele><time>2026-04-04T15:04:15.001Z</time></trkpt><trkpt lat="43.91902695541313" lon="4.50250815067529"><ele>198.0</ele><time>2026-04-04T15:04:16.001Z</time></trkpt><trkpt lat="43.91906052587006" lon="4.502656530306822"><ele>198.0</ele><time>2026-04-04T15:04:18.001Z</time></trkpt><trkpt lat="43.91910353937691" lon="4.502814470787573"><ele>198.0</ele><time>2026-04-04T15:04:20.001Z</time></trkpt><trkpt lat="43.919174852461694" lon="4.502931818533641"><ele>198.0</ele><time>2026-04-04T15:04:22.001Z</time></trkpt><trkpt lat="43.9192052318901" lon="4.5030085473642165"><ele>198.0</ele><time>2026-04-04T15:04:23.001Z</time></trkpt><trkpt lat="43.91924817852906" lon="4.503100728939915"><ele>198.0</ele><time>2026-04-04T15:04:24.001Z</time></trkpt><trkpt lat="43.91930288795138" lon="4.503177449212616"><ele>198.60000000000002</ele><time>2026-04-04T15:04:25.001Z</time></trkpt><trkpt lat="43.91937075156534" lon="4.503243364846593"><ele>199.20000000000002</ele><time>2026-04-04T15:04:26.001Z</time></trkpt><trkpt lat="43.91946870783449" lon="4.503347201078193"><ele>199.8</ele><time>2026-04-04T15:04:28.001Z</time></trkpt><trkpt lat="43.91958013249406" lon="4.503404939489273"><ele>200.4</ele><time>2026-04-04T15:04:30.001Z</time></trkpt><trkpt lat="43.91967198274398" lon="4.503462710625518"><ele>201.0</ele><time>2026-04-04T15:04:32.001Z</time></trkpt><trkpt lat="43.91974952560806" lon="4.503520381176228"><ele>201.0</ele><time>2026-04-04T15:04:34.001Z</time></trkpt><trkpt lat="43.919885258642516" lon="4.5033952243644775"><ele>201.0</ele><time>2026-04-04T15:04:36.001Z</time></trkpt><trkpt lat="43.91994688455591" lon="4.503346980149073"><ele>201.0</ele><time>2026-04-04T15:04:37.001Z</time></trkpt><trkpt lat="43.92001676303747" lon="4.503277424986073"><ele>201.0</ele><time>2026-04-04T15:04:38.001Z</time></trkpt><trkpt lat="43.92009382787273" lon="4.503187987144169"><ele>201.0</ele><time>2026-04-04T15:04:39.001Z</time></trkpt><trkpt lat="43.92018488862533" lon="4.503097801222829"><ele>201.20000000000002</ele><time>2026-04-04T15:04:40.001Z</time></trkpt><trkpt lat="43.92028163227724" lon="4.503005173054145"><ele>201.4</ele><time>2026-04-04T15:04:41.001Z</time></trkpt><trkpt lat="43.92036697049794" lon="4.502905108936601"><ele>201.6</ele><time>2026-04-04T15:04:42.001Z</time></trkpt><trkpt lat="43.92044346139724" lon="4.50281396779265"><ele>201.8</ele><time>2026-04-04T15:04:43.001Z</time></trkpt><trkpt lat="43.92051721918329" lon="4.502706872099355"><ele>202.0</ele><time>2026-04-04T15:04:44.001Z</time></trkpt><trkpt lat="43.920596679652526" lon="4.50258832472354"><ele>201.6</ele><time>2026-04-04T15:04:45.001Z</time></trkpt><trkpt lat="43.920667014644955" lon="4.502451779618641"><ele>201.2</ele><time>2026-04-04T15:04:46.001Z</time></trkpt><trkpt lat="43.920724609253426" lon="4.5023327362082695"><ele>200.8</ele><time>2026-04-04T15:04:47.001Z</time></trkpt><trkpt lat="43.92079520254797" lon="4.502223181255371"><ele>200.4</ele><time>2026-04-04T15:04:48.001Z</time></trkpt><trkpt lat="43.92084866474919" lon="4.5021050256729875"><ele>200.0</ele><time>2026-04-04T15:04:49.001Z</time></trkpt><trkpt lat="43.92090703938381" lon="4.502005765127309"><ele>200.00000000000003</ele><time>2026-04-04T15:04:50.001Z</time></trkpt><trkpt lat="43.920961754678" lon="4.5019142758516315"><ele>200.0</ele><time>2026-04-04T15:04:51.001Z</time></trkpt><trkpt lat="43.92102289905957" lon="4.501844769272007"><ele>200.0</ele><time>2026-04-04T15:04:52.001Z</time></trkpt><trkpt lat="43.92107157829941" lon="4.501759514235036"><ele>200.0</ele><time>2026-04-04T15:04:53.001Z</time></trkpt><trkpt lat="43.92110200280594" lon="4.501669547371855"><ele>200.00000000000003</ele><time>2026-04-04T15:04:54.001Z</time></trkpt><trkpt lat="43.92114437306154" lon="4.501589397165097"><ele>200.0</ele><time>2026-04-04T15:04:55.001Z</time></trkpt><trkpt lat="43.921188366899294" lon="4.50150357895085"><ele>200.00000000000003</ele><time>2026-04-04T15:04:56.001Z</time></trkpt><trkpt lat="43.92124555699651" lon="4.501437558080321"><ele>200.0</ele><time>2026-04-04T15:04:57.001Z</time></trkpt><trkpt lat="43.92128745528177" lon="4.501369496805278"><ele>200.0</ele><time>2026-04-04T15:04:58.001Z</time></trkpt><trkpt lat="43.92132022859761" lon="4.501285412024111"><ele>200.0</ele><time>2026-04-04T15:04:59.001Z</time></trkpt><trkpt lat="43.921373676907244" lon="4.50121735305575"><ele>200.00000000000003</ele><time>2026-04-04T15:05:00.001Z</time></trkpt><trkpt lat="43.921446009071516" lon="4.501142218519166"><ele>200.0</ele><time>2026-04-04T15:05:01.001Z</time></trkpt><trkpt lat="43.92150450169267" lon="4.501045332723949"><ele>200.0</ele><time>2026-04-04T15:05:02.001Z</time></trkpt><trkpt lat="43.92158432533823" lon="4.500970026170706"><ele>200.0</ele><time>2026-04-04T15:05:03.001Z</time></trkpt><trkpt lat="43.921666628049714" lon="4.500904066954727"><ele>200.0</ele><time>2026-04-04T15:05:04.001Z</time></trkpt><trkpt lat="43.92175365265311" lon="4.500826194772427"><ele>200.0</ele><time>2026-04-04T15:05:05.001Z</time></trkpt><trkpt lat="43.921846691816356" lon="4.500747646213097"><ele>200.0</ele><time>2026-04-04T15:05:06.001Z</time></trkpt><trkpt lat="43.92194404976493" lon="4.5006699930002645"><ele>199.6</ele><time>2026-04-04T15:05:07.001Z</time></trkpt><trkpt lat="43.922046115126676" lon="4.500588585132444"><ele>199.2</ele><time>2026-04-04T15:05:08.001Z</time></trkpt><trkpt lat="43.92213980908217" lon="4.50048780142508"><ele>198.8</ele><time>2026-04-04T15:05:09.001Z</time></trkpt><trkpt lat="43.922243353794485" lon="4.500427328526432"><ele>198.4</ele><time>2026-04-04T15:05:10.001Z</time></trkpt><trkpt lat="43.922311328462094" lon="4.500345258865552"><ele>198.0</ele><time>2026-04-04T15:05:11.001Z</time></trkpt><trkpt lat="43.922397058343655" lon="4.500291623751662"><ele>197.8</ele><time>2026-04-04T15:05:12.001Z</time></trkpt><trkpt lat="43.92248290711847" lon="4.5002311445407654"><ele>197.60000000000002</ele><time>2026-04-04T15:05:13.001Z</time></trkpt><trkpt lat="43.92255748128179" lon="4.500137183570825"><ele>197.39999999999998</ele><time>2026-04-04T15:05:14.001Z</time></trkpt><trkpt lat="43.92263687110634" lon="4.500032183413136"><ele>197.2</ele><time>2026-04-04T15:05:15.001Z</time></trkpt><trkpt lat="43.9227132670286" lon="4.499929601814482"><ele>197.0</ele><time>2026-04-04T15:05:16.001Z</time></trkpt><trkpt lat="43.92279332846503" lon="4.499843984472911"><ele>196.83333333333334</ele><time>2026-04-04T15:05:17.001Z</time></trkpt><trkpt lat="43.92286531063768" lon="4.4997501951190415"><ele>196.66666666666669</ele><time>2026-04-04T15:05:18.001Z</time></trkpt><trkpt lat="43.922928457541445" lon="4.499667426882349"><ele>196.5</ele><time>2026-04-04T15:05:19.001Z</time></trkpt><trkpt lat="43.922994072283515" lon="4.499575026678468"><ele>196.33333333333331</ele><time>2026-04-04T15:05:20.001Z</time></trkpt><trkpt lat="43.923049544210826" lon="4.499500952128448"><ele>196.16666666666666</ele><time>2026-04-04T15:05:21.001Z</time></trkpt><trkpt lat="43.92310293084058" lon="4.499439044950353"><ele>196.0</ele><time>2026-04-04T15:05:22.001Z</time></trkpt><trkpt lat="43.92315620632644" lon="4.499377662319893"><ele>195.99999999999997</ele><time>2026-04-04T15:05:23.001Z</time></trkpt><trkpt lat="43.923196605044424" lon="4.499307494352146"><ele>196.0</ele><time>2026-04-04T15:05:24.001Z</time></trkpt><trkpt lat="43.92327284847311" lon="4.499214763433998"><ele>196.0</ele><time>2026-04-04T15:05:26.001Z</time></trkpt><trkpt lat="43.92333679218013" lon="4.499130767411469"><ele>196.0</ele><time>2026-04-04T15:05:28.001Z</time></trkpt><trkpt lat="43.923394745012516" lon="4.49904932500397"><ele>195.99999999999997</ele><time>2026-04-04T15:05:30.001Z</time></trkpt><trkpt lat="43.92347207152925" lon="4.498972758485151"><ele>196.0</ele><time>2026-04-04T15:05:32.001Z</time></trkpt><trkpt lat="43.92354599152168" lon="4.498844089659561"><ele>195.83333333333331</ele><time>2026-04-04T15:05:34.001Z</time></trkpt><trkpt lat="43.9235985928608" lon="4.498779658810962"><ele>195.66666666666666</ele><time>2026-04-04T15:05:35.001Z</time></trkpt><trkpt lat="43.923656844567205" lon="4.498714850607418"><ele>195.5</ele><time>2026-04-04T15:05:36.001Z</time></trkpt><trkpt lat="43.92371615326369" lon="4.498638977987535"><ele>195.33333333333331</ele><time>2026-04-04T15:05:37.001Z</time></trkpt><trkpt lat="43.92377036847446" lon="4.498577995528437"><ele>195.16666666666666</ele><time>2026-04-04T15:05:38.001Z</time></trkpt><trkpt lat="43.92384850815474" lon="4.498506445092484"><ele>195.0</ele><time>2026-04-04T15:05:40.001Z</time></trkpt><trkpt lat="43.923939381365564" lon="4.498472269914929"><ele>195.6</ele><time>2026-04-04T15:05:42.001Z</time></trkpt><trkpt lat="43.924062246929026" lon="4.498545685707985"><ele>196.2</ele><time>2026-04-04T15:05:44.001Z</time></trkpt><trkpt lat="43.924137300290866" lon="4.498612412597147"><ele>196.8</ele><time>2026-04-04T15:05:45.001Z</time></trkpt><trkpt lat="43.92422518136529" lon="4.49867740151439"><ele>197.4</ele><time>2026-04-04T15:05:46.001Z</time></trkpt><trkpt lat="43.924325575042545" lon="4.498736138152803"><ele>198.0</ele><time>2026-04-04T15:05:47.001Z</time></trkpt><trkpt lat="43.92442987119331" lon="4.498802559700365"><ele>198.0</ele><time>2026-04-04T15:05:48.001Z</time></trkpt><trkpt lat="43.924536296383636" lon="4.498866458335003"><ele>198.0</ele><time>2026-04-04T15:05:49.001Z</time></trkpt><trkpt lat="43.92463306599366" lon="4.4989361445911245"><ele>198.0</ele><time>2026-04-04T15:05:50.001Z</time></trkpt><trkpt lat="43.92472298302954" lon="4.4990051886916715"><ele>198.0</ele><time>2026-04-04T15:05:51.001Z</time></trkpt><trkpt lat="43.9248076312935" lon="4.499070491722276"><ele>198.0</ele><time>2026-04-04T15:05:52.001Z</time></trkpt><trkpt lat="43.92488501394358" lon="4.499110012283791"><ele>198.0</ele><time>2026-04-04T15:05:53.001Z</time></trkpt><trkpt lat="43.92495965220499" lon="4.499156145582014"><ele>198.0</ele><time>2026-04-04T15:05:54.001Z</time></trkpt><trkpt lat="43.92502733344985" lon="4.499204163956179"><ele>198.0</ele><time>2026-04-04T15:05:55.001Z</time></trkpt><trkpt lat="43.9250862140202" lon="4.499236427853522"><ele>198.0</ele><time>2026-04-04T15:05:56.001Z</time></trkpt><trkpt lat="43.92514783608798" lon="4.499375591887584"><ele>198.0</ele><time>2026-04-04T15:05:58.001Z</time></trkpt><trkpt lat="43.925165526395894" lon="4.499485849665705"><ele>198.0</ele><time>2026-04-04T15:05:59.001Z</time></trkpt><trkpt lat="43.925205589154764" lon="4.499584719360975"><ele>198.2</ele><time>2026-04-04T15:06:00.001Z</time></trkpt><trkpt lat="43.92526858980788" lon="4.499664143444071"><ele>198.4</ele><time>2026-04-04T15:06:01.001Z</time></trkpt><trkpt lat="43.92532715584683" lon="4.499721938557073"><ele>198.6</ele><time>2026-04-04T15:06:02.001Z</time></trkpt><trkpt lat="43.92540253840657" lon="4.4997770590003"><ele>198.79999999999998</ele><time>2026-04-04T15:06:03.001Z</time></trkpt><trkpt lat="43.92550326570065" lon="4.4998344407076285"><ele>199.0</ele><time>2026-04-04T15:06:04.001Z</time></trkpt><trkpt lat="43.92561198001433" lon="4.499895487589554"><ele>199.0</ele><time>2026-04-04T15:06:05.001Z</time></trkpt><trkpt lat="43.925712527892884" lon="4.499982779555639"><ele>199.0</ele><time>2026-04-04T15:06:06.001Z</time></trkpt><trkpt lat="43.92583070702218" lon="4.500061099132077"><ele>199.0</ele><time>2026-04-04T15:06:07.001Z</time></trkpt><trkpt lat="43.92595998013974" lon="4.500121962040498"><ele>199.0</ele><time>2026-04-04T15:06:08.001Z</time></trkpt><trkpt lat="43.926072482478354" lon="4.5001853160410805"><ele>199.25</ele><time>2026-04-04T15:06:09.001Z</time></trkpt><trkpt lat="43.926189498317655" lon="4.500253128437856"><ele>199.5</ele><time>2026-04-04T15:06:10.001Z</time></trkpt><trkpt lat="43.92629084129624" lon="4.500335261204239"><ele>199.75</ele><time>2026-04-04T15:06:11.001Z</time></trkpt><trkpt lat="43.926404166943634" lon="4.500402782324433"><ele>200.0</ele><time>2026-04-04T15:06:12.001Z</time></trkpt><trkpt lat="43.92651110851748" lon="4.500469743518297"><ele>200.25</ele><time>2026-04-04T15:06:13.001Z</time></trkpt><trkpt lat="43.92661228101801" lon="4.500520194239774"><ele>200.5</ele><time>2026-04-04T15:06:14.001Z</time></trkpt><trkpt lat="43.92671429074078" lon="4.500612865344007"><ele>200.75</ele><time>2026-04-04T15:06:15.001Z</time></trkpt><trkpt lat="43.926813117971754" lon="4.5007134580024495"><ele>201.0</ele><time>2026-04-04T15:06:16.001Z</time></trkpt><trkpt lat="43.92690804547124" lon="4.500806875604319"><ele>201.0</ele><time>2026-04-04T15:06:17.001Z</time></trkpt><trkpt lat="43.92698868553892" lon="4.500898041815437"><ele>201.0</ele><time>2026-04-04T15:06:18.001Z</time></trkpt><trkpt lat="43.927064664193075" lon="4.500973265292133"><ele>201.0</ele><time>2026-04-04T15:06:19.001Z</time></trkpt><trkpt lat="43.92712964757835" lon="4.501040831531984"><ele>201.0</ele><time>2026-04-04T15:06:20.001Z</time></trkpt><trkpt lat="43.927201573593685" lon="4.501115703967731"><ele>201.0</ele><time>2026-04-04T15:06:21.002Z</time></trkpt><trkpt lat="43.92726221472912" lon="4.501178156357489"><ele>201.0</ele><time>2026-04-04T15:06:22.002Z</time></trkpt><trkpt lat="43.92732747397951" lon="4.501228185113805"><ele>201.14285714285714</ele><time>2026-04-04T15:06:23.002Z</time></trkpt><trkpt lat="43.92738484832886" lon="4.501278132394534"><ele>201.2857142857143</ele><time>2026-04-04T15:06:24.002Z</time></trkpt><trkpt lat="43.92744058064037" lon="4.501319444586632"><ele>201.42857142857144</ele><time>2026-04-04T15:06:25.002Z</time></trkpt><trkpt lat="43.927493180837835" lon="4.501373122295029"><ele>201.57142857142856</ele><time>2026-04-04T15:06:26.002Z</time></trkpt><trkpt lat="43.92757631175656" lon="4.501485787692284"><ele>201.71428571428572</ele><time>2026-04-04T15:06:28.002Z</time></trkpt><trkpt lat="43.92762750268743" lon="4.5015405377647335"><ele>201.85714285714286</ele><time>2026-04-04T15:06:29.002Z</time></trkpt><trkpt lat="43.92768554474976" lon="4.501584254310651"><ele>202.0</ele><time>2026-04-04T15:06:30.002Z</time></trkpt><trkpt lat="43.927738367135206" lon="4.501637111704621"><ele>202.0</ele><time>2026-04-04T15:06:31.002Z</time></trkpt><trkpt lat="43.927825774657066" lon="4.501742981928584"><ele>202.0</ele><time>2026-04-04T15:06:33.001Z</time></trkpt><trkpt lat="43.92790788655007" lon="4.501833386598907"><ele>202.0</ele><time>2026-04-04T15:06:35.001Z</time></trkpt><trkpt lat="43.92798906957643" lon="4.501917876792907"><ele>202.0</ele><time>2026-04-04T15:06:37.001Z</time></trkpt><trkpt lat="43.928041276324116" lon="4.501970081151161"><ele>202.0</ele><time>2026-04-04T15:06:38.001Z</time></trkpt><trkpt lat="43.928113154077586" lon="4.502041170795291"><ele>201.39999999999998</ele><time>2026-04-04T15:06:39.001Z</time></trkpt><trkpt lat="43.92819249274271" lon="4.502107090938853"><ele>200.79999999999998</ele><time>2026-04-04T15:06:40.001Z</time></trkpt><trkpt lat="43.928277265090884" lon="4.502194066505598"><ele>200.2</ele><time>2026-04-04T15:06:41.001Z</time></trkpt><trkpt lat="43.92838636828491" lon="4.502254123025875"><ele>199.6</ele><time>2026-04-04T15:06:42.001Z</time></trkpt><trkpt lat="43.92849057452641" lon="4.50234107629065"><ele>199.0</ele><time>2026-04-04T15:06:43.001Z</time></trkpt><trkpt lat="43.92859894660644" lon="4.502421563650651"><ele>199.0</ele><time>2026-04-04T15:06:44.001Z</time></trkpt><trkpt lat="43.9286914169604" lon="4.502503165930333"><ele>199.0</ele><time>2026-04-04T15:06:45.001Z</time></trkpt><trkpt lat="43.928775314066264" lon="4.5026016228735735"><ele>199.0</ele><time>2026-04-04T15:06:46.001Z</time></trkpt><trkpt lat="43.9288311571819" lon="4.50273307152469"><ele>199.0</ele><time>2026-04-04T15:06:47.001Z</time></trkpt><trkpt lat="43.9288682473749" lon="4.502869841741523"><ele>199.0</ele><time>2026-04-04T15:06:48.001Z</time></trkpt><trkpt lat="43.92890368612713" lon="4.503005521584898"><ele>198.39999999999998</ele><time>2026-04-04T15:06:49.001Z</time></trkpt><trkpt lat="43.9289523852996" lon="4.50312184153897"><ele>197.8</ele><time>2026-04-04T15:06:50.001Z</time></trkpt><trkpt lat="43.92903418761337" lon="4.503208797149786"><ele>197.2</ele><time>2026-04-04T15:06:51.001Z</time></trkpt><trkpt lat="43.929104439730075" lon="4.503278568921869"><ele>196.60000000000002</ele><time>2026-04-04T15:06:52.001Z</time></trkpt><trkpt lat="43.929195936196564" lon="4.5033141085833215"><ele>196.0</ele><time>2026-04-04T15:06:53.001Z</time></trkpt><trkpt lat="43.92927795576906" lon="4.503301199748778"><ele>195.4</ele><time>2026-04-04T15:06:54.001Z</time></trkpt><trkpt lat="43.929358130693835" lon="4.503270821169729"><ele>194.8</ele><time>2026-04-04T15:06:55.001Z</time></trkpt><trkpt lat="43.929428693911255" lon="4.503234026651993"><ele>194.20000000000002</ele><time>2026-04-04T15:06:56.001Z</time></trkpt><trkpt lat="43.92950758795344" lon="4.503197547621115"><ele>193.60000000000002</ele><time>2026-04-04T15:06:57.001Z</time></trkpt><trkpt lat="43.92961103347002" lon="4.503180894710715"><ele>193.0</ele><time>2026-04-04T15:06:58.001Z</time></trkpt><trkpt lat="43.92973021246568" lon="4.503232833065904"><ele>193.0</ele><time>2026-04-04T15:06:59.001Z</time></trkpt><trkpt lat="43.92985218671379" lon="4.503263560183279"><ele>193.0</ele><time>2026-04-04T15:07:00.001Z</time></trkpt><trkpt lat="43.929985345214526" lon="4.50325086637"><ele>193.0</ele><time>2026-04-04T15:07:01.001Z</time></trkpt><trkpt lat="43.930117009171724" lon="4.503271817816461"><ele>193.0</ele><time>2026-04-04T15:07:02.001Z</time></trkpt><trkpt lat="43.93023981729526" lon="4.503297933493989"><ele>192.75</ele><time>2026-04-04T15:07:03.001Z</time></trkpt><trkpt lat="43.930374611878996" lon="4.503325371117281"><ele>192.5</ele><time>2026-04-04T15:07:04.001Z</time></trkpt><trkpt lat="43.93047943038514" lon="4.503361427673458"><ele>192.25</ele><time>2026-04-04T15:07:05.001Z</time></trkpt><trkpt lat="43.930597567107945" lon="4.503403758011604"><ele>192.0</ele><time>2026-04-04T15:07:06.001Z</time></trkpt><trkpt lat="43.930699544316965" lon="4.50345445484613"><ele>192.0</ele><time>2026-04-04T15:07:07.001Z</time></trkpt><trkpt lat="43.930803665309014" lon="4.503542808611769"><ele>192.0</ele><time>2026-04-04T15:07:08.001Z</time></trkpt><trkpt lat="43.93090720098714" lon="4.5035960305100495"><ele>192.0</ele><time>2026-04-04T15:07:09.001Z</time></trkpt><trkpt lat="43.93100909739035" lon="4.50370817550954"><ele>192.0</ele><time>2026-04-04T15:07:10.001Z</time></trkpt><trkpt lat="43.93110720690764" lon="4.503817033797041"><ele>191.0</ele><time>2026-04-04T15:07:11.001Z</time></trkpt><trkpt lat="43.93120159060373" lon="4.503932629109305"><ele>190.0</ele><time>2026-04-04T15:07:12.001Z</time></trkpt><trkpt lat="43.93127914223418" lon="4.504054028077013"><ele>189.0</ele><time>2026-04-04T15:07:13.001Z</time></trkpt><trkpt lat="43.931338095571206" lon="4.504188525729081"><ele>188.0</ele><time>2026-04-04T15:07:14.001Z</time></trkpt><trkpt lat="43.93139170465704" lon="4.504338008462573"><ele>188.0</ele><time>2026-04-04T15:07:15.001Z</time></trkpt><trkpt lat="43.93143688067753" lon="4.5045123431580025"><ele>188.0</ele><time>2026-04-04T15:07:16.001Z</time></trkpt><trkpt lat="43.93145934478653" lon="4.504688925894371"><ele>188.0</ele><time>2026-04-04T15:07:17.001Z</time></trkpt><trkpt lat="43.931471638608805" lon="4.5048625812356855"><ele>188.0</ele><time>2026-04-04T15:07:18.001Z</time></trkpt><trkpt lat="43.93149331841579" lon="4.505045807016563"><ele>186.75</ele><time>2026-04-04T15:07:19.001Z</time></trkpt><trkpt lat="43.93152084659045" lon="4.505215705042904"><ele>185.5</ele><time>2026-04-04T15:07:20.001Z</time></trkpt><trkpt lat="43.93153904197106" lon="4.505395313684167"><ele>184.25</ele><time>2026-04-04T15:07:21.001Z</time></trkpt><trkpt lat="43.93157188137565" lon="4.5055625333958975"><ele>183.0</ele><time>2026-04-04T15:07:22.001Z</time></trkpt><trkpt lat="43.93160372379999" lon="4.5057320146562665"><ele>182.5</ele><time>2026-04-04T15:07:23.001Z</time></trkpt><trkpt lat="43.93163002700407" lon="4.50589221810687"><ele>182.0</ele><time>2026-04-04T15:07:24.001Z</time></trkpt><trkpt lat="43.93166648292589" lon="4.5060523750913895"><ele>181.5</ele><time>2026-04-04T15:07:25.001Z</time></trkpt><trkpt lat="43.93167306351638" lon="4.506226825634614"><ele>181.0</ele><time>2026-04-04T15:07:26.001Z</time></trkpt><trkpt lat="43.93169148829829" lon="4.506402554032972"><ele>180.25</ele><time>2026-04-04T15:07:27.001Z</time></trkpt><trkpt lat="43.9316824330287" lon="4.506574173845805"><ele>179.5</ele><time>2026-04-04T15:07:28.001Z</time></trkpt><trkpt lat="43.93168682220246" lon="4.506755522089474"><ele>178.75</ele><time>2026-04-04T15:07:29.001Z</time></trkpt><trkpt lat="43.931700266202846" lon="4.506937767815411"><ele>178.0</ele><time>2026-04-04T15:07:30.001Z</time></trkpt><trkpt lat="43.93169709783868" lon="4.507113863436968"><ele>177.5</ele><time>2026-04-04T15:07:31.001Z</time></trkpt><trkpt lat="43.931689402230745" lon="4.50729300854337"><ele>177.0</ele><time>2026-04-04T15:07:32.001Z</time></trkpt><trkpt lat="43.93168963368961" lon="4.507471367596621"><ele>176.5</ele><time>2026-04-04T15:07:33.001Z</time></trkpt><trkpt lat="43.93168193125139" lon="4.5076488271168085"><ele>176.0</ele><time>2026-04-04T15:07:34.001Z</time></trkpt><trkpt lat="43.93170298575215" lon="4.5078213485828265"><ele>176.0</ele><time>2026-04-04T15:07:35.001Z</time></trkpt><trkpt lat="43.93173614795992" lon="4.507988963437519"><ele>176.0</ele><time>2026-04-04T15:07:36.001Z</time></trkpt><trkpt lat="43.93175039868343" lon="4.508176719677462"><ele>176.0</ele><time>2026-04-04T15:07:37.001Z</time></trkpt><trkpt lat="43.93176334073581" lon="4.508354986597142"><ele>176.0</ele><time>2026-04-04T15:07:38.001Z</time></trkpt><trkpt lat="43.931772707718466" lon="4.50852618343538"><ele>176.0</ele><time>2026-04-04T15:07:39.001Z</time></trkpt><trkpt lat="43.93177524351808" lon="4.5087118515694975"><ele>176.0</ele><time>2026-04-04T15:07:40.001Z</time></trkpt><trkpt lat="43.93177652639145" lon="4.508894724783703"><ele>176.0</ele><time>2026-04-04T15:07:41.001Z</time></trkpt><trkpt lat="43.931761870765854" lon="4.509061021436196"><ele>176.0</ele><time>2026-04-04T15:07:42.001Z</time></trkpt><trkpt lat="43.93176688834691" lon="4.509243441234895"><ele>175.0</ele><time>2026-04-04T15:07:43.001Z</time></trkpt><trkpt lat="43.931791995172965" lon="4.50942088179043"><ele>174.0</ele><time>2026-04-04T15:07:44.001Z</time></trkpt><trkpt lat="43.93186023686769" lon="4.509577298450634"><ele>173.0</ele><time>2026-04-04T15:07:45.001Z</time></trkpt><trkpt lat="43.93190619080643" lon="4.509743084385131"><ele>172.0</ele><time>2026-04-04T15:07:46.001Z</time></trkpt><trkpt lat="43.93195117687853" lon="4.50990645118867"><ele>171.8</ele><time>2026-04-04T15:07:47.001Z</time></trkpt><trkpt lat="43.93198404737369" lon="4.510067057588863"><ele>171.6</ele><time>2026-04-04T15:07:48.001Z</time></trkpt><trkpt lat="43.93199842125029" lon="4.510220087958206"><ele>171.4</ele><time>2026-04-04T15:07:49.001Z</time></trkpt><trkpt lat="43.932027652836325" lon="4.5103506904989"><ele>171.20000000000002</ele><time>2026-04-04T15:07:50.001Z</time></trkpt><trkpt lat="43.93207082280959" lon="4.510470665402763"><ele>171.0</ele><time>2026-04-04T15:07:51.001Z</time></trkpt><trkpt lat="43.932144009194644" lon="4.510547798717772"><ele>170.33333333333334</ele><time>2026-04-04T15:07:52.001Z</time></trkpt><trkpt lat="43.932202170937714" lon="4.510634227591022"><ele>169.66666666666666</ele><time>2026-04-04T15:07:53.001Z</time></trkpt><trkpt lat="43.93226200716088" lon="4.51070446449071"><ele>169.0</ele><time>2026-04-04T15:07:54.001Z</time></trkpt><trkpt lat="43.93233105724499" lon="4.510767704893573"><ele>168.33333333333331</ele><time>2026-04-04T15:07:55.001Z</time></trkpt><trkpt lat="43.93242053359013" lon="4.510817615356912"><ele>167.66666666666666</ele><time>2026-04-04T15:07:56.001Z</time></trkpt><trkpt lat="43.932488729641555" lon="4.510880593463872"><ele>167.0</ele><time>2026-04-04T15:07:57.001Z</time></trkpt><trkpt lat="43.93255345012905" lon="4.510961311690124"><ele>167.0</ele><time>2026-04-04T15:07:58.001Z</time></trkpt><trkpt lat="43.93260261737018" lon="4.511068840054121"><ele>167.0</ele><time>2026-04-04T15:07:59.001Z</time></trkpt><trkpt lat="43.93259024384472" lon="4.511171080414171"><ele>167.0</ele><time>2026-04-04T15:08:00.001Z</time></trkpt><trkpt lat="43.93256610542169" lon="4.51125267424667"><ele>167.0</ele><time>2026-04-04T15:08:01.001Z</time></trkpt><trkpt lat="43.93252171846003" lon="4.51137945732473"><ele>167.0</ele><time>2026-04-04T15:08:03.001Z</time></trkpt><trkpt lat="43.93250019035354" lon="4.51156628383212"><ele>166.6</ele><time>2026-04-04T15:08:05.001Z</time></trkpt><trkpt lat="43.93250364587908" lon="4.511695758262387"><ele>166.2</ele><time>2026-04-04T15:08:06.001Z</time></trkpt><trkpt lat="43.932511996454444" lon="4.511837058747641"><ele>165.8</ele><time>2026-04-04T15:08:07.001Z</time></trkpt><trkpt lat="43.932551448007885" lon="4.511987704092123"><ele>165.4</ele><time>2026-04-04T15:08:08.001Z</time></trkpt><trkpt lat="43.93259842031644" lon="4.512138426345583"><ele>165.0</ele><time>2026-04-04T15:08:09.001Z</time></trkpt><trkpt lat="43.93265122365764" lon="4.512297068673075"><ele>163.25</ele><time>2026-04-04T15:08:10.001Z</time></trkpt><trkpt lat="43.93270394259144" lon="4.512455239702978"><ele>161.5</ele><time>2026-04-04T15:08:11.001Z</time></trkpt><trkpt lat="43.93275594153943" lon="4.512618087748671"><ele>159.75</ele><time>2026-04-04T15:08:12.001Z</time></trkpt><trkpt lat="43.93280696398433" lon="4.51277817422504"><ele>158.0</ele><time>2026-04-04T15:08:13.001Z</time></trkpt><trkpt lat="43.932863067974786" lon="4.512934148643815"><ele>158.0</ele><time>2026-04-04T15:08:14.001Z</time></trkpt><trkpt lat="43.93292082099722" lon="4.513090294894339"><ele>158.0</ele><time>2026-04-04T15:08:15.001Z</time></trkpt><trkpt lat="43.93298867221703" lon="4.513229604115275"><ele>158.0</ele><time>2026-04-04T15:08:16.001Z</time></trkpt><trkpt lat="43.933068746320515" lon="4.513368110652595"><ele>158.0</ele><time>2026-04-04T15:08:17.001Z</time></trkpt><trkpt lat="43.93315654462778" lon="4.513493613331233"><ele>158.0</ele><time>2026-04-04T15:08:18.001Z</time></trkpt><trkpt lat="43.93324249722078" lon="4.513623243181956"><ele>158.0</ele><time>2026-04-04T15:08:19.001Z</time></trkpt><trkpt lat="43.93333186476113" lon="4.513738824801023"><ele>158.0</ele><time>2026-04-04T15:08:20.001Z</time></trkpt><trkpt lat="43.93342126997049" lon="4.513849145163532"><ele>158.0</ele><time>2026-04-04T15:08:21.001Z</time></trkpt><trkpt lat="43.93351008848879" lon="4.513953950934567"><ele>158.75</ele><time>2026-04-04T15:08:22.001Z</time></trkpt><trkpt lat="43.93359366743639" lon="4.514071328673038"><ele>159.5</ele><time>2026-04-04T15:08:23.001Z</time></trkpt><trkpt lat="43.93366775392497" lon="4.514200616440058"><ele>160.25</ele><time>2026-04-04T15:08:24.001Z</time></trkpt><trkpt lat="43.93375320009578" lon="4.514317633153042"><ele>161.0</ele><time>2026-04-04T15:08:25.001Z</time></trkpt><trkpt lat="43.9338268852436" lon="4.5144112834335886"><ele>161.0</ele><time>2026-04-04T15:08:26.001Z</time></trkpt><trkpt lat="43.93393052499392" lon="4.514503295150699"><ele>161.0</ele><time>2026-04-04T15:08:27.002Z</time></trkpt><trkpt lat="43.934034294718565" lon="4.514596700665979"><ele>161.0</ele><time>2026-04-04T15:08:28.002Z</time></trkpt><trkpt lat="43.93414019321353" lon="4.514688542155776"><ele>161.0</ele><time>2026-04-04T15:08:29.002Z</time></trkpt><trkpt lat="43.93423877545001" lon="4.514781325416824"><ele>161.60000000000002</ele><time>2026-04-04T15:08:30.002Z</time></trkpt><trkpt lat="43.93433208284968" lon="4.514862727587561"><ele>162.2</ele><time>2026-04-04T15:08:31.002Z</time></trkpt><trkpt lat="43.93442041915411" lon="4.514954689261383"><ele>162.8</ele><time>2026-04-04T15:08:32.001Z</time></trkpt><trkpt lat="43.934522286358316" lon="4.5150169039990615"><ele>163.39999999999998</ele><time>2026-04-04T15:08:33.001Z</time></trkpt><trkpt lat="43.93462837559194" lon="4.515059539625822"><ele>164.0</ele><time>2026-04-04T15:08:34.001Z</time></trkpt><trkpt lat="43.93473241271808" lon="4.515067351053854"><ele>164.0</ele><time>2026-04-04T15:08:35.001Z</time></trkpt><trkpt lat="43.93482630672662" lon="4.515060403504343"><ele>164.0</ele><time>2026-04-04T15:08:36.001Z</time></trkpt><trkpt lat="43.934920986126755" lon="4.515059261908868"><ele>164.0</ele><time>2026-04-04T15:08:37.001Z</time></trkpt><trkpt lat="43.93502731043032" lon="4.515088139378051"><ele>164.0</ele><time>2026-04-04T15:08:38.001Z</time></trkpt><trkpt lat="43.935136160857404" lon="4.515141714336795"><ele>164.0</ele><time>2026-04-04T15:08:39.001Z</time></trkpt><trkpt lat="43.93523527733659" lon="4.5152069909412"><ele>164.25</ele><time>2026-04-04T15:08:40.001Z</time></trkpt><trkpt lat="43.935336791589094" lon="4.515297294135717"><ele>164.5</ele><time>2026-04-04T15:08:41.001Z</time></trkpt><trkpt lat="43.93543851081799" lon="4.515405700480295"><ele>164.75</ele><time>2026-04-04T15:08:42.001Z</time></trkpt><trkpt lat="43.93553763254441" lon="4.5155093462185425"><ele>165.0</ele><time>2026-04-04T15:08:43.001Z</time></trkpt><trkpt lat="43.935644099159454" lon="4.515594102876438"><ele>165.0</ele><time>2026-04-04T15:08:44.001Z</time></trkpt><trkpt lat="43.93574720439074" lon="4.515693068008077"><ele>165.0</ele><time>2026-04-04T15:08:45.001Z</time></trkpt><trkpt lat="43.93584738285944" lon="4.5157998254163365"><ele>165.0</ele><time>2026-04-04T15:08:46.001Z</time></trkpt><trkpt lat="43.9359540531378" lon="4.515884657362389"><ele>165.0</ele><time>2026-04-04T15:08:47.001Z</time></trkpt><trkpt lat="43.936069796671994" lon="4.5159404618931065"><ele>164.5</ele><time>2026-04-04T15:08:48.001Z</time></trkpt><trkpt lat="43.9361893617685" lon="4.515987187946576"><ele>164.0</ele><time>2026-04-04T15:08:49.001Z</time></trkpt><trkpt lat="43.93630273680303" lon="4.516027236137004"><ele>163.5</ele><time>2026-04-04T15:08:50.001Z</time></trkpt><trkpt lat="43.93640644292324" lon="4.5160785829844174"><ele>163.0</ele><time>2026-04-04T15:08:51.001Z</time></trkpt><trkpt lat="43.93650069021561" lon="4.516150366837619"><ele>163.0</ele><time>2026-04-04T15:08:52.001Z</time></trkpt><trkpt lat="43.936582868372106" lon="4.516228141836432"><ele>163.0</ele><time>2026-04-04T15:08:53.001Z</time></trkpt><trkpt lat="43.936650066252916" lon="4.5163170915995545"><ele>163.0</ele><time>2026-04-04T15:08:54.001Z</time></trkpt><trkpt lat="43.93670671262497" lon="4.51640552222601"><ele>163.0</ele><time>2026-04-04T15:08:55.001Z</time></trkpt><trkpt lat="43.93674817096989" lon="4.516488351295077"><ele>163.0</ele><time>2026-04-04T15:08:56.001Z</time></trkpt><trkpt lat="43.936775959285235" lon="4.516571562941461"><ele>163.0</ele><time>2026-04-04T15:08:57.001Z</time></trkpt><trkpt lat="43.93676141440131" lon="4.516739447464001"><ele>163.16666666666669</ele><time>2026-04-04T15:08:59.001Z</time></trkpt><trkpt lat="43.93672023556925" lon="4.516833486397705"><ele>163.33333333333334</ele><time>2026-04-04T15:09:00.001Z</time></trkpt><trkpt lat="43.936619041331" lon="4.516863444144278"><ele>163.5</ele><time>2026-04-04T15:09:01.001Z</time></trkpt><trkpt lat="43.93654623992064" lon="4.51694289694467"><ele>163.66666666666666</ele><time>2026-04-04T15:09:02.001Z</time></trkpt><trkpt lat="43.93648178682044" lon="4.517020607922998"><ele>163.83333333333331</ele><time>2026-04-04T15:09:03.001Z</time></trkpt><trkpt lat="43.93643277095867" lon="4.517090690164948"><ele>164.0</ele><time>2026-04-04T15:09:04.001Z</time></trkpt><trkpt lat="43.93639435040058" lon="4.517163410467"><ele>163.0</ele><time>2026-04-04T15:09:05.001Z</time></trkpt><trkpt lat="43.93637299080186" lon="4.5172515800460955"><ele>162.0</ele><time>2026-04-04T15:09:06.001Z</time></trkpt><trkpt lat="43.93637399777049" lon="4.517354989875499"><ele>161.0</ele><time>2026-04-04T15:09:07.001Z</time></trkpt><trkpt lat="43.93641042225983" lon="4.5174621436115086"><ele>160.0</ele><time>2026-04-04T15:09:08.001Z</time></trkpt><trkpt lat="43.93643497921741" lon="4.517591877957916"><ele>159.0</ele><time>2026-04-04T15:09:09.001Z</time></trkpt><trkpt lat="43.936459911547956" lon="4.517728653048767"><ele>158.0</ele><time>2026-04-04T15:09:10.001Z</time></trkpt><trkpt lat="43.9364832818618" lon="4.517856059474449"><ele>157.20000000000002</ele><time>2026-04-04T15:09:11.001Z</time></trkpt><trkpt lat="43.936503223758976" lon="4.517972566961377"><ele>156.4</ele><time>2026-04-04T15:09:12.001Z</time></trkpt><trkpt lat="43.93651586953634" lon="4.518072413127858"><ele>155.60000000000002</ele><time>2026-04-04T15:09:13.001Z</time></trkpt><trkpt lat="43.93653940405759" lon="4.518157221656849"><ele>154.8</ele><time>2026-04-04T15:09:14.001Z</time></trkpt><trkpt lat="43.93651975395886" lon="4.518314432729765"><ele>154.0</ele><time>2026-04-04T15:09:16.001Z</time></trkpt><trkpt lat="43.93641047044721" lon="4.518371033873424"><ele>154.0</ele><time>2026-04-04T15:09:18.001Z</time></trkpt><trkpt lat="43.93630729170501" lon="4.518367342486669"><ele>154.0</ele><time>2026-04-04T15:09:20.001Z</time></trkpt><trkpt lat="43.936194081674216" lon="4.518324829987043"><ele>154.0</ele><time>2026-04-04T15:09:22.001Z</time></trkpt><trkpt lat="43.9361046648734" lon="4.518282533806282"><ele>154.0</ele><time>2026-04-04T15:09:23.001Z</time></trkpt><trkpt lat="43.9360109100176" lon="4.518242179392969"><ele>154.0</ele><time>2026-04-04T15:09:24.001Z</time></trkpt><trkpt lat="43.93592258070243" lon="4.518204463547034"><ele>154.16666666666669</ele><time>2026-04-04T15:09:25.001Z</time></trkpt><trkpt lat="43.93583278502378" lon="4.518184609083288"><ele>154.33333333333334</ele><time>2026-04-04T15:09:26.001Z</time></trkpt><trkpt lat="43.9357444980733" lon="4.518152944747374"><ele>154.5</ele><time>2026-04-04T15:09:27.001Z</time></trkpt><trkpt lat="43.935656892196114" lon="4.518117332545323"><ele>154.66666666666666</ele><time>2026-04-04T15:09:28.001Z</time></trkpt><trkpt lat="43.93557053261886" lon="4.518088639389258"><ele>154.83333333333331</ele><time>2026-04-04T15:09:29.001Z</time></trkpt><trkpt lat="43.93548951641174" lon="4.518046616882513"><ele>155.0</ele><time>2026-04-04T15:09:30.001Z</time></trkpt><trkpt lat="43.9354142910003" lon="4.518033660793017"><ele>155.0</ele><time>2026-04-04T15:09:31.001Z</time></trkpt><trkpt lat="43.935343962650876" lon="4.518041506099563"><ele>155.0</ele><time>2026-04-04T15:09:32.001Z</time></trkpt><trkpt lat="43.935277043606376" lon="4.51802226483863"><ele>155.0</ele><time>2026-04-04T15:09:33Z</time></trkpt><trkpt lat="43.935212883848" lon="4.518040887892058"><ele>155.0</ele><time>2026-04-04T15:09:34Z</time></trkpt><trkpt lat="43.9351471738419" lon="4.518044629818964"><ele>155.0</ele><time>2026-04-04T15:09:35Z</time></trkpt><trkpt lat="43.93507937400446" lon="4.518047090252771"><ele>155.0</ele><time>2026-04-04T15:09:36Z</time></trkpt><trkpt lat="43.93501247667125" lon="4.518051894887515"><ele>155.0</ele><time>2026-04-04T15:09:37Z</time></trkpt><trkpt lat="43.93489085924835" lon="4.518021665868134"><ele>153.33333333333331</ele><time>2026-04-04T15:09:39Z</time></trkpt><trkpt lat="43.93478514426597" lon="4.517998449962094"><ele>151.66666666666666</ele><time>2026-04-04T15:09:41Z</time></trkpt><trkpt lat="43.93469990898158" lon="4.517968415261584"><ele>150.0</ele><time>2026-04-04T15:09:43Z</time></trkpt><trkpt lat="43.93462074532907" lon="4.517954008458222"><ele>148.33333333333334</ele><time>2026-04-04T15:09:45Z</time></trkpt><trkpt lat="43.93456172218066" lon="4.5179087265054"><ele>146.66666666666669</ele><time>2026-04-04T15:09:47Z</time></trkpt><trkpt lat="43.934512053138356" lon="4.517983621694743"><ele>145.0</ele><time>2026-04-04T15:09:50Z</time></trkpt><trkpt lat="43.93457143250049" lon="4.5180631725399305"><ele>145.0</ele><time>2026-04-04T15:09:57Z</time></trkpt><trkpt lat="43.93462019580731" lon="4.518133138406828"><ele>145.0</ele><time>2026-04-04T15:09:59Z</time></trkpt><trkpt lat="43.93467080256493" lon="4.518231365321054"><ele>145.0</ele><time>2026-04-04T15:10:02Z</time></trkpt><trkpt lat="43.934715116699024" lon="4.518297860822749"><ele>145.0</ele><time>2026-04-04T15:10:07Z</time></trkpt><trkpt lat="43.93460693737292" lon="4.518470185547918"><ele>145.0</ele><time>2026-04-04T15:10:11Z</time></trkpt><trkpt lat="43.93453265170714" lon="4.518485705179696"><ele>145.0</ele><time>2026-04-04T15:10:14Z</time></trkpt><trkpt lat="43.93445345273963" lon="4.51850918929372"><ele>145.0</ele><time>2026-04-04T15:10:19Z</time></trkpt><trkpt lat="43.934377124318274" lon="4.518541423572942"><ele>145.0</ele><time>2026-04-04T15:10:23Z</time></trkpt><trkpt lat="43.934256232994244" lon="4.518558885554305"><ele>145.0</ele><time>2026-04-04T15:10:25Z</time></trkpt><trkpt lat="43.934183428374624" lon="4.518484379304185"><ele>145.0</ele><time>2026-04-04T15:10:26Z</time></trkpt><trkpt lat="43.934105906824605" lon="4.518468445581951"><ele>142.6</ele><time>2026-04-04T15:10:27Z</time></trkpt><trkpt lat="43.93402403031871" lon="4.51845529744961"><ele>140.2</ele><time>2026-04-04T15:10:28Z</time></trkpt><trkpt lat="43.9339512980318" lon="4.518438732536064"><ele>137.8</ele><time>2026-04-04T15:10:29Z</time></trkpt><trkpt lat="43.93388390636493" lon="4.518411737916977"><ele>135.4</ele><time>2026-04-04T15:10:30Z</time></trkpt><trkpt lat="43.93377337988014" lon="4.518346977350329"><ele>133.0</ele><time>2026-04-04T15:10:32Z</time></trkpt><trkpt lat="43.93370561067032" lon="4.518236381949632"><ele>133.0</ele><time>2026-04-04T15:10:34.001Z</time></trkpt><trkpt lat="43.93368640973274" lon="4.518135781098268"><ele>133.0</ele><time>2026-04-04T15:10:36.001Z</time></trkpt><trkpt lat="43.93360750522008" lon="4.518042351371818"><ele>133.0</ele><time>2026-04-04T15:10:38.001Z</time></trkpt><trkpt lat="43.93351968448433" lon="4.518073334517632"><ele>133.0</ele><time>2026-04-04T15:10:39.001Z</time></trkpt><trkpt lat="43.93347505657354" lon="4.518170368488463"><ele>133.0</ele><time>2026-04-04T15:10:40.001Z</time></trkpt><trkpt lat="43.93340609745709" lon="4.518214419467175"><ele>133.0</ele><time>2026-04-04T15:10:41.001Z</time></trkpt><trkpt lat="43.93332824303542" lon="4.518272754673451"><ele>131.8</ele><time>2026-04-04T15:10:42.001Z</time></trkpt><trkpt lat="43.93324618931309" lon="4.518298486394577"><ele>130.60000000000002</ele><time>2026-04-04T15:10:43.001Z</time></trkpt><trkpt lat="43.933164299463044" lon="4.5183151229408836"><ele>129.39999999999998</ele><time>2026-04-04T15:10:44.001Z</time></trkpt><trkpt lat="43.93307924767957" lon="4.518333386157673"><ele>128.2</ele><time>2026-04-04T15:10:45.001Z</time></trkpt><trkpt lat="43.93298337732724" lon="4.518376916006872"><ele>127.0</ele><time>2026-04-04T15:10:46.001Z</time></trkpt><trkpt lat="43.932892397104325" lon="4.518422321413331"><ele>127.0</ele><time>2026-04-04T15:10:47.001Z</time></trkpt><trkpt lat="43.932798502712025" lon="4.518455600553652"><ele>126.99999999999999</ele><time>2026-04-04T15:10:48.001Z</time></trkpt><trkpt lat="43.932701962177816" lon="4.518516756645872"><ele>126.99999999999999</ele><time>2026-04-04T15:10:49.001Z</time></trkpt><trkpt lat="43.932601677165636" lon="4.5185420736230935"><ele>127.0</ele><time>2026-04-04T15:10:50.001Z</time></trkpt><trkpt lat="43.93249513062425" lon="4.518590791310609"><ele>127.0</ele><time>2026-04-04T15:10:51.001Z</time></trkpt><trkpt lat="43.932395274262106" lon="4.518616964653265"><ele>128.0</ele><time>2026-04-04T15:10:52.001Z</time></trkpt><trkpt lat="43.93229327165334" lon="4.518622914170536"><ele>129.0</ele><time>2026-04-04T15:10:53.001Z</time></trkpt><trkpt lat="43.932190270282604" lon="4.5186453115348675"><ele>130.0</ele><time>2026-04-04T15:10:54.001Z</time></trkpt><trkpt lat="43.93209054401662" lon="4.518688901063515"><ele>131.0</ele><time>2026-04-04T15:10:55.001Z</time></trkpt><trkpt lat="43.931977041167514" lon="4.518706209250409"><ele>132.0</ele><time>2026-04-04T15:10:56.001Z</time></trkpt><trkpt lat="43.931862571063874" lon="4.518725585652171"><ele>134.0</ele><time>2026-04-04T15:10:57.001Z</time></trkpt><trkpt lat="43.931758487325304" lon="4.5187427735152275"><ele>136.0</ele><time>2026-04-04T15:10:58Z</time></trkpt><trkpt lat="43.93164132350209" lon="4.518775771226021"><ele>138.0</ele><time>2026-04-04T15:10:59Z</time></trkpt><trkpt lat="43.931519635226564" lon="4.51879658240271"><ele>140.0</ele><time>2026-04-04T15:11:00Z</time></trkpt><trkpt lat="43.93140372548713" lon="4.518823086855228"><ele>140.4</ele><time>2026-04-04T15:11:01Z</time></trkpt><trkpt lat="43.931299440463825" lon="4.518835514260917"><ele>140.8</ele><time>2026-04-04T15:11:02Z</time></trkpt><trkpt lat="43.93119783449209" lon="4.518838632450043"><ele>141.2</ele><time>2026-04-04T15:11:03Z</time></trkpt><trkpt lat="43.93109372423882" lon="4.518825160920525"><ele>141.6</ele><time>2026-04-04T15:11:04Z</time></trkpt><trkpt lat="43.930979709418835" lon="4.518829872359183"><ele>142.0</ele><time>2026-04-04T15:11:05Z</time></trkpt><trkpt lat="43.93086178965452" lon="4.518853457925459"><ele>142.6</ele><time>2026-04-04T15:11:06Z</time></trkpt><trkpt lat="43.93075705955117" lon="4.518887997430351"><ele>143.2</ele><time>2026-04-04T15:11:07Z</time></trkpt><trkpt lat="43.93065401452635" lon="4.51893028285094"><ele>143.8</ele><time>2026-04-04T15:11:08Z</time></trkpt><trkpt lat="43.93056574295865" lon="4.518971735481611"><ele>144.4</ele><time>2026-04-04T15:11:09Z</time></trkpt><trkpt lat="43.930508246290344" lon="4.519009686517315"><ele>145.0</ele><time>2026-04-04T15:11:10Z</time></trkpt><trkpt lat="43.930420511657346" lon="4.519007422704249"><ele>145.0</ele><time>2026-04-04T15:11:12Z</time></trkpt><trkpt lat="43.9304990777786" lon="4.519002329646114"><ele>145.0</ele><time>2026-04-04T15:11:23Z</time></trkpt><trkpt lat="43.93058945245052" lon="4.518973711991351"><ele>145.0</ele><time>2026-04-04T15:11:25Z</time></trkpt><trkpt lat="43.930635835616165" lon="4.518902717820359"><ele>145.0</ele><time>2026-04-04T15:11:28Z</time></trkpt><trkpt lat="43.93057246316509" lon="4.518798657602441"><ele>145.0</ele><time>2026-04-04T15:11:31Z</time></trkpt><trkpt lat="43.93051945406341" lon="4.518745865781205"><ele>145.0</ele><time>2026-04-04T15:11:32Z</time></trkpt><trkpt lat="43.930427380036235" lon="4.5186843595318305"><ele>145.0</ele><time>2026-04-04T15:11:34Z</time></trkpt><trkpt lat="43.93036604986751" lon="4.518715020343799"><ele>145.0</ele><time>2026-04-04T15:11:35Z</time></trkpt><trkpt lat="43.93026779181055" lon="4.518748667163679"><ele>145.0</ele><time>2026-04-04T15:11:37Z</time></trkpt><trkpt lat="43.93019913785842" lon="4.518736091398375"><ele>145.0</ele><time>2026-04-04T15:11:38Z</time></trkpt><trkpt lat="43.93004618648717" lon="4.518740197278548"><ele>145.0</ele><time>2026-04-04T15:11:40Z</time></trkpt><trkpt lat="43.92996240303458" lon="4.518734352293857"><ele>144.83333333333334</ele><time>2026-04-04T15:11:41Z</time></trkpt><trkpt lat="43.92988233248081" lon="4.518756429304578"><ele>144.66666666666669</ele><time>2026-04-04T15:11:42Z</time></trkpt><trkpt lat="43.92981120036234" lon="4.518766412813043"><ele>144.5</ele><time>2026-04-04T15:11:43Z</time></trkpt><trkpt lat="43.92974321249645" lon="4.5187842890926815"><ele>144.33333333333334</ele><time>2026-04-04T15:11:44Z</time></trkpt><trkpt lat="43.92966789632694" lon="4.518837231133457"><ele>144.16666666666666</ele><time>2026-04-04T15:11:45Z</time></trkpt><trkpt lat="43.92960258728385" lon="4.518892959107581"><ele>144.0</ele><time>2026-04-04T15:11:46Z</time></trkpt><trkpt lat="43.92951887212804" lon="4.518914715268003"><ele>144.0</ele><time>2026-04-04T15:11:48Z</time></trkpt><trkpt lat="43.92941087419979" lon="4.5188871388268215"><ele>144.0</ele><time>2026-04-04T15:11:50Z</time></trkpt><trkpt lat="43.92932434475239" lon="4.518883768306285"><ele>144.0</ele><time>2026-04-04T15:11:51Z</time></trkpt><trkpt lat="43.92922698854072" lon="4.518880186145257"><ele>144.0</ele><time>2026-04-04T15:11:52Z</time></trkpt><trkpt lat="43.929122598327226" lon="4.518872831929885"><ele>144.0</ele><time>2026-04-04T15:11:53Z</time></trkpt><trkpt lat="43.92900391533262" lon="4.518863770858162"><ele>143.4</ele><time>2026-04-04T15:11:54Z</time></trkpt><trkpt lat="43.928892578746634" lon="4.518853029591651"><ele>142.8</ele><time>2026-04-04T15:11:55Z</time></trkpt><trkpt lat="43.92878745703684" lon="4.518829721258405"><ele>142.2</ele><time>2026-04-04T15:11:56Z</time></trkpt><trkpt lat="43.92868469625334" lon="4.518808286824"><ele>141.6</ele><time>2026-04-04T15:11:57Z</time></trkpt><trkpt lat="43.92858931562364" lon="4.518781682207709"><ele>141.0</ele><time>2026-04-04T15:11:58Z</time></trkpt><trkpt lat="43.9284849683501" lon="4.518742759004994"><ele>139.5</ele><time>2026-04-04T15:11:59Z</time></trkpt><trkpt lat="43.92839127125265" lon="4.518709800927316"><ele>138.0</ele><time>2026-04-04T15:12:00Z</time></trkpt><trkpt lat="43.92828875410437" lon="4.518678526107561"><ele>136.5</ele><time>2026-04-04T15:12:01Z</time></trkpt><trkpt lat="43.928204733997624" lon="4.518645029532457"><ele>135.0</ele><time>2026-04-04T15:12:02Z</time></trkpt><trkpt lat="43.92812649786714" lon="4.518623549680657"><ele>133.5</ele><time>2026-04-04T15:12:03Z</time></trkpt><trkpt lat="43.92806152001106" lon="4.51861653817438"><ele>132.0</ele><time>2026-04-04T15:12:04Z</time></trkpt><trkpt lat="43.927955622206156" lon="4.518618417671865"><ele>132.0</ele><time>2026-04-04T15:12:06Z</time></trkpt><trkpt lat="43.92784864972513" lon="4.518587828349237"><ele>132.0</ele><time>2026-04-04T15:12:08Z</time></trkpt><trkpt lat="43.92773860828483" lon="4.518594124706671"><ele>132.0</ele><time>2026-04-04T15:12:10Z</time></trkpt><trkpt lat="43.927675700495" lon="4.518579209069162"><ele>132.0</ele><time>2026-04-04T15:12:11Z</time></trkpt><trkpt lat="43.92760450389714" lon="4.518574213903304"><ele>132.0</ele><time>2026-04-04T15:12:12Z</time></trkpt><trkpt lat="43.92748828134639" lon="4.518573062157748"><ele>131.66666666666666</ele><time>2026-04-04T15:12:14Z</time></trkpt><trkpt lat="43.92742175220642" lon="4.518580593951612"><ele>131.33333333333334</ele><time>2026-04-04T15:12:15Z</time></trkpt><trkpt lat="43.927306382361174" lon="4.51863039068867"><ele>131.0</ele><time>2026-04-04T15:12:17Z</time></trkpt><trkpt lat="43.927244302472374" lon="4.51867326070569"><ele>130.66666666666669</ele><time>2026-04-04T15:12:18Z</time></trkpt><trkpt lat="43.92718023188099" lon="4.518713298363013"><ele>130.33333333333334</ele><time>2026-04-04T15:12:19Z</time></trkpt><trkpt lat="43.927073407270484" lon="4.518708986550686"><ele>130.0</ele><time>2026-04-04T15:12:21Z</time></trkpt><trkpt lat="43.92702094136481" lon="4.518604968724106"><ele>130.0</ele><time>2026-04-04T15:12:24Z</time></trkpt><trkpt lat="43.92691196408719" lon="4.518608173435888"><ele>130.0</ele><time>2026-04-04T15:12:27Z</time></trkpt><trkpt lat="43.92678037168166" lon="4.518589266732077"><ele>130.0</ele><time>2026-04-04T15:12:29Z</time></trkpt><trkpt lat="43.92670915174132" lon="4.518583722494117"><ele>130.0</ele><time>2026-04-04T15:12:30Z</time></trkpt><trkpt lat="43.92663458764029" lon="4.518601275339293"><ele>130.0</ele><time>2026-04-04T15:12:31Z</time></trkpt><trkpt lat="43.92656456083709" lon="4.518622576489868"><ele>129.16666666666669</ele><time>2026-04-04T15:12:32Z</time></trkpt><trkpt lat="43.926500755365275" lon="4.518611020999733"><ele>128.33333333333334</ele><time>2026-04-04T15:12:33Z</time></trkpt><trkpt lat="43.926427790412596" lon="4.518601688908673"><ele>127.5</ele><time>2026-04-04T15:12:34Z</time></trkpt><trkpt lat="43.92635752152855" lon="4.51858873878969"><ele>126.66666666666666</ele><time>2026-04-04T15:12:35Z</time></trkpt><trkpt lat="43.92627395649952" lon="4.518551523033408"><ele>125.83333333333333</ele><time>2026-04-04T15:12:37Z</time></trkpt><trkpt lat="43.926178832828136" lon="4.518558017237425"><ele>125.0</ele><time>2026-04-04T15:12:39.001Z</time></trkpt><trkpt lat="43.92611110499656" lon="4.518562819881798"><ele>124.99999999999999</ele><time>2026-04-04T15:12:40.001Z</time></trkpt><trkpt lat="43.92599347052613" lon="4.518641347522908"><ele>125.0</ele><time>2026-04-04T15:12:42.001Z</time></trkpt><trkpt lat="43.92593837477529" lon="4.518713932817622"><ele>125.0</ele><time>2026-04-04T15:12:43.001Z</time></trkpt><trkpt lat="43.92588394532147" lon="4.518810252904256"><ele>125.0</ele><time>2026-04-04T15:12:44.001Z</time></trkpt><trkpt lat="43.92583133339921" lon="4.5188869318187095"><ele>124.99999999999999</ele><time>2026-04-04T15:12:45.001Z</time></trkpt><trkpt lat="43.925778833695375" lon="4.5189387509299985"><ele>125.0</ele><time>2026-04-04T15:12:46.001Z</time></trkpt><trkpt lat="43.925720595378735" lon="4.518988736922085"><ele>124.83333333333333</ele><time>2026-04-04T15:12:47.001Z</time></trkpt><trkpt lat="43.9256461511858" lon="4.519032279987751"><ele>124.66666666666666</ele><time>2026-04-04T15:12:48.001Z</time></trkpt><trkpt lat="43.92556553368738" lon="4.519065865841382"><ele>124.5</ele><time>2026-04-04T15:12:49.001Z</time></trkpt><trkpt lat="43.9254847851908" lon="4.51907120055227"><ele>124.33333333333334</ele><time>2026-04-04T15:12:50.001Z</time></trkpt><trkpt lat="43.9254122120936" lon="4.519071855689445"><ele>124.16666666666667</ele><time>2026-04-04T15:12:51.001Z</time></trkpt><trkpt lat="43.9253279147489" lon="4.519058416024822"><ele>124.0</ele><time>2026-04-04T15:12:52.001Z</time></trkpt><trkpt lat="43.925242987465275" lon="4.519023359392288"><ele>124.00000000000001</ele><time>2026-04-04T15:12:53.001Z</time></trkpt><trkpt lat="43.92515418962903" lon="4.518988520266197"><ele>124.0</ele><time>2026-04-04T15:12:54Z</time></trkpt><trkpt lat="43.92508235927616" lon="4.518976789435543"><ele>124.0</ele><time>2026-04-04T15:12:55Z</time></trkpt><trkpt lat="43.92500703161243" lon="4.518978945915731"><ele>124.0</ele><time>2026-04-04T15:12:56Z</time></trkpt><trkpt lat="43.924931634811976" lon="4.5189928454872375"><ele>124.00000000000001</ele><time>2026-04-04T15:12:57Z</time></trkpt><trkpt lat="43.924865278116364" lon="4.519000639695753"><ele>124.0</ele><time>2026-04-04T15:12:58Z</time></trkpt><trkpt lat="43.92478729220102" lon="4.51898834025851"><ele>125.6</ele><time>2026-04-04T15:12:59Z</time></trkpt><trkpt lat="43.924700850696084" lon="4.518952691835368"><ele>127.2</ele><time>2026-04-04T15:13:00Z</time></trkpt><trkpt lat="43.92460014906232" lon="4.518906903476991"><ele>128.79999999999998</ele><time>2026-04-04T15:13:01Z</time></trkpt><trkpt lat="43.92449002949706" lon="4.518859927652723"><ele>130.4</ele><time>2026-04-04T15:13:02Z</time></trkpt><trkpt lat="43.92437472541326" lon="4.518818354405542"><ele>132.0</ele><time>2026-04-04T15:13:03Z</time></trkpt><trkpt lat="43.924249571173895" lon="4.518778750637903"><ele>131.6</ele><time>2026-04-04T15:13:04Z</time></trkpt><trkpt lat="43.92412972882703" lon="4.518736338398811"><ele>131.2</ele><time>2026-04-04T15:13:05Z</time></trkpt><trkpt lat="43.924019129169004" lon="4.518685756589291"><ele>130.8</ele><time>2026-04-04T15:13:06Z</time></trkpt><trkpt lat="43.92391939239089" lon="4.518641603948384"><ele>130.4</ele><time>2026-04-04T15:13:07Z</time></trkpt><trkpt lat="43.92383097750796" lon="4.51862303962731"><ele>130.0</ele><time>2026-04-04T15:13:08Z</time></trkpt><trkpt lat="43.923742449701244" lon="4.518625618541628"><ele>130.0</ele><time>2026-04-04T15:13:09Z</time></trkpt><trkpt lat="43.9236550433633" lon="4.518652292251234"><ele>130.0</ele><time>2026-04-04T15:13:10Z</time></trkpt><trkpt lat="43.92357822112525" lon="4.518664369705347"><ele>130.0</ele><time>2026-04-04T15:13:11Z</time></trkpt><trkpt lat="43.923489013018724" lon="4.518655742665872"><ele>130.0</ele><time>2026-04-04T15:13:12Z</time></trkpt><trkpt lat="43.92341859539463" lon="4.518625403262571"><ele>130.0</ele><time>2026-04-04T15:13:13Z</time></trkpt><trkpt lat="43.923335267777794" lon="4.5185585804941795"><ele>130.0</ele><time>2026-04-04T15:13:14Z</time></trkpt><trkpt lat="43.92325541459922" lon="4.5184667046622415"><ele>130.0</ele><time>2026-04-04T15:13:15Z</time></trkpt><trkpt lat="43.92318850420753" lon="4.5183993110411835"><ele>130.0</ele><time>2026-04-04T15:13:16Z</time></trkpt><trkpt lat="43.92314097514086" lon="4.518330315942144"><ele>130.0</ele><time>2026-04-04T15:13:17Z</time></trkpt><trkpt lat="43.92311671943043" lon="4.518231233386529"><ele>130.0</ele><time>2026-04-04T15:13:18Z</time></trkpt><trkpt lat="43.92310005377996" lon="4.518093246991363"><ele>130.0</ele><time>2026-04-04T15:13:19Z</time></trkpt><trkpt lat="43.92307323775359" lon="4.517961265741685"><ele>130.0</ele><time>2026-04-04T15:13:20Z</time></trkpt><trkpt lat="43.92300691346312" lon="4.51786085971041"><ele>129.8</ele><time>2026-04-04T15:13:21Z</time></trkpt><trkpt lat="43.92292331614748" lon="4.517799277963023"><ele>129.6</ele><time>2026-04-04T15:13:22Z</time></trkpt><trkpt lat="43.922838408074725" lon="4.517752985893094"><ele>129.4</ele><time>2026-04-04T15:13:23Z</time></trkpt><trkpt lat="43.92275265860879" lon="4.5177177909794155"><ele>129.2</ele><time>2026-04-04T15:13:24Z</time></trkpt><trkpt lat="43.92265122907634" lon="4.5176950621371486"><ele>129.0</ele><time>2026-04-04T15:13:25Z</time></trkpt><trkpt lat="43.92254134648485" lon="4.517682335644005"><ele>129.0</ele><time>2026-04-04T15:13:26Z</time></trkpt><trkpt lat="43.922418133954416" lon="4.517669904797625"><ele>129.0</ele><time>2026-04-04T15:13:27Z</time></trkpt><trkpt lat="43.92231308873947" lon="4.517665661420172"><ele>129.0</ele><time>2026-04-04T15:13:28Z</time></trkpt><trkpt lat="43.922222962553136" lon="4.51764661056438"><ele>129.0</ele><time>2026-04-04T15:13:29Z</time></trkpt><trkpt lat="43.92214655126709" lon="4.5176221157096075"><ele>129.0</ele><time>2026-04-04T15:13:30Z</time></trkpt><trkpt lat="43.92206720324335" lon="4.517575079584237"><ele>129.0</ele><time>2026-04-04T15:13:31Z</time></trkpt><trkpt lat="43.92197426412811" lon="4.517517827054906"><ele>129.0</ele><time>2026-04-04T15:13:32Z</time></trkpt><trkpt lat="43.921878001390844" lon="4.517456273278011"><ele>129.0</ele><time>2026-04-04T15:13:33Z</time></trkpt><trkpt lat="43.921791412742834" lon="4.517394651997371"><ele>129.0</ele><time>2026-04-04T15:13:34Z</time></trkpt><trkpt lat="43.92171143640647" lon="4.5173196499560495"><ele>129.0</ele><time>2026-04-04T15:13:35Z</time></trkpt><trkpt lat="43.921625841929085" lon="4.5172142516021525"><ele>129.0</ele><time>2026-04-04T15:13:36Z</time></trkpt><trkpt lat="43.92153474838844" lon="4.517107544898846"><ele>129.0</ele><time>2026-04-04T15:13:37Z</time></trkpt><trkpt lat="43.92145183420345" lon="4.517008484019385"><ele>129.0</ele><time>2026-04-04T15:13:38Z</time></trkpt><trkpt lat="43.9213722713939" lon="4.516907901662954"><ele>129.0</ele><time>2026-04-04T15:13:39Z</time></trkpt><trkpt lat="43.92130780584637" lon="4.516810773518421"><ele>129.0</ele><time>2026-04-04T15:13:40Z</time></trkpt><trkpt lat="43.92125646157042" lon="4.516718698660082"><ele>129.0</ele><time>2026-04-04T15:13:41Z</time></trkpt><trkpt lat="43.9211955649301" lon="4.5166136528504754"><ele>129.0</ele><time>2026-04-04T15:13:42Z</time></trkpt><trkpt lat="43.92112595954308" lon="4.516496428953525"><ele>129.0</ele><time>2026-04-04T15:13:43Z</time></trkpt><trkpt lat="43.921057774107844" lon="4.516376498309111"><ele>129.0</ele><time>2026-04-04T15:13:44Z</time></trkpt><trkpt lat="43.9209746846986" lon="4.516252321102932"><ele>129.0</ele><time>2026-04-04T15:13:45Z</time></trkpt><trkpt lat="43.920880185696824" lon="4.516142228501704"><ele>128.25</ele><time>2026-04-04T15:13:46Z</time></trkpt><trkpt lat="43.92077814357392" lon="4.516040401664337"><ele>127.5</ele><time>2026-04-04T15:13:47Z</time></trkpt><trkpt lat="43.92067644656897" lon="4.515941632391609"><ele>126.75</ele><time>2026-04-04T15:13:48Z</time></trkpt><trkpt lat="43.92057889982549" lon="4.515832008627185"><ele>126.0</ele><time>2026-04-04T15:13:49Z</time></trkpt><trkpt lat="43.920486906416826" lon="4.5157254199845935"><ele>126.0</ele><time>2026-04-04T15:13:50Z</time></trkpt><trkpt lat="43.92038520610405" lon="4.515614224132414"><ele>126.0</ele><time>2026-04-04T15:13:51Z</time></trkpt><trkpt lat="43.92029291688912" lon="4.515504181877213"><ele>126.0</ele><time>2026-04-04T15:13:52Z</time></trkpt><trkpt lat="43.92019762612592" lon="4.515394383403818"><ele>126.0</ele><time>2026-04-04T15:13:53Z</time></trkpt><trkpt lat="43.920112077496235" lon="4.515278491042637"><ele>126.25</ele><time>2026-04-04T15:13:54Z</time></trkpt><trkpt lat="43.92002922596541" lon="4.515146820100149"><ele>126.5</ele><time>2026-04-04T15:13:55Z</time></trkpt><trkpt lat="43.919948948191674" lon="4.515013476289292"><ele>126.75</ele><time>2026-04-04T15:13:56Z</time></trkpt><trkpt lat="43.91987988385241" lon="4.514885953463258"><ele>127.0</ele><time>2026-04-04T15:13:57Z</time></trkpt><trkpt lat="43.919796658839054" lon="4.514760289907305"><ele>127.0</ele><time>2026-04-04T15:13:58Z</time></trkpt><trkpt lat="43.919719670455585" lon="4.51462775821635"><ele>127.0</ele><time>2026-04-04T15:13:59Z</time></trkpt><trkpt lat="43.91964174669809" lon="4.514496417908074"><ele>127.0</ele><time>2026-04-04T15:14:00Z</time></trkpt><trkpt lat="43.91957679536616" lon="4.514365067921897"><ele>127.0</ele><time>2026-04-04T15:14:01Z</time></trkpt><trkpt lat="43.91949517548774" lon="4.514233433844751"><ele>128.25</ele><time>2026-04-04T15:14:02Z</time></trkpt><trkpt lat="43.91941681014315" lon="4.514104977946029"><ele>129.5</ele><time>2026-04-04T15:14:03Z</time></trkpt><trkpt lat="43.91932904675086" lon="4.513972008013181"><ele>130.75</ele><time>2026-04-04T15:14:04Z</time></trkpt><trkpt lat="43.919247640390054" lon="4.513842565500772"><ele>132.0</ele><time>2026-04-04T15:14:05Z</time></trkpt><trkpt lat="43.91917151719465" lon="4.513709159340716"><ele>132.0</ele><time>2026-04-04T15:14:06Z</time></trkpt><trkpt lat="43.91910301123054" lon="4.513577094486121"><ele>132.0</ele><time>2026-04-04T15:14:07Z</time></trkpt><trkpt lat="43.9190279408665" lon="4.513442330207513"><ele>132.0</ele><time>2026-04-04T15:14:08Z</time></trkpt><trkpt lat="43.918955241394585" lon="4.513306066975311"><ele>132.0</ele><time>2026-04-04T15:14:09Z</time></trkpt><trkpt lat="43.918894660716646" lon="4.513182530845953"><ele>132.0</ele><time>2026-04-04T15:14:10Z</time></trkpt><trkpt lat="43.91885170949446" lon="4.513084497629517"><ele>132.0</ele><time>2026-04-04T15:14:11Z</time></trkpt><trkpt lat="43.91880704118027" lon="4.512992505782253"><ele>132.0</ele><time>2026-04-04T15:14:12Z</time></trkpt><trkpt lat="43.91875348120176" lon="4.512880471090194"><ele>132.0</ele><time>2026-04-04T15:14:13Z</time></trkpt><trkpt lat="43.918723537366795" lon="4.5127283252058366"><ele>132.0</ele><time>2026-04-04T15:14:14Z</time></trkpt><trkpt lat="43.91866614815013" lon="4.512628051778979"><ele>133.2</ele><time>2026-04-04T15:14:15Z</time></trkpt><trkpt lat="43.91861752165845" lon="4.512541742655804"><ele>134.39999999999998</ele><time>2026-04-04T15:14:16Z</time></trkpt><trkpt lat="43.91853327508951" lon="4.512399386171789"><ele>135.60000000000002</ele><time>2026-04-04T15:14:18Z</time></trkpt><trkpt lat="43.91847168382266" lon="4.51226401482792"><ele>136.8</ele><time>2026-04-04T15:14:20Z</time></trkpt><trkpt lat="43.91843100818436" lon="4.512162192910915"><ele>138.0</ele><time>2026-04-04T15:14:22Z</time></trkpt><trkpt lat="43.918402775649426" lon="4.512038212485148"><ele>137.5</ele><time>2026-04-04T15:14:24Z</time></trkpt><trkpt lat="43.91838616849737" lon="4.511948179163215"><ele>137.0</ele><time>2026-04-04T15:14:25Z</time></trkpt><trkpt lat="43.91836386870339" lon="4.51185648279035"><ele>136.5</ele><time>2026-04-04T15:14:26Z</time></trkpt><trkpt lat="43.91833166642647" lon="4.51174317447214"><ele>136.0</ele><time>2026-04-04T15:14:27Z</time></trkpt><trkpt lat="43.91829376795132" lon="4.511619317622487"><ele>135.5</ele><time>2026-04-04T15:14:28Z</time></trkpt><trkpt lat="43.918260049929515" lon="4.511515371175311"><ele>135.0</ele><time>2026-04-04T15:14:29Z</time></trkpt><trkpt lat="43.91823335830996" lon="4.51143180585045"><ele>135.0</ele><time>2026-04-04T15:14:30Z</time></trkpt><trkpt lat="43.918183979454454" lon="4.51127738919037"><ele>135.0</ele><time>2026-04-04T15:14:32Z</time></trkpt><trkpt lat="43.918144178116876" lon="4.511136631156473"><ele>135.0</ele><time>2026-04-04T15:14:34Z</time></trkpt><trkpt lat="43.918114774043644" lon="4.511002679940565"><ele>135.0</ele><time>2026-04-04T15:14:36Z</time></trkpt><trkpt lat="43.91808957978177" lon="4.510875448923739"><ele>135.0</ele><time>2026-04-04T15:14:38Z</time></trkpt><trkpt lat="43.91805066983581" lon="4.510716717139969"><ele>135.16666666666666</ele><time>2026-04-04T15:14:40Z</time></trkpt><trkpt lat="43.91804537966171" lon="4.510588270863143"><ele>135.33333333333334</ele><time>2026-04-04T15:14:41Z</time></trkpt><trkpt lat="43.91803511770866" lon="4.51046198058479"><ele>135.5</ele><time>2026-04-04T15:14:42Z</time></trkpt><trkpt lat="43.91802365681142" lon="4.510349894786057"><ele>135.66666666666669</ele><time>2026-04-04T15:14:43Z</time></trkpt><trkpt lat="43.91801632170226" lon="4.510256384080271"><ele>135.83333333333334</ele><time>2026-04-04T15:14:44Z</time></trkpt><trkpt lat="43.91800569832368" lon="4.510163093512894"><ele>136.0</ele><time>2026-04-04T15:14:45Z</time></trkpt><trkpt lat="43.91799531223317" lon="4.509996810284495"><ele>136.0</ele><time>2026-04-04T15:14:47Z</time></trkpt><trkpt lat="43.917968935053736" lon="4.509865765701206"><ele>136.0</ele><time>2026-04-04T15:14:49Z</time></trkpt><trkpt lat="43.91794748215521" lon="4.509770518592001"><ele>136.0</ele><time>2026-04-04T15:14:50Z</time></trkpt><trkpt lat="43.917907087947526" lon="4.5096258968443665"><ele>136.0</ele><time>2026-04-04T15:14:51Z</time></trkpt><trkpt lat="43.91785854677947" lon="4.509539694876568"><ele>136.0</ele><time>2026-04-04T15:14:52Z</time></trkpt><trkpt lat="43.91782231862172" lon="4.509457165757069"><ele>136.0</ele><time>2026-04-04T15:14:53Z</time></trkpt><trkpt lat="43.917777299299296" lon="4.509378527500071"><ele>135.6</ele><time>2026-04-04T15:14:54Z</time></trkpt><trkpt lat="43.91775393433695" lon="4.50929731120911"><ele>135.2</ele><time>2026-04-04T15:14:55Z</time></trkpt><trkpt lat="43.917685365727486" lon="4.509164561895157"><ele>134.8</ele><time>2026-04-04T15:14:57Z</time></trkpt><trkpt lat="43.91762172776143" lon="4.509024387140154"><ele>134.4</ele><time>2026-04-04T15:14:59Z</time></trkpt><trkpt lat="43.917587750202436" lon="4.508946492945249"><ele>134.0</ele><time>2026-04-04T15:15:00Z</time></trkpt><trkpt lat="43.9175150138405" lon="4.5088052813796295"><ele>136.4</ele><time>2026-04-04T15:15:02Z</time></trkpt><trkpt lat="43.91746180480056" lon="4.508686695081021"><ele>138.8</ele><time>2026-04-04T15:15:04Z</time></trkpt><trkpt lat="43.91737066639431" lon="4.508590888427605"><ele>141.2</ele><time>2026-04-04T15:15:06Z</time></trkpt><trkpt lat="43.91729064405182" lon="4.508550683181201"><ele>143.6</ele><time>2026-04-04T15:15:08Z</time></trkpt><trkpt lat="43.91718369969331" lon="4.50854292245508"><ele>146.0</ele><time>2026-04-04T15:15:11Z</time></trkpt><trkpt lat="43.9171180960407" lon="4.508554339977924"><ele>143.0</ele><time>2026-04-04T15:15:13Z</time></trkpt><trkpt lat="43.91716623904419" lon="4.508790414784856"><ele>140.0</ele><time>2026-04-04T15:15:16Z</time></trkpt><trkpt lat="43.91722556279258" lon="4.508910887591627"><ele>137.0</ele><time>2026-04-04T15:15:18Z</time></trkpt><trkpt lat="43.91725929666156" lon="4.509007665036496"><ele>134.0</ele><time>2026-04-04T15:15:19Z</time></trkpt><trkpt lat="43.91730169416729" lon="4.509121781823273"><ele>134.0</ele><time>2026-04-04T15:15:20Z</time></trkpt><trkpt lat="43.917343666422695" lon="4.509217939612549"><ele>134.0</ele><time>2026-04-04T15:15:21Z</time></trkpt><trkpt lat="43.917382058648656" lon="4.5093191816024385"><ele>134.0</ele><time>2026-04-04T15:15:22Z</time></trkpt><trkpt lat="43.917412805212166" lon="4.509414428193221"><ele>134.0</ele><time>2026-04-04T15:15:23Z</time></trkpt><trkpt lat="43.91744220074706" lon="4.509563014484326"><ele>134.0</ele><time>2026-04-04T15:15:25Z</time></trkpt><trkpt lat="43.91747932780484" lon="4.509639217588442"><ele>134.0</ele><time>2026-04-04T15:15:26Z</time></trkpt><trkpt lat="43.91749966872242" lon="4.5098079252694605"><ele>133.2</ele><time>2026-04-04T15:15:28Z</time></trkpt><trkpt lat="43.91751146713349" lon="4.50989639767401"><ele>132.4</ele><time>2026-04-04T15:15:29Z</time></trkpt><trkpt lat="43.917497726928744" lon="4.5100483099151125"><ele>131.6</ele><time>2026-04-04T15:15:31Z</time></trkpt><trkpt lat="43.91737050922565" lon="4.510141123442383"><ele>130.8</ele><time>2026-04-04T15:15:33Z</time></trkpt><trkpt lat="43.917273080471915" lon="4.510172288075654"><ele>130.0</ele><time>2026-04-04T15:15:34Z</time></trkpt><trkpt lat="43.917183268060285" lon="4.510194517230085"><ele>130.0</ele><time>2026-04-04T15:15:35Z</time></trkpt><trkpt lat="43.91711710775287" lon="4.510217317814275"><ele>130.0</ele><time>2026-04-04T15:15:36Z</time></trkpt><trkpt lat="43.91702341000138" lon="4.510213298501666"><ele>130.0</ele><time>2026-04-04T15:15:38Z</time></trkpt><trkpt lat="43.91697660491839" lon="4.510093966304046"><ele>130.0</ele><time>2026-04-04T15:15:40Z</time></trkpt><trkpt lat="43.91692290914338" lon="4.509970052899411"><ele>130.0</ele><time>2026-04-04T15:15:42Z</time></trkpt><trkpt lat="43.916863958783445" lon="4.50988582140731"><ele>130.0</ele><time>2026-04-04T15:15:44Z</time></trkpt><trkpt lat="43.916780119995906" lon="4.509890616837675"><ele>128.8</ele><time>2026-04-04T15:15:46Z</time></trkpt><trkpt lat="43.91667207406788" lon="4.509930039976821"><ele>127.6</ele><time>2026-04-04T15:15:48Z</time></trkpt><trkpt lat="43.91659710593859" lon="4.509967121288529"><ele>126.4</ele><time>2026-04-04T15:15:49Z</time></trkpt><trkpt lat="43.91652282939688" lon="4.510001901703138"><ele>125.2</ele><time>2026-04-04T15:15:50Z</time></trkpt><trkpt lat="43.91645631053883" lon="4.5100250393497126"><ele>124.0</ele><time>2026-04-04T15:15:51Z</time></trkpt><trkpt lat="43.916315470551794" lon="4.510096068813257"><ele>124.00000000000001</ele><time>2026-04-04T15:15:53Z</time></trkpt><trkpt lat="43.91622466373425" lon="4.510138225350706"><ele>124.0</ele><time>2026-04-04T15:15:54Z</time></trkpt><trkpt lat="43.91613640495091" lon="4.5101761956194295"><ele>124.0</ele><time>2026-04-04T15:15:55Z</time></trkpt><trkpt lat="43.91605193156686" lon="4.5102104493657516"><ele>124.0</ele><time>2026-04-04T15:15:56Z</time></trkpt><trkpt lat="43.91596820581194" lon="4.510249011826583"><ele>124.00000000000001</ele><time>2026-04-04T15:15:57Z</time></trkpt><trkpt lat="43.915897207901466" lon="4.510290198889648"><ele>124.0</ele><time>2026-04-04T15:15:58Z</time></trkpt><trkpt lat="43.91582912856403" lon="4.510322364098566"><ele>123.0</ele><time>2026-04-04T15:15:59Z</time></trkpt><trkpt lat="43.91575970691116" lon="4.510355222316228"><ele>122.0</ele><time>2026-04-04T15:16:00Z</time></trkpt><trkpt lat="43.91567257456834" lon="4.510387943157105"><ele>121.0</ele><time>2026-04-04T15:16:01Z</time></trkpt><trkpt lat="43.915604533776744" lon="4.510400403896396"><ele>120.0</ele><time>2026-04-04T15:16:02Z</time></trkpt><trkpt lat="43.9154992557886" lon="4.510463643323518"><ele>119.0</ele><time>2026-04-04T15:16:03Z</time></trkpt><trkpt lat="43.915397279234796" lon="4.51049974931094"><ele>119.0</ele><time>2026-04-04T15:16:04Z</time></trkpt><trkpt lat="43.915311198721646" lon="4.51053243745534"><ele>119.0</ele><time>2026-04-04T15:16:05Z</time></trkpt><trkpt lat="43.91524384860019" lon="4.510553739282043"><ele>119.0</ele><time>2026-04-04T15:16:06Z</time></trkpt><trkpt lat="43.915142749692706" lon="4.510580103776004"><ele>119.0</ele><time>2026-04-04T15:16:08Z</time></trkpt><trkpt lat="43.915049647084295" lon="4.510615887459602"><ele>119.0</ele><time>2026-04-04T15:16:10Z</time></trkpt><trkpt lat="43.91498266203555" lon="4.510713526460071"><ele>119.0</ele><time>2026-04-04T15:16:13Z</time></trkpt><trkpt lat="43.91502825294805" lon="4.510854900957361"><ele>119.0</ele><time>2026-04-04T15:16:15Z</time></trkpt><trkpt lat="43.91508044137154" lon="4.510955253438682"><ele>119.0</ele><time>2026-04-04T15:16:16Z</time></trkpt><trkpt lat="43.915108949247895" lon="4.511093156785752"><ele>119.0</ele><time>2026-04-04T15:16:17Z</time></trkpt><trkpt lat="43.915154814753336" lon="4.511223992793416"><ele>119.0</ele><time>2026-04-04T15:16:18Z</time></trkpt><trkpt lat="43.91520412488177" lon="4.511368268337903"><ele>118.66666666666666</ele><time>2026-04-04T15:16:19Z</time></trkpt><trkpt lat="43.915257436453565" lon="4.511494924351093"><ele>118.33333333333333</ele><time>2026-04-04T15:16:20Z</time></trkpt><trkpt lat="43.915304843844" lon="4.5115957768507"><ele>118.0</ele><time>2026-04-04T15:16:21Z</time></trkpt><trkpt lat="43.91534287489385" lon="4.5116876384669204"><ele>117.66666666666666</ele><time>2026-04-04T15:16:22Z</time></trkpt><trkpt lat="43.91533075177087" lon="4.511791907554005"><ele>117.33333333333333</ele><time>2026-04-04T15:16:23Z</time></trkpt><trkpt lat="43.91527802926686" lon="4.51188259612701"><ele>117.0</ele><time>2026-04-04T15:16:24Z</time></trkpt><trkpt lat="43.91519585531204" lon="4.511939431202688"><ele>117.0</ele><time>2026-04-04T15:16:25Z</time></trkpt><trkpt lat="43.915111626282794" lon="4.512019829151632"><ele>116.99999999999999</ele><time>2026-04-04T15:16:26Z</time></trkpt><trkpt lat="43.91502515418896" lon="4.512119495164892"><ele>116.99999999999999</ele><time>2026-04-04T15:16:27Z</time></trkpt><trkpt lat="43.91493776447494" lon="4.512216921816679"><ele>117.0</ele><time>2026-04-04T15:16:28Z</time></trkpt><trkpt lat="43.91485974332528" lon="4.512306769960124"><ele>117.0</ele><time>2026-04-04T15:16:29Z</time></trkpt><trkpt lat="43.9148002591119" lon="4.512389202502842"><ele>116.0</ele><time>2026-04-04T15:16:29.999Z</time></trkpt><trkpt lat="43.91474837576429" lon="4.512464950818672"><ele>114.99999999999999</ele><time>2026-04-04T15:16:30.999Z</time></trkpt><trkpt lat="43.91467226317214" lon="4.512565710128178"><ele>113.99999999999999</ele><time>2026-04-04T15:16:32.999Z</time></trkpt><trkpt lat="43.91457731380436" lon="4.5125319199195095"><ele>113.0</ele><time>2026-04-04T15:16:34.999Z</time></trkpt><trkpt lat="43.914484371088264" lon="4.512455236299581"><ele>112.0</ele><time>2026-04-04T15:16:36.999Z</time></trkpt><trkpt lat="43.91441357370444" lon="4.512413294375635"><ele>112.0</ele><time>2026-04-04T15:16:38.999Z</time></trkpt><trkpt lat="43.91435100341622" lon="4.51237191133044"><ele>112.0</ele><time>2026-04-04T15:16:40.999Z</time></trkpt><trkpt lat="43.91432184910724" lon="4.512461518639099"><ele>112.0</ele><time>2026-04-04T15:16:44.999Z</time></trkpt></trkseg></trk></gpx>